GFSMA_925_thetae_000.txt.gz
Theta_e
333 334 333 332 328 326 323 319 320 318 316 315 314 313 314 314 313 314 313 314 315 316 318 325 328 330 331 330 332 331 330 328 328 329 331 330 330 330 330 329 327 327 330
333 332 325 320 317 317 316 316 314 313 311 310 309 308 310 310 310 308 312 311 311 311 313 318 319 324 328 328 328 327 327 327 327 328 327 327 328 329 329 330 330 329 328
329 321 320 316 314 314 314 313 311 308 305 304 304 303 304 305 304 309 308 305 310 307 307 308 313 312 314 315 316 319 319 318 318 318 318 320 322 322 323 325 327 329 330
323 321 312 311 311 311 309 307 303 300 302 299 300 301 300 303 305 303 300 305 304 305 303 306 304 303 304 308 312 312 313 313 312 313 316 320 321 322 322 323 324 323 322
311 309 308 306 305 305 303 300 299 299 300 298 299 299 299 304 303 299 299 303 298 303 301 301 299 299 301 306 305 307 308 309 310 312 313 313 314 318 320 321 322 323 324
307 305 304 303 302 300 299 298 297 296 299 298 300 298 301 304 302 298 299 297 301 300 299 299 298 297 300 300 302 303 304 307 310 311 310 312 313 314 315 316 318 319 321
304 304 302 301 300 298 297 297 296 296 297 297 299 298 300 299 300 296 298 296 299 296 298 297 298 297 298 297 298 300 301 303 305 307 308 308 309 310 310 310 312 313 316
302 301 299 298 298 296 295 295 295 295 296 295 297 297 297 298 298 295 297 296 296 296 297 295 296 297 295 296 295 294 296 300 302 303 305 305 306 307 307 308 309 310 312
300 299 298 297 296 295 294 294 293 293 293 293 296 296 296 296 295 297 294 296 294 295 293 295 294 296 295 294 293 293 296 299 299 301 302 303 304 304 304 304 305 306 308
298 297 296 295 294 294 293 293 292 292 292 292 293 294 293 294 293 293 294 293 294 292 293 294 294 295 294 293 292 293 295 295 296 298 300 301 301 301 302 302 303 303 304
297 295 294 294 293 293 292 292 291 291 291 291 291 291 291 292 292 292 291 291 292 292 293 293 293 293 292 292 293 292 293 294 296 296 297 297 298 299 300 300 300 300 301
295 294 293 292 292 292 291 291 291 290 290 290 290 290 290 291 290 290 290 290 290 291 291 291 292 291 292 292 291 291 293 293 293 293 293 294 295 296 296 296 297 297 298
294 293 292 292 291 290 290 290 290 290 290 289 289 289 289 288 289 290 290 288 289 290 290 290 290 291 291 290 290 291 291 290 290 290 291 292 293 293 294 294 295 296 297
293 292 291 291 290 290 289 289 289 289 289 289 288 288 288 287 287 287 287 288 288 288 289 290 290 290 289 290 289 289 288 288 288 289 290 290 291 291 292 293 293 295 295
292 291 291 290 289 289 289 289 289 289 288 288 288 287 287 286 286 286 286 287 288 288 288 288 289 289 289 288 288 288 288 288 288 289 289 289 290 291 291 292 293 293 294
291 290 290 289 289 289 289 289 289 288 288 288 287 287 287 287 286 286 286 287 287 287 287 288 288 288 287 287 287 288 288 288 288 288 288 288 288 289 291 290 291 292 292
290 289 289 289 289 289 289 288 288 288 288 287 287 287 287 286 286 285 286 286 286 287 287 288 287 287 287 287 287 287 287 288 287 286 286 287 288 288 289 289 289 289 290
289 289 288 288 288 288 288 288 288 288 288 287 287 287 286 285 285 285 286 286 286 287 286 286 287 287 287 287 287 287 286 285 285 285 285 286 286 287 287 287 288 289 290
289 288 288 288 288 288 288 287 287 288 287 287 287 286 285 285 285 285 286 286 287 287 287 287 287 286 286 287 285 284 283 283 283 283 284 285 285 286 287 288 290 288 287
288 288 288 288 288 287 287 287 288 288 287 287 286 286 285 285 285 286 286 287 286 285 286 286 287 287 287 285 284 283 283 282 283 283 284 285 285 285 286 285 285 286 287
288 287 287 287 287 286 286 287 287 287 287 286 286 285 285 285 286 286 286 286 286 286 287 287 286 286 285 284 283 282 282 283 283 284 283 283 284 284 283 284 284 285 286
287 287 287 286 286 285 285 287 287 286 286 285 285 285 285 285 285 285 285 285 286 287 286 286 286 285 283 283 282 282 283 284 282 282 283 283 283 283 283 283 284 285 285
287 287 286 285 285 284 285 286 286 286 285 285 284 284 284 284 285 285 285 285 285 286 286 284 283 283 283 283 283 283 282 282 282 282 282 282 282 282 282 282 283 284 285
286 286 285 284 284 283 284 285 285 285 284 284 284 284 284 285 284 285 285 285 286 283 282 282 282 283 283 282 282 282 282 282 282 281 281 282 281 281 281 282 282 283 284
285 285 284 284 283 283 283 284 285 284 284 284 284 284 284 284 284 285 286 285 282 281 281 283 283 282 281 281 281 282 282 281 281 281 280 281 281 281 281 281 282 283 284
284 284 283 283 283 283 283 284 284 284 284 283 284 284 284 284 285 286 284 282 281 281 282 281 279 279 279 280 281 280 281 280 280 280 280 281 281 282 283 283 283 283 283

GFSMA_925_thetae_003.txt.gz
Theta_e
332 333 332 330 326 321 317 317 315 313 311 309 307 306 306 306 306 307 311 309 311 311 316 320 323 325 323 324 326 327 326 327 328 328 328 327 326 328 330 331 331 331 332
332 330 323 321 318 315 313 311 310 306 304 303 302 302 302 301 304 307 305 308 307 306 308 318 314 314 313 317 320 320 320 320 319 319 319 320 321 324 325 326 326 328 329
326 325 319 317 313 310 309 307 303 301 300 300 299 300 300 301 305 301 301 305 301 304 304 306 307 308 310 313 312 314 315 315 315 315 315 316 318 318 321 323 324 325 326
324 321 314 309 307 305 303 301 300 298 298 297 297 299 298 301 300 297 302 298 300 301 300 299 298 299 307 307 308 309 310 310 311 313 315 314 315 316 319 320 321 322 323
311 309 305 304 303 302 300 299 297 296 297 295 296 297 298 302 301 300 299 297 299 297 298 298 296 297 300 303 304 305 306 308 310 312 312 311 312 313 314 314 315 316 318
305 305 304 303 301 299 297 296 295 295 297 294 295 296 299 303 301 300 297 296 297 296 297 296 295 295 297 298 299 301 302 302 304 307 307 307 309 309 310 311 311 311 312
305 304 303 301 298 297 295 294 294 294 294 294 296 296 299 299 299 298 296 295 296 295 294 295 293 295 295 296 295 297 297 299 304 304 305 306 307 307 308 308 309 308 309
303 302 300 299 297 295 294 293 293 292 292 293 295 295 295 296 298 297 295 294 296 293 293 292 292 293 295 295 294 293 294 300 301 302 303 304 305 305 305 306 306 306 307
301 300 299 297 295 294 293 292 292 291 292 292 294 293 291 293 293 295 293 294 292 293 292 291 291 293 294 292 292 292 293 297 298 300 302 302 302 302 302 303 303 304 305
299 298 297 295 294 293 292 291 291 291 291 291 291 290 290 292 292 291 292 291 292 291 291 290 291 293 292 292 291 292 294 295 297 298 298 299 299 299 300 300 301 302 303
297 296 295 293 293 292 291 291 290 290 290 290 289 289 289 289 290 290 289 289 289 289 288 290 291 290 291 291 292 292 293 294 294 295 296 296 296 297 299 299 299 300 300
296 295 293 292 292 291 290 290 290 289 289 289 288 288 288 288 288 288 287 288 287 287 288 288 289 290 290 291 291 291 292 292 292 292 292 294 295 296 296 296 297 298 298
295 294 292 291 290 290 289 289 289 289 289 288 288 287 287 287 286 287 287 286 286 286 287 288 288 289 290 290 290 290 291 290 290 290 291 293 293 294 294 294 295 295 296
295 293 291 290 290 289 289 289 289 289 288 288 287 287 287 286 286 286 286 286 285 286 286 287 287 288 288 289 289 289 288 288 288 289 290 291 292 292 292 292 293 294 295
293 291 290 289 289 289 289 289 288 288 288 287 287 287 286 286 286 286 285 285 285 286 286 287 287 288 288 288 288 288 288 288 288 289 289 289 290 290 290 290 291 291 292
291 290 289 289 288 288 288 288 288 288 287 287 287 287 287 286 286 285 285 285 285 286 286 287 287 287 287 287 287 287 287 287 288 288 287 288 287 287 288 289 290 292 293
290 289 289 288 288 288 288 288 287 287 287 287 287 287 286 286 285 285 284 285 285 285 286 286 287 287 287 286 286 286 287 287 286 286 285 285 286 286 288 289 290 290 291
289 288 288 288 288 288 287 287 287 287 287 287 287 287 286 286 285 285 285 285 285 285 285 286 286 286 285 286 286 286 286 285 284 283 283 284 285 286 287 288 288 289 289
288 288 288 288 288 287 287 286 287 287 287 287 286 286 286 285 285 285 285 285 285 286 286 285 285 285 286 286 286 285 283 283 282 283 283 283 285 286 286 286 287 288 289
288 288 288 287 287 286 285 287 287 287 286 286 285 285 285 285 285 285 285 286 286 285 285 285 286 287 285 286 285 283 283 282 282 282 283 284 283 283 284 285 285 285 285
288 288 287 286 286 285 285 287 287 286 286 284 284 284 284 284 285 285 286 285 285 285 286 287 285 286 284 283 283 282 282 282 283 283 282 282 282 282 282 283 283 283 284
288 287 286 285 285 284 285 287 287 286 285 284 283 283 284 284 284 284 284 285 285 286 286 286 284 284 282 282 282 282 283 282 282 282 282 282 282 282 282 282 283 284 285
287 286 285 284 284 284 285 286 286 285 284 283 283 283 283 283 284 284 284 285 286 286 284 284 282 282 282 282 283 283 282 282 282 282 282 282 281 281 281 281 282 283 284
286 285 284 284 283 283 284 285 285 285 284 284 283 283 284 284 284 284 286 285 283 282 282 281 282 283 283 282 282 282 282 282 282 281 281 281 281 280 281 281 281 283 284
285 284 284 283 283 283 283 284 285 284 284 284 284 284 284 284 284 286 285 283 282 281 281 282 283 282 281 281 281 282 281 281 280 280 280 280 280 280 281 281 282 283 284
284 283 283 283 283 282 282 284 284 284 284 284 284 284 284 284 284 285 283 282 280 280 282 281 279 279 279 279 281 280 280 280 280 280 280 280 281 282 282 282 282 282 282

GFSMA_925_thetae_006.txt.gz
Theta_e
331 333 329 328 323 317 316 313 311 308 306 304 302 301 301 301 303 307 306 308 307 309 320 316 317 316 317 320 321 321 321 321 321 321 321 322 321 325 326 327 330 331 331
331 330 323 318 315 312 310 307 303 302 300 300 300 300 300 301 303 301 304 303 304 304 309 310 310 310 314 314 315 316 316 316 316 317 317 319 321 320 320 324 325 326 326
328 324 317 312 308 305 302 301 300 299 300 299 299 298 298 300 298 300 300 300 300 300 300 303 305 307 308 309 311 311 312 312 313 314 316 316 316 317 319 322 322 323 324
321 317 312 306 302 302 301 300 299 298 297 296 297 297 297 301 298 298 299 298 298 298 298 296 296 299 303 304 306 307 308 309 311 313 314 313 313 315 316 316 317 317 318
315 309 305 303 302 302 300 298 296 295 295 294 296 296 296 300 299 298 297 297 296 296 296 295 294 293 295 300 301 302 304 304 305 306 308 309 309 311 311 311 312 312 313
305 305 305 303 301 299 297 295 294 293 293 293 295 295 298 301 300 299 297 296 295 296 295 293 293 292 293 296 298 299 300 300 302 304 306 306 307 308 309 309 310 310 311
305 305 304 301 299 297 294 293 293 292 292 293 294 294 297 297 297 298 295 295 295 294 293 293 291 291 291 293 294 295 296 297 300 304 304 304 305 306 307 307 308 308 308
304 304 302 300 296 295 293 292 292 292 292 292 291 293 292 294 294 295 294 294 293 293 292 291 290 289 291 293 293 293 293 295 299 301 302 303 305 305 305 305 305 306 306
302 301 299 297 295 294 292 291 291 291 291 291 292 291 289 290 291 293 293 292 292 291 290 289 288 290 290 290 290 291 291 295 297 299 300 302 302 302 302 302 303 303 304
300 298 297 296 294 292 292 291 290 290 290 289 290 289 289 290 289 289 291 289 290 288 288 288 288 288 288 289 290 290 291 294 295 296 297 298 299 300 300 300 301 302 303
297 296 295 294 293 291 291 290 290 289 289 288 288 288 288 288 289 287 287 287 287 287 286 287 287 288 288 288 289 290 291 292 293 294 295 296 296 297 298 299 300 301 301
295 295 294 292 291 290 290 289 289 289 289 288 288 287 287 287 287 286 285 286 286 286 286 286 287 287 288 289 289 289 291 291 291 293 293 294 295 296 296 297 297 298 299
295 293 292 291 290 289 289 289 289 289 288 288 287 287 287 286 286 286 286 285 285 285 285 286 287 286 287 287 288 288 289 290 290 290 291 292 293 294 294 294 295 296 296
294 292 291 290 289 289 289 289 289 288 288 287 287 287 287 286 286 286 285 285 284 284 285 285 286 287 287 287 287 288 288 288 288 288 289 290 291 292 292 292 292 293 293
292 291 290 289 288 288 289 289 288 288 287 287 287 287 286 286 286 286 285 285 284 284 285 285 286 286 286 287 286 287 287 287 287 287 288 289 290 289 289 289 289 289 290
292 290 289 288 288 288 288 288 287 287 287 287 287 287 287 286 286 286 285 284 284 284 285 285 285 286 286 286 286 286 286 286 286 287 288 288 287 287 287 287 288 288 289
290 289 288 288 288 288 288 287 287 287 287 287 287 286 286 286 286 285 285 284 284 284 284 285 285 285 285 285 284 285 285 285 286 286 286 285 285 285 286 287 288 289 290
289 288 288 288 288 288 287 286 286 287 287 287 286 285 285 285 285 285 285 284 284 285 284 284 285 285 284 285 285 286 285 285 285 283 283 284 284 285 285 286 287 288 288
288 288 288 288 287 287 286 286 287 287 287 286 285 284 284 284 284 284 284 284 284 284 285 285 284 284 285 285 285 285 284 283 282 282 283 283 283 284 285 285 285 286 287
288 288 288 287 286 286 285 286 287 287 286 286 284 284 283 283 284 284 284 285 285 284 284 284 284 285 286 285 283 282 282 282 282 282 282 282 283 283 283 283 284 284 284
288 287 287 286 286 285 284 286 287 287 286 285 283 283 283 283 284 284 285 284 284 285 285 286 286 285 283 282 282 281 282 282 282 282 281 281 282 282 281 282 282 282 283
287 287 286 285 285 284 284 287 287 287 285 284 283 283 283 283 283 284 284 285 286 287 284 284 283 282 281 281 281 282 283 282 282 282 282 282 282 281 281 281 281 282 283
286 286 285 284 284 283 284 286 286 286 285 284 284 284 284 284 284 284 284 285 285 284 283 282 281 281 281 282 283 282 282 282 282 282 282 282 281 280 280 280 281 282 283
286 285 284 284 283 283 284 284 285 285 284 284 284 284 284 284 284 284 285 285 283 282 281 281 281 282 283 282 281 282 282 282 281 281 280 281 280 280 280 280 281 282 283
285 284 283 283 283 283 282 283 285 284 284 284 284 284 284 284 284 285 285 283 282 281 280 282 283 281 281 281 281 282 281 280 280 280 280 280 280 280 280 280 281 282 283
283 283 283 282 282 282 282 283 284 284 284 284 284 283 283 284 284 285 284 282 280 280 281 281 279 279 279 279 280 280 280 280 280 280 280 280 280 281 281 281 281 281 281

GFSMA_925_thetae_009.txt.gz
Theta_e
330 332 328 326 320 318 315 312 308 304 302 301 300 300 300 301 303 305 306 306 309 314 314 314 314 316 318 317 317 318 318 318 319 320 321 323 323 323 324 326 327 329 331
331 329 323 320 314 311 307 303 301 300 299 299 298 298 298 301 301 302 302 302 302 305 308 309 309 311 311 312 314 313 313 314 315 316 316 318 319 319 319 321 323 325 326
329 322 319 313 307 303 301 300 299 298 298 298 297 297 297 298 299 299 300 299 299 299 299 301 302 303 305 307 308 309 310 310 312 314 317 317 316 317 318 320 320 320 321
324 318 314 306 302 302 301 299 298 296 296 297 297 296 296 299 297 298 297 297 296 296 296 295 294 295 299 302 304 305 306 307 307 307 308 310 313 313 314 315 315 315 316
319 313 305 303 302 302 300 297 295 295 295 295 296 296 296 299 297 296 296 296 296 295 295 294 293 292 292 297 300 301 302 303 303 304 306 310 310 309 310 311 311 312 313
311 305 304 303 301 300 298 296 294 293 293 293 295 295 299 300 298 298 297 294 295 294 293 292 292 291 291 291 297 298 299 300 301 302 305 307 307 308 309 309 310 310 310
305 305 304 302 300 298 295 294 293 292 292 292 294 295 295 295 298 297 295 294 293 293 292 291 291 290 291 290 291 293 295 297 298 300 304 304 305 306 307 308 308 308 308
304 304 303 300 297 295 293 293 293 292 291 291 292 293 296 296 295 293 294 293 292 292 291 290 290 290 290 290 290 292 293 294 296 299 301 302 303 305 306 306 306 306 306
302 302 300 298 296 294 293 292 291 291 292 291 290 292 294 294 292 293 293 292 291 290 289 289 289 289 288 289 289 290 291 293 295 297 299 300 301 302 303 303 304 304 305
300 299 298 296 294 293 292 291 290 290 290 290 290 289 289 290 292 292 291 291 289 288 288 288 288 288 288 288 289 289 291 293 294 295 297 298 299 300 301 301 301 302 302
298 297 296 294 293 292 291 290 290 289 289 289 289 289 289 289 290 290 290 290 289 289 288 287 287 287 287 288 288 289 290 291 292 294 295 296 297 299 299 299 300 300 301
295 294 293 293 292 291 290 289 289 289 289 288 287 287 288 288 289 288 289 289 289 288 287 287 287 287 287 287 288 288 288 290 291 292 293 294 295 296 296 297 298 299 300
294 293 292 291 291 290 289 289 289 289 288 288 287 287 287 287 287 287 287 288 288 287 287 286 286 286 287 287 286 287 288 288 289 289 290 292 293 293 293 294 295 296 297
294 293 292 291 290 289 289 289 289 288 288 287 287 287 287 287 286 286 287 287 288 288 287 287 286 286 287 286 286 287 286 286 287 288 289 289 290 290 291 292 293 293 293
293 292 291 290 289 289 289 289 288 288 287 287 287 287 287 286 286 286 286 286 286 287 287 286 286 286 285 286 286 286 286 286 286 287 287 288 288 289 290 290 289 289 289
292 291 290 289 288 288 289 288 288 287 287 287 287 286 286 286 285 285 286 286 285 285 287 286 286 285 285 285 285 285 285 286 286 286 287 287 287 287 287 287 287 288 288
291 290 289 288 288 288 288 288 287 287 287 287 286 285 285 285 285 285 285 285 285 285 287 286 285 285 285 285 285 285 285 285 285 285 285 285 286 286 286 287 287 287 287
289 289 288 288 288 288 287 287 287 287 287 286 286 285 285 284 284 284 284 284 284 285 285 286 285 285 285 285 285 286 285 285 284 284 283 284 285 285 285 286 286 287 287
289 288 288 288 288 287 287 286 286 287 287 286 286 284 283 283 283 283 284 284 284 285 285 285 285 285 285 285 285 284 283 282 282 282 283 283 283 284 285 285 285 286 286
288 288 288 287 287 287 286 285 287 287 287 286 286 284 283 283 283 284 284 285 285 284 285 285 286 286 284 284 283 283 283 282 283 283 283 283 283 283 283 283 284 284 284
288 288 287 287 286 286 285 286 287 287 286 286 285 284 283 284 284 285 285 285 285 285 286 286 285 284 284 283 282 282 283 283 283 282 282 282 282 282 282 282 283 283 283
287 287 286 286 285 284 284 287 287 287 286 285 284 284 284 284 284 284 284 284 285 287 286 285 284 283 282 282 282 283 283 283 284 282 282 282 282 282 282 282 282 282 283
286 286 285 285 284 283 284 286 286 286 285 284 284 284 284 284 284 283 284 285 286 285 284 283 282 282 282 282 283 282 282 282 283 282 282 282 281 282 282 281 281 282 283
285 285 284 283 283 283 283 284 285 285 284 284 284 284 284 283 283 284 285 286 284 283 282 282 282 282 283 282 282 282 282 282 282 281 281 283 281 282 281 281 281 282 283
284 284 283 283 282 282 282 283 284 284 284 284 284 284 284 284 284 284 285 284 283 282 281 282 283 282 281 281 281 281 281 281 282 281 281 281 281 281 281 282 282 282 283
283 283 282 282 282 281 281 283 284 284 284 284 284 284 283 283 284 285 284 282 281 281 282 283 280 279 279 279 280 280 280 280 280 281 281 281 281 282 283 282 283 282 283

GFSMA_925_thetae_012.txt.gz
Theta_e
331 331 323 324 319 314 313 311 308 305 304 303 302 303 303 304 304 306 309 308 313 314 314 314 316 314 314 316 317 316 316 316 317 318 318 319 321 322 322 322 324 326 328
332 323 326 322 313 309 306 304 303 303 302 301 301 301 301 302 303 304 305 305 304 306 307 307 307 308 308 310 311 311 312 313 313 314 317 319 319 318 319 320 323 323 325
330 328 321 314 307 304 303 303 302 302 301 301 301 300 301 301 302 303 302 302 301 298 298 299 300 301 302 304 306 307 308 308 309 309 310 311 313 316 316 317 319 319 319
330 322 312 307 303 303 302 301 300 301 301 300 301 301 300 301 300 301 300 300 299 299 298 295 294 293 293 297 301 304 304 304 306 306 306 307 309 312 312 312 314 314 314
325 317 307 304 302 301 300 299 299 299 299 299 299 299 300 302 300 299 299 299 298 298 297 296 294 293 293 294 299 301 302 302 303 303 304 305 307 310 310 310 311 312 313
316 307 304 303 301 300 299 298 298 298 297 297 298 299 302 303 300 301 300 298 297 296 296 295 294 294 293 294 296 298 298 299 301 301 302 303 306 308 308 309 310 310 310
308 305 303 301 300 299 298 297 297 297 297 296 298 300 300 299 302 302 297 297 296 295 294 294 294 293 293 293 293 294 296 297 298 299 301 302 305 306 306 307 308 309 309
304 304 302 300 299 298 297 296 297 297 296 295 296 298 301 300 299 298 297 296 295 294 294 293 293 292 292 292 292 293 293 295 296 298 300 301 302 303 304 305 306 307 307
302 302 301 299 298 297 296 296 295 295 296 295 294 296 299 299 296 297 297 295 295 293 293 292 292 292 291 291 291 292 292 293 294 296 298 300 301 302 303 303 304 304 305
299 300 299 297 297 296 295 294 293 294 294 295 294 293 293 293 295 297 296 295 293 293 292 292 291 291 291 290 290 291 291 292 292 294 296 298 300 300 301 302 302 303 304
298 297 297 296 295 294 294 293 293 293 292 293 293 293 293 293 293 294 295 295 293 293 292 291 290 290 290 290 290 290 290 290 292 293 294 296 297 298 299 299 300 300 301
296 295 295 295 294 293 293 292 292 292 292 291 291 291 291 292 293 293 294 294 293 292 292 291 290 289 289 289 289 289 288 289 290 291 292 293 294 295 296 296 297 298 299
296 294 294 293 293 292 292 292 292 291 291 291 291 291 290 290 290 290 291 292 292 291 291 290 290 289 288 289 288 288 288 288 288 289 290 291 292 292 292 293 293 294 295
296 294 293 292 292 291 291 291 291 291 290 290 290 290 290 290 290 290 290 290 291 291 290 291 289 289 288 288 287 287 287 287 287 288 288 289 289 289 290 290 291 292 293
294 293 292 291 291 290 290 290 291 290 290 290 290 290 290 289 289 289 289 289 289 290 290 289 289 288 288 287 287 287 287 287 287 287 288 288 288 289 289 289 289 290 290
293 292 291 291 290 290 290 290 290 289 289 290 289 289 289 289 288 288 288 288 288 288 290 288 288 287 287 287 287 287 287 287 287 287 287 287 288 287 288 288 288 288 289
292 291 291 290 290 290 289 289 289 289 289 290 289 288 288 287 287 287 287 287 287 287 289 288 287 287 287 287 287 287 287 286 286 286 286 286 286 286 287 287 288 288 288
291 290 290 290 290 289 288 288 289 289 289 289 289 288 287 286 286 286 286 286 286 286 286 288 287 286 286 287 287 286 286 285 285 284 284 285 285 286 286 286 287 287 288
290 289 290 289 289 288 288 287 288 289 289 288 288 287 286 285 285 285 285 286 286 286 286 287 287 287 287 287 286 285 285 284 284 284 284 284 285 285 286 286 287 287 287
289 289 289 288 287 287 287 287 288 289 289 288 287 287 286 285 285 285 286 286 286 286 286 286 287 288 287 286 285 285 284 284 284 284 284 284 285 285 285 285 285 285 285
289 288 288 287 286 286 286 287 289 289 288 288 287 286 286 285 285 285 286 286 286 285 286 287 289 287 286 285 284 284 284 284 284 284 284 284 284 284 284 284 285 284 285
288 287 287 286 286 285 284 287 287 287 287 287 286 286 286 285 285 285 285 285 285 286 287 287 286 286 284 284 284 284 285 284 286 284 284 284 284 284 284 284 284 284 285
287 287 286 285 285 285 284 286 286 286 286 286 286 286 285 285 285 285 284 285 286 287 286 285 284 283 283 283 284 285 284 284 284 283 284 284 284 284 284 284 284 284 284
286 286 285 285 284 284 283 285 285 286 286 285 285 285 285 285 285 285 285 286 286 284 284 283 283 283 283 284 284 283 283 283 283 283 283 285 283 284 284 284 284 284 285
285 285 284 284 284 284 283 284 285 285 285 285 285 285 285 285 284 284 286 285 284 283 283 282 283 284 283 282 282 282 283 283 284 283 282 283 283 283 283 284 284 285 285
284 284 284 284 283 283 283 283 284 284 285 285 285 285 285 284 284 285 284 283 283 282 282 283 283 282 281 282 282 282 282 282 282 283 282 282 282 282 284 284 285 284 285

GFSMA_925_thetae_015.txt.gz
Theta_e
330 330 330 326 323 319 317 315 311 308 306 305 305 304 304 304 305 307 310 311 314 314 313 313 312 312 312 313 314 313 314 315 315 315 316 319 320 320 320 321 322 325 326
331 328 323 320 318 314 310 308 306 306 305 304 303 303 303 304 304 306 307 306 305 306 306 306 305 305 305 306 308 309 310 310 310 311 311 312 313 315 318 318 320 321 321
330 323 319 318 313 308 306 306 305 304 304 303 303 303 302 303 303 305 304 304 303 301 298 297 297 297 298 301 303 305 307 307 306 307 308 308 309 310 312 314 316 317 317
325 319 316 312 308 306 306 304 302 303 303 302 302 302 302 302 302 303 302 302 301 300 300 298 296 295 296 297 302 303 305 305 304 305 306 306 307 308 310 313 312 312 313
327 326 314 308 306 305 303 302 301 301 301 301 300 300 303 302 302 301 301 301 300 299 299 298 296 295 295 297 299 301 302 302 302 303 304 304 305 306 309 311 311 311 312
326 317 309 306 305 303 302 301 301 301 300 299 300 301 303 304 302 302 302 301 299 298 297 296 295 295 295 295 296 297 299 300 301 302 302 303 304 305 307 309 309 310 310
314 309 307 305 304 303 301 301 301 300 299 298 301 302 302 301 304 304 302 299 298 297 296 296 295 295 294 294 295 295 297 298 299 300 301 303 304 304 305 306 307 308 308
310 307 305 304 302 301 301 300 300 300 299 297 298 301 304 302 301 300 299 299 297 296 296 295 294 294 293 293 293 294 294 295 297 298 299 300 302 303 304 305 306 306 307
306 305 304 302 302 301 300 299 299 298 299 297 296 297 301 303 298 299 299 298 297 296 295 295 294 293 293 292 292 292 293 293 295 296 297 299 300 301 302 303 304 305 305
303 303 302 301 301 299 299 297 297 297 297 297 297 295 295 295 297 298 298 298 297 295 295 295 294 292 292 292 292 292 292 292 293 294 296 297 298 299 300 301 302 303 303
301 301 300 300 299 298 297 297 296 296 295 295 295 295 295 295 295 295 297 297 296 295 295 294 293 292 292 291 291 290 291 291 292 293 294 295 296 297 297 298 299 299 300
300 299 299 298 298 297 296 295 295 295 294 294 294 294 294 294 294 294 295 295 294 294 294 293 293 292 291 290 290 290 290 290 291 292 293 294 295 295 295 295 296 296 297
299 298 298 297 297 296 295 295 294 294 294 293 293 293 293 293 293 292 293 293 293 293 292 293 292 292 291 290 290 289 289 289 289 290 291 292 293 292 292 293 293 293 294
299 297 297 296 295 294 294 294 294 293 293 293 292 292 292 292 292 292 292 292 292 292 292 291 291 291 290 289 289 289 288 288 289 289 290 290 290 290 291 291 291 292 292
298 297 296 295 294 293 293 293 293 293 292 292 292 292 292 291 291 291 290 290 290 291 291 290 290 290 289 289 288 288 288 288 288 289 289 289 289 289 290 290 290 290 291
296 295 295 294 293 293 292 292 292 292 291 292 292 291 291 291 290 289 289 289 289 289 290 289 289 289 288 288 288 288 288 288 288 288 288 288 288 288 288 288 289 289 290
295 295 294 293 293 292 292 291 291 291 291 291 291 291 290 290 289 288 287 287 288 288 289 288 288 288 288 287 287 288 288 287 287 287 286 287 287 287 288 288 288 289 289
294 293 293 293 292 291 291 291 291 291 291 291 291 290 290 289 288 287 287 287 287 287 288 288 288 288 288 287 287 288 287 287 286 285 286 286 287 287 287 288 288 288 289
293 292 292 292 291 290 290 290 289 290 290 290 290 290 289 288 287 287 286 287 287 287 288 288 288 287 287 288 288 287 286 286 285 285 285 285 286 286 287 287 288 288 288
292 292 291 290 289 289 288 288 289 290 291 290 290 289 288 287 287 286 286 286 287 287 287 286 287 287 287 288 286 286 285 285 285 285 285 285 285 286 286 286 286 287 287
291 291 290 289 288 288 287 287 289 290 289 289 289 288 287 287 286 286 287 287 286 286 286 286 287 287 287 286 285 285 285 285 284 285 284 284 285 284 284 285 285 285 286
290 289 289 288 288 287 286 286 288 288 288 288 288 287 287 287 286 286 286 286 286 286 286 287 288 286 286 285 284 284 284 285 285 284 284 284 284 284 285 285 285 286 286
289 288 287 287 287 287 285 286 286 286 287 287 287 287 286 286 286 286 285 285 285 286 287 286 285 285 284 284 283 284 285 284 284 283 283 284 284 284 284 284 284 285 286
288 288 287 286 286 286 285 285 285 286 286 286 286 286 286 286 285 286 285 285 286 285 285 284 284 283 283 284 285 285 283 283 283 283 284 284 283 283 284 284 284 285 286
287 287 286 286 286 285 284 284 285 285 285 286 286 286 286 286 285 285 285 285 285 284 283 283 283 284 284 284 283 283 283 283 283 283 283 283 283 283 283 283 283 285 286
286 286 286 285 285 284 284 284 284 284 285 285 285 285 285 285 285 285 285 284 283 283 282 283 283 283 282 282 283 283 283 283 283 282 282 282 282 282 283 282 283 283 284

GFSMA_925_thetae_018.txt.gz
Theta_e
328 328 331 329 325 320 317 313 310 307 306 305 304 303 303 304 305 307 309 308 314 313 313 312 311 310 309 309 310 311 311 312 312 312 313 313 314 315 317 319 320 323 323
329 329 326 323 319 316 312 308 306 306 305 304 303 303 303 303 304 306 307 305 305 303 303 305 305 305 305 305 306 307 308 308 308 308 309 309 310 311 312 313 316 318 318
330 328 325 318 314 310 307 306 305 304 303 303 303 303 302 302 303 305 304 304 302 301 300 299 297 300 301 303 305 306 306 307 306 306 307 308 308 309 309 310 313 314 314
330 328 323 313 311 309 306 304 302 303 302 301 301 300 301 302 302 303 302 301 301 300 300 299 297 298 298 300 302 303 304 305 305 305 306 306 306 307 308 309 311 312 312
330 326 316 312 309 306 304 302 302 301 300 300 300 300 302 302 302 301 301 301 300 300 298 298 296 296 297 298 299 301 302 303 303 303 304 305 305 306 307 308 310 311 311
326 319 313 309 307 304 302 302 302 301 300 298 300 301 302 303 302 301 302 302 300 298 297 296 295 295 295 296 297 298 299 300 301 302 303 304 304 306 306 307 308 309 310
325 314 309 307 305 303 302 301 301 301 300 298 300 301 302 301 304 303 303 301 298 297 296 296 295 295 294 294 294 295 297 298 299 301 301 301 302 303 304 305 306 307 308
315 312 309 305 304 303 302 302 301 300 299 297 297 298 298 300 300 300 301 299 298 296 296 295 295 294 293 293 292 294 295 295 296 298 299 300 301 302 302 303 304 305 306
312 309 306 304 304 303 302 301 300 299 299 297 296 296 296 297 295 298 298 298 297 297 296 295 295 294 293 292 292 292 292 294 295 296 298 298 299 300 301 301 302 303 304
308 306 305 303 303 303 302 300 299 298 298 297 296 295 295 295 293 293 297 297 296 295 295 295 294 294 293 292 292 291 292 293 294 295 296 297 298 299 299 300 301 301 302
305 304 304 303 302 302 299 299 298 296 296 295 295 294 295 295 295 293 292 294 295 294 294 294 294 293 293 292 291 291 291 292 293 293 294 295 297 297 298 298 299 299 299
303 302 302 301 300 301 299 298 296 295 295 294 294 294 293 293 293 293 291 291 291 292 293 292 292 292 292 292 291 290 291 291 291 292 293 294 295 296 296 296 295 296 296
301 300 300 299 299 299 298 297 296 295 294 293 293 293 293 292 293 292 292 291 290 291 291 291 292 291 291 290 290 289 290 290 290 290 291 293 294 293 293 293 293 294 294
300 299 299 298 298 298 296 295 295 294 293 293 293 292 292 292 292 292 291 291 289 289 289 290 290 290 290 289 289 289 288 288 289 289 290 291 291 291 291 291 291 292 292
299 298 297 297 296 296 295 294 293 293 292 292 292 292 292 292 291 291 290 290 289 288 288 289 289 289 288 288 288 288 288 288 288 289 290 289 289 289 289 290 290 290 291
299 297 296 295 294 294 293 293 293 292 292 291 292 291 291 291 290 290 289 288 288 288 287 287 287 287 288 288 287 287 287 287 288 288 288 288 288 288 289 289 289 290 290
297 296 295 294 294 293 293 292 292 291 291 291 291 291 291 290 290 289 288 287 287 287 286 286 286 287 287 287 287 287 287 288 287 287 286 287 287 288 288 289 289 289 290
296 295 294 293 293 292 291 291 291 291 291 290 290 290 290 289 289 288 287 287 286 286 287 286 287 286 286 286 286 287 287 287 286 286 286 286 287 287 287 288 288 289 289
294 293 293 292 292 291 290 290 289 289 289 290 290 290 290 289 288 287 287 286 286 286 286 286 286 286 285 285 286 287 286 285 285 284 285 285 285 286 287 287 288 288 288
293 292 292 291 291 290 289 289 289 290 290 290 290 290 289 288 288 287 286 286 286 286 286 285 285 285 285 286 286 285 284 284 284 284 283 284 285 285 285 286 286 286 286
292 292 291 290 289 289 288 288 287 288 288 288 288 288 288 287 287 287 287 287 287 286 286 285 286 285 286 285 285 284 283 283 283 283 284 283 283 283 283 284 284 285 285
291 290 289 289 288 287 287 286 288 287 286 286 287 287 287 286 286 287 287 286 286 286 286 285 286 285 285 284 283 283 283 283 284 284 283 283 283 283 283 283 284 285 286
290 289 288 288 287 287 287 285 286 286 285 286 286 286 286 286 286 285 285 286 285 286 286 285 285 284 283 283 283 283 284 284 284 283 283 282 283 283 283 283 283 284 285
288 288 287 287 287 286 286 285 286 284 285 285 285 286 286 285 285 286 286 286 285 285 284 284 283 283 283 284 285 285 284 283 283 283 283 283 283 282 282 282 283 283 285
287 287 286 286 286 285 285 284 285 284 284 285 285 285 285 285 285 286 286 285 285 284 283 283 283 283 284 283 283 283 283 282 283 283 283 282 282 282 282 282 282 283 284
287 286 286 285 285 284 284 284 284 284 284 284 284 284 284 284 285 285 285 285 283 282 282 283 283 281 281 281 282 282 282 281 281 281 282 281 281 281 281 282 282 282 282

GFSMA_925_thetae_021.txt.gz
Theta_e
325 325 329 330 327 324 319 316 312 308 306 305 303 303 303 303 305 308 308 309 314 313 312 311 310 309 309 309 309 309 310 310 310 310 310 311 311 312 312 314 316 319 320
326 328 330 326 321 319 316 312 308 306 305 303 303 303 302 303 303 307 305 305 304 301 304 305 305 305 305 306 308 308 308 309 308 308 308 309 309 310 310 311 312 314 315
328 328 326 321 320 317 313 308 305 304 303 302 303 302 302 302 303 305 304 303 302 300 300 301 302 302 302 303 305 306 306 307 307 307 307 308 308 308 309 310 310 312 313
329 328 326 320 316 311 309 306 303 303 302 301 301 300 301 302 302 303 302 301 301 300 299 299 297 299 300 301 303 304 305 305 305 305 306 306 307 307 308 308 309 310 312
330 328 327 320 314 311 306 304 302 302 301 300 300 300 302 302 302 302 301 301 300 300 298 297 296 295 295 299 300 301 302 303 303 304 305 305 305 306 307 308 309 309 310
330 329 323 317 312 307 304 303 304 302 300 300 301 301 302 303 302 301 301 301 300 298 297 296 296 295 295 296 297 298 299 301 301 302 303 303 303 304 305 306 306 307 309
330 327 319 312 309 306 304 304 303 302 300 299 299 301 301 302 303 302 302 302 298 297 296 296 295 295 295 294 294 295 297 298 299 300 301 302 302 303 303 304 305 305 306
328 324 318 312 307 305 304 303 303 301 299 298 298 299 296 299 300 300 301 299 298 296 296 295 295 295 294 294 293 294 294 295 297 298 299 300 301 301 302 302 303 304 304
324 321 315 310 305 305 305 303 303 302 300 297 296 297 295 297 293 297 298 297 296 296 295 295 294 294 294 293 293 292 292 293 295 297 298 299 299 300 301 302 302 303 303
318 312 310 307 304 305 306 304 301 301 300 297 296 295 295 295 292 292 296 296 295 295 294 294 293 294 293 293 292 292 291 292 294 296 297 297 298 299 299 300 301 301 302
309 309 307 305 304 304 304 304 301 299 298 297 296 295 295 295 294 292 291 293 295 294 293 293 292 292 292 291 291 291 291 292 293 294 295 296 296 297 298 299 299 299 299
306 306 305 304 304 303 303 302 300 298 297 295 294 294 294 293 293 292 290 289 290 292 292 291 291 291 291 290 290 290 291 291 292 293 293 294 294 295 296 296 296 296 297
304 304 303 303 302 301 301 299 299 297 296 295 294 293 293 292 292 292 291 290 289 291 290 290 290 290 289 289 288 289 290 290 290 291 291 292 293 294 294 293 293 294 294
302 303 302 301 300 300 299 298 297 296 295 294 293 293 292 292 292 292 291 290 287 288 289 289 288 288 288 288 287 288 287 288 288 289 290 291 291 291 291 291 291 292 292
302 301 300 299 298 298 297 296 296 295 293 293 292 292 292 292 291 291 290 289 288 287 287 287 287 287 287 286 287 287 287 287 288 288 289 290 290 289 289 290 290 291 292
299 300 299 298 297 296 296 295 294 293 293 292 292 292 291 291 291 290 289 288 287 287 285 287 286 286 286 287 287 287 286 286 286 288 289 288 288 288 289 289 290 290 291
300 299 298 298 295 295 294 293 293 292 292 291 291 291 291 290 290 289 288 288 287 286 285 285 286 286 286 286 285 285 285 286 287 286 286 287 287 288 288 288 289 289 290
298 297 296 295 294 294 293 292 291 291 291 290 290 290 290 290 289 288 288 287 286 286 286 285 285 285 285 285 285 285 285 286 286 285 285 286 286 286 287 287 288 288 289
297 297 295 294 293 292 291 291 290 290 289 290 290 290 290 289 289 288 287 287 286 286 286 286 285 285 285 285 285 285 285 284 284 284 284 284 285 285 287 287 287 287 288
296 294 293 293 292 292 291 290 289 289 290 290 289 289 288 288 287 287 287 287 287 287 286 286 285 284 285 285 285 284 284 284 283 283 283 284 284 285 285 285 285 285 286
294 293 292 292 291 290 289 289 287 288 288 287 287 287 287 287 287 287 288 287 287 286 286 286 284 285 285 284 284 284 283 283 283 283 283 284 283 283 282 283 283 284 285
292 292 291 290 289 288 287 287 287 286 285 285 286 286 286 286 286 287 287 286 286 287 286 286 285 285 284 283 283 283 282 283 283 284 284 283 282 282 282 282 283 284 285
290 290 289 289 288 287 287 286 286 285 284 285 285 285 285 285 286 285 285 286 286 286 286 285 284 283 283 283 283 282 283 284 284 283 283 282 282 282 282 282 283 283 284
290 289 288 287 287 287 286 285 286 284 284 284 285 285 284 285 285 286 286 286 285 285 284 284 283 283 283 283 284 284 283 283 282 282 282 282 282 282 282 282 282 283 284
288 287 286 286 286 285 285 285 285 284 283 284 284 284 284 284 284 285 286 285 285 284 283 283 283 284 284 283 283 282 281 281 281 281 281 281 281 281 281 281 282 282 283
287 286 286 285 285 284 285 285 285 284 284 284 284 284 284 284 285 285 285 285 284 283 283 283 283 282 281 281 281 281 281 280 280 280 281 281 281 281 281 281 282 282 281

GFSMA_925_thetae_024.txt.gz
Theta_e
329 330 328 324 329 326 321 317 311 308 306 305 303 303 303 304 307 309 310 313 315 314 313 311 310 309 309 310 310 310 310 310 310 310 310 311 311 311 311 312 313 315 317
327 329 327 329 328 325 318 314 311 307 305 303 303 302 302 303 305 308 306 307 307 306 307 306 306 306 306 308 308 308 309 309 308 309 309 310 310 309 310 311 311 312 314
326 324 327 329 321 316 315 313 309 305 303 302 302 302 302 302 304 305 304 303 302 301 302 303 303 303 304 305 306 307 307 307 307 307 308 308 308 309 310 310 310 311 312
327 327 328 327 318 316 314 311 306 304 302 301 301 301 301 302 303 304 303 302 301 300 299 299 298 298 300 303 304 304 305 305 305 306 306 307 307 307 307 308 309 310 311
328 327 326 320 318 316 313 307 304 303 302 301 300 300 302 301 302 302 301 301 300 299 298 297 296 296 295 298 300 301 302 303 303 304 305 305 305 305 306 306 307 308 308
328 328 325 321 318 315 310 304 304 303 301 300 300 301 302 302 301 301 300 300 300 298 297 296 296 295 295 295 296 297 299 301 301 302 302 303 304 304 304 305 305 306 307
329 328 324 320 318 315 310 304 304 303 300 300 300 301 301 303 301 301 301 301 299 297 296 295 295 295 294 294 294 295 296 298 299 300 300 302 302 303 303 303 304 305 305
330 327 327 323 318 311 304 304 305 303 300 298 299 298 297 299 301 301 301 298 297 296 295 295 294 294 294 293 293 293 293 295 296 298 299 301 301 301 302 303 303 304 304
330 326 327 325 316 310 306 306 306 305 301 298 297 298 295 297 294 296 297 296 296 295 295 294 294 293 293 292 292 292 292 293 294 296 298 300 300 300 301 302 302 303 303
330 327 325 320 315 308 305 306 306 305 304 299 297 296 295 295 292 293 295 295 295 295 294 293 293 292 292 292 291 291 291 293 294 296 297 298 299 299 300 300 301 301 302
327 325 320 317 310 306 305 305 305 304 303 301 298 295 295 294 294 292 292 293 294 294 293 293 292 291 291 290 290 291 293 293 293 294 296 296 297 297 298 299 299 300 299
318 318 316 313 308 305 305 303 303 302 301 300 297 296 295 294 293 292 290 289 290 292 292 292 291 290 289 289 288 288 290 291 292 292 293 294 295 295 296 296 297 297 297
310 309 312 308 305 304 303 302 301 300 299 298 296 295 294 293 293 292 291 290 289 290 291 290 290 289 288 288 287 287 289 289 290 290 291 293 293 293 293 294 294 294 294
308 307 305 306 303 302 301 300 299 298 297 296 295 293 293 292 292 292 291 290 287 287 289 289 288 288 288 287 286 287 287 287 288 289 290 290 290 291 292 292 291 292 292
306 305 305 303 302 299 299 298 298 297 295 294 294 293 292 292 292 291 291 290 288 286 285 287 287 287 286 286 286 286 286 285 286 287 288 289 290 290 290 290 291 291 292
305 304 303 303 300 298 297 297 296 295 295 293 292 292 292 291 291 290 290 289 288 287 284 286 286 286 286 286 285 285 285 285 285 287 287 288 288 288 289 289 290 290 290
303 301 302 301 298 299 297 295 295 293 293 292 292 291 291 291 290 290 289 288 288 286 284 285 285 286 286 286 285 284 285 285 285 285 286 287 287 288 288 288 289 289 289
300 300 300 299 298 296 297 296 294 292 292 291 291 290 290 290 290 289 289 288 287 287 285 284 285 286 286 285 285 285 285 284 284 284 285 286 286 286 287 287 288 289 289
298 299 299 298 298 294 293 293 292 291 290 290 290 290 290 290 289 289 288 287 287 286 286 285 285 285 285 285 284 285 284 283 283 283 283 284 284 285 286 287 287 287 287
297 297 296 296 294 293 291 290 290 290 290 290 290 289 288 288 288 287 287 287 287 286 286 286 285 285 285 285 284 284 283 283 282 282 283 283 284 285 285 285 285 285 285
295 297 296 293 292 291 290 289 289 288 288 288 286 286 286 287 287 287 287 287 287 286 286 286 285 284 284 284 283 283 282 282 282 283 283 283 284 283 283 283 283 283 284
294 293 292 291 289 289 289 288 287 287 285 285 285 285 285 286 286 286 287 286 286 287 287 286 286 284 284 283 283 282 282 282 283 283 283 283 282 282 282 282 282 284 285
294 293 291 290 288 289 289 287 286 285 284 284 284 284 285 285 285 285 285 286 286 286 286 286 285 284 283 283 283 282 282 283 283 282 282 281 281 281 282 282 283 283 284
290 289 289 289 289 288 288 287 285 284 284 284 284 284 284 284 284 285 285 285 285 285 285 284 284 284 283 283 284 284 283 282 281 281 281 280 281 281 281 281 282 283 284
292 292 290 288 287 287 286 285 285 284 284 284 284 284 284 284 284 285 285 285 285 284 284 283 283 284 284 284 283 282 281 281 280 280 280 280 280 281 281 281 282 282 283
288 286 286 286 285 285 286 285 285 284 284 284 284 283 283 284 284 285 285 285 283 283 283 283 283 282 281 281 281 281 280 280 279 280 281 280 280 280 281 281 281 282 281

GFSMA_925_thetae_027.txt.gz
Theta_e
329 331 330 331 324 327 322 320 315 309 306 305 304 303 303 305 310 310 311 318 318 315 313 311 310 310 310 310 311 310 311 311 310 310 311 311 311 311 312 312 312 313 315
328 330 330 329 325 327 323 318 312 309 306 304 303 302 302 304 307 309 309 311 311 309 308 307 307 307 308 308 309 309 309 309 309 309 310 310 310 310 311 311 312 312 312
326 328 329 326 327 327 322 313 310 307 304 303 302 302 302 303 305 306 305 303 302 302 304 304 305 304 305 307 307 307 307 307 307 308 308 309 308 308 309 309 310 311 312
327 328 328 326 329 325 316 311 309 305 303 302 301 301 301 302 305 305 303 302 301 300 300 298 298 298 301 302 304 305 305 305 305 306 307 307 307 307 307 308 308 309 309
330 327 325 326 328 317 312 312 309 303 302 300 300 300 301 301 303 304 302 301 300 300 298 297 296 295 296 299 300 300 301 303 303 304 304 305 305 305 306 306 306 307 307
331 326 325 327 325 316 312 310 306 302 302 300 300 301 302 301 302 302 301 300 300 299 297 296 295 295 295 295 296 298 299 300 301 302 302 303 304 304 305 305 305 306 306
332 327 327 327 321 316 315 311 304 303 301 300 300 301 301 301 300 300 300 300 299 297 296 295 295 295 294 294 293 295 296 297 298 300 300 301 303 303 303 304 304 305 305
333 329 327 326 320 314 312 309 305 303 301 299 299 299 297 299 300 300 300 299 298 296 295 295 294 294 293 293 293 293 294 295 296 298 299 301 302 302 302 303 303 304 304
332 330 328 325 325 320 316 311 305 306 303 297 299 299 295 296 295 296 297 297 296 295 294 294 293 293 292 292 292 292 292 293 295 297 298 300 301 301 302 302 303 303 303
329 331 329 327 324 320 316 313 305 306 306 301 297 297 297 296 293 293 295 295 295 295 294 293 292 292 291 291 290 291 293 294 295 297 298 299 300 300 300 301 301 302 302
328 329 328 327 323 318 315 310 305 304 305 304 302 296 295 294 294 292 292 292 294 294 294 293 292 291 290 289 289 289 291 292 294 295 296 297 297 298 299 299 300 300 300
326 324 324 322 321 317 312 308 304 304 303 304 302 300 298 295 293 292 290 290 290 293 292 292 291 290 289 288 288 288 289 290 291 292 293 294 296 296 297 297 297 297 298
319 321 319 317 314 313 311 305 303 303 302 302 300 298 297 295 294 293 292 289 289 290 291 291 290 289 288 288 287 287 287 288 289 290 292 293 294 293 293 293 294 295 296
324 322 315 314 311 309 307 304 301 301 300 299 298 297 295 294 293 293 292 290 287 287 288 290 289 288 288 287 286 286 286 286 287 288 289 290 290 291 291 292 293 293 293
318 319 313 309 307 306 304 301 299 298 297 297 296 294 294 293 292 292 291 291 289 287 285 287 288 287 287 286 286 286 285 284 286 287 288 288 289 289 290 290 290 291 292
314 311 308 307 305 304 302 300 298 296 296 295 294 293 293 292 291 291 290 290 289 288 285 287 286 286 286 286 286 286 285 284 285 286 286 287 288 288 289 289 290 290 290
311 310 307 304 303 302 299 298 296 295 296 294 292 292 292 291 291 290 290 289 288 287 284 285 286 286 286 286 286 285 284 284 284 284 285 286 287 288 288 288 289 289 289
308 308 304 301 299 298 297 296 297 293 293 292 293 292 291 290 290 290 289 289 288 287 285 284 285 285 286 286 285 285 284 283 283 283 284 286 286 286 287 287 288 288 289
303 301 299 297 296 296 296 295 297 296 294 292 291 290 290 290 289 289 289 288 287 287 286 284 284 285 285 286 285 284 284 283 282 283 283 284 284 285 286 287 287 287 287
298 297 296 296 296 296 295 294 292 291 290 290 290 290 289 289 288 288 287 287 287 287 286 286 285 285 285 285 284 283 283 282 282 282 283 283 284 285 285 285 285 286 286
295 294 294 295 294 294 292 291 290 290 290 289 288 287 286 286 286 288 288 287 287 287 286 286 285 285 284 284 283 283 282 282 282 282 283 283 283 282 282 283 283 283 284
294 295 295 296 295 294 293 291 290 288 287 286 285 285 285 285 285 286 287 287 287 287 286 286 286 284 284 283 283 282 282 281 282 283 282 282 282 281 282 282 282 284 285
295 294 293 291 290 291 290 288 286 287 285 284 284 284 284 284 284 284 284 285 285 286 286 286 285 284 283 283 283 283 282 282 283 282 282 281 281 281 281 282 282 283 284
293 292 291 291 291 291 290 290 287 284 284 283 283 284 284 284 284 285 285 285 285 285 285 284 284 284 284 284 284 284 283 282 281 281 281 280 281 280 281 281 281 283 284
291 291 291 291 291 289 288 287 285 284 284 284 284 284 284 283 283 285 285 285 285 284 284 283 283 284 284 283 283 282 282 281 280 280 280 280 280 280 280 280 282 282 283
292 291 290 288 287 287 287 286 285 284 284 284 284 283 282 283 284 285 285 284 283 283 283 283 282 282 281 281 281 281 280 279 279 280 281 280 280 280 280 281 281 281 281

GFSMA_925_thetae_030.txt.gz
Theta_e
334 335 333 331 329 326 328 320 316 312 308 306 304 303 303 306 311 310 316 321 318 316 314 312 311 311 311 311 311 311 311 311 311 311 311 311 312 312 313 313 313 313 314
329 332 332 330 330 325 326 321 318 310 308 305 303 302 303 306 309 309 312 314 313 311 309 309 308 308 309 309 309 310 309 309 309 310 310 311 310 310 310 311 311 312 313
328 327 329 330 329 324 325 320 313 309 307 304 302 302 302 304 307 308 308 308 306 305 306 307 305 305 307 306 307 307 307 306 307 308 309 308 308 308 309 309 309 310 310
328 327 328 329 328 326 326 319 312 309 305 302 302 301 301 303 305 306 304 302 301 301 301 301 299 301 302 303 304 304 304 304 305 306 306 307 307 307 307 307 308 308 308
325 326 325 328 328 327 326 319 311 307 303 301 300 300 300 301 304 305 302 301 300 299 299 297 296 296 297 299 300 301 302 303 304 303 304 304 305 306 306 306 306 307 307
322 324 326 327 327 327 321 312 310 306 302 300 299 300 301 300 303 304 302 300 300 299 297 296 295 295 295 296 296 299 300 300 301 301 302 302 303 305 305 305 306 306 306
323 327 328 327 326 326 321 314 307 303 300 300 300 300 301 300 301 302 302 300 299 298 297 296 295 295 295 294 294 294 298 298 299 300 300 301 302 304 304 304 305 305 306
328 330 330 326 324 325 315 310 309 302 301 300 300 299 297 298 299 299 299 299 299 297 296 295 295 294 294 293 293 293 292 297 297 298 299 301 302 303 303 304 304 304 305
332 332 331 328 326 326 323 318 312 307 303 299 300 300 295 297 296 296 298 298 297 296 295 294 294 293 293 292 291 291 292 294 296 298 299 301 301 302 303 303 303 304 304
333 333 332 327 327 324 322 319 314 309 305 302 297 298 298 298 294 293 294 295 295 294 294 294 293 292 291 291 290 290 291 293 296 297 298 299 300 301 301 301 302 302 303
333 332 330 327 325 324 322 321 314 307 306 305 302 296 295 295 294 292 292 292 293 294 294 293 292 291 290 290 289 288 290 292 293 294 295 296 298 298 299 300 301 301 301
330 330 330 328 323 323 320 319 314 308 306 305 303 301 300 297 294 293 290 290 291 293 293 292 292 291 290 289 288 288 288 290 291 292 293 295 296 297 297 297 298 298 298
326 328 326 324 321 320 320 315 311 305 304 304 301 300 300 300 299 295 293 290 289 291 292 291 291 290 289 288 288 287 287 287 289 289 291 293 294 294 294 294 295 295 296
327 327 326 322 319 319 316 311 307 304 302 302 301 298 298 297 296 296 294 291 288 287 289 290 290 289 289 288 287 286 286 286 287 288 289 290 291 291 291 292 292 293 293
323 323 321 317 313 313 313 309 306 302 302 302 301 297 296 295 294 293 293 293 291 287 286 289 289 288 287 287 286 286 286 285 286 287 287 288 288 288 289 290 291 291 291
321 319 316 313 310 308 307 305 302 301 300 296 297 296 294 294 293 292 291 291 290 289 286 288 288 287 287 286 287 286 285 285 284 285 286 287 287 288 289 289 290 290 291
318 315 312 308 306 306 302 301 300 297 295 294 294 294 293 292 292 291 290 290 289 288 286 287 286 287 286 286 286 286 285 284 284 283 285 286 287 288 288 289 289 289 290
313 311 308 305 303 301 300 298 296 295 294 294 296 294 292 290 290 290 290 289 288 287 286 284 285 286 286 286 286 285 285 284 283 282 284 285 286 286 287 287 288 288 289
308 306 304 301 300 298 297 296 296 295 294 294 293 294 291 289 289 289 289 288 288 287 286 284 284 285 285 285 285 285 284 283 282 283 283 284 284 285 286 287 287 287 288
303 301 299 297 295 295 295 296 295 296 295 292 290 289 289 289 290 289 288 287 287 287 287 286 285 285 285 285 285 284 283 282 282 283 283 283 284 284 285 285 285 286 286
298 296 294 294 295 296 296 297 295 292 292 291 290 288 287 286 286 287 287 288 287 287 286 286 284 285 285 285 284 284 282 282 282 283 283 282 282 282 283 283 283 283 284
294 294 295 294 294 294 295 292 290 288 289 288 287 288 285 285 285 285 286 287 287 287 287 286 286 284 284 284 283 282 282 282 283 283 283 282 282 282 282 282 283 283 285
293 293 293 294 293 292 291 292 293 290 289 289 286 284 284 284 284 284 284 285 285 286 286 286 285 284 284 283 283 283 283 282 282 282 282 281 281 281 282 282 282 283 284
292 293 293 292 292 291 290 290 291 288 285 284 283 283 284 284 283 284 285 285 285 285 285 284 284 284 283 284 284 284 283 282 281 281 281 280 281 281 281 281 281 282 284
291 291 291 291 291 290 289 286 285 284 284 284 284 284 283 283 282 284 285 285 285 284 283 283 283 283 283 283 282 282 281 280 279 280 280 280 280 280 280 280 282 282 283
291 291 290 290 289 288 287 286 285 284 284 284 284 283 283 283 284 285 285 284 282 282 282 282 282 282 281 281 281 280 280 279 278 279 280 280 280 279 280 281 281 281 281

GFSMA_925_thetae_033.txt.gz
Theta_e
330 332 334 333 330 326 327 327 319 315 310 309 306 304 303 307 311 318 321 321 319 317 315 313 312 313 312 312 312 312 311 311 312 312 312 312 312 311 312 313 313 314 314
330 334 334 333 331 327 325 325 318 314 310 308 305 303 303 308 310 311 317 317 316 313 312 311 310 310 311 310 311 310 309 309 310 310 311 310 310 310 311 311 311 311 312
329 331 334 333 330 329 325 324 319 313 309 307 303 302 303 307 309 310 312 312 310 308 309 308 307 308 307 308 308 308 307 307 308 308 309 308 308 309 309 309 309 309 310
329 328 329 330 329 329 325 323 318 311 308 305 302 302 302 305 307 308 307 306 304 304 305 304 303 303 304 304 304 304 304 305 305 306 305 306 307 307 307 308 308 308 308
327 329 328 327 329 329 325 324 315 310 308 304 301 301 301 303 306 306 303 302 301 300 300 298 297 296 298 301 302 302 303 303 304 304 304 304 305 306 306 307 307 307 308
327 326 328 327 327 329 325 323 314 308 306 302 300 299 300 300 304 305 302 301 300 299 299 297 296 296 296 296 296 297 301 302 301 302 302 303 304 304 306 306 306 307 307
332 326 325 327 325 328 326 325 310 307 303 300 299 300 300 300 301 304 302 301 300 299 298 297 296 296 295 295 295 294 295 300 300 300 301 301 303 304 305 305 306 306 306
334 332 325 324 325 327 325 321 312 306 302 300 301 301 303 300 299 301 302 301 299 299 297 296 295 295 295 294 293 293 292 295 299 300 300 301 302 303 304 304 305 306 306
335 334 328 323 326 326 325 324 316 313 305 300 301 303 302 306 300 297 298 298 298 298 297 295 295 294 294 293 292 292 294 294 298 299 301 302 302 303 303 304 304 305 305
334 334 332 325 327 326 324 326 323 314 310 303 299 300 299 300 304 301 295 296 297 296 295 294 294 293 293 292 291 290 290 291 295 297 298 299 300 301 301 302 303 303 303
330 332 333 329 328 328 323 323 321 310 310 307 302 297 296 296 296 299 300 296 293 294 294 293 293 292 292 291 290 289 289 291 293 294 295 297 298 299 300 301 301 302 302
330 329 330 329 328 327 325 323 319 314 309 307 305 303 300 298 297 297 297 295 297 293 293 293 292 292 291 290 289 288 288 288 291 292 293 295 296 297 298 298 298 298 299
325 328 329 326 327 327 325 319 317 313 310 306 304 302 301 302 301 297 296 293 295 292 291 292 292 291 290 289 288 287 287 287 288 290 292 293 294 294 294 294 295 296 296
328 325 326 325 324 321 319 317 314 311 309 306 304 302 302 300 300 300 297 294 294 292 290 292 290 290 289 288 288 287 287 287 287 289 290 290 290 291 291 291 292 293 293
326 325 324 322 320 317 313 311 309 308 307 304 302 301 299 301 301 296 296 295 294 295 293 289 289 289 289 288 287 287 287 286 287 287 287 288 288 289 289 290 291 291 292
325 324 321 317 314 312 310 308 308 306 304 300 300 299 300 297 295 294 293 293 292 291 292 289 288 288 288 287 287 287 286 286 286 286 286 287 287 288 288 289 290 291 291
322 321 318 315 311 307 306 306 304 304 305 299 298 297 295 294 293 292 292 291 290 290 290 289 288 288 287 287 287 286 286 285 285 285 285 286 287 288 288 289 289 289 290
318 317 315 311 307 305 307 305 302 298 298 295 294 293 293 293 293 292 291 290 289 289 288 288 286 286 286 287 286 286 286 285 284 284 284 286 286 287 287 288 288 289 289
313 311 310 307 304 302 300 298 296 295 295 295 294 295 293 291 290 290 289 288 288 287 287 286 286 285 285 286 285 285 285 284 283 283 284 284 285 285 286 287 288 288 288
306 303 302 301 299 297 295 295 295 294 295 294 294 293 291 290 289 289 290 289 288 287 286 285 285 286 285 285 285 285 284 284 283 283 283 284 284 284 285 285 286 286 286
299 298 297 296 295 295 294 293 294 294 294 292 290 291 291 290 289 289 288 286 287 287 286 286 286 286 286 286 286 285 284 283 283 283 283 283 283 283 283 283 284 284 284
295 294 294 294 294 293 294 295 296 294 292 292 289 288 288 288 287 287 288 288 288 287 286 286 286 286 286 285 284 283 283 284 284 284 283 283 283 283 283 283 283 284 285
294 293 293 294 293 293 295 295 293 291 290 290 289 288 286 284 284 284 284 284 286 286 286 286 286 285 284 284 283 283 284 284 283 283 283 283 283 283 283 283 283 283 284
292 292 292 292 292 291 290 290 292 291 289 286 284 284 284 284 283 284 284 285 285 285 285 285 284 284 284 284 284 283 283 283 282 282 282 282 283 283 283 282 282 283 284
291 291 292 291 290 289 289 291 290 285 283 283 284 284 283 283 282 284 285 285 285 285 284 283 283 283 283 283 283 282 282 282 281 282 281 281 282 282 282 282 282 283 283
291 291 290 289 289 287 285 284 284 284 284 283 284 283 282 283 284 285 285 285 283 282 282 282 282 282 281 280 281 280 280 280 280 280 281 281 282 281 282 282 282 282 281

GFSMA_925_thetae_036.txt.gz
Theta_e
335 335 335 334 333 330 328 325 319 314 311 308 308 310 312 313 315 319 321 322 321 319 316 315 315 314 313 313 313 312 312 312 313 313 313 312 312 312 313 313 313 313 314
333 334 334 334 334 332 328 324 319 314 311 309 308 309 311 313 314 316 318 319 318 315 314 312 312 312 312 312 312 310 309 310 310 311 311 310 310 311 311 311 311 311 312
332 333 334 334 334 332 328 323 317 312 310 308 308 308 310 312 313 313 314 314 313 311 311 310 310 311 309 309 309 308 307 307 308 308 308 309 309 309 309 309 309 310 310
330 332 333 334 333 331 328 322 317 313 311 309 307 306 309 311 311 311 311 310 310 308 309 306 307 306 306 306 306 305 305 305 305 306 306 306 307 307 308 308 308 309 309
331 329 331 332 332 330 325 321 316 314 311 308 306 305 306 308 310 309 308 307 307 306 306 303 300 299 301 302 303 304 304 303 303 304 304 305 305 305 307 307 307 308 308
332 331 329 330 330 330 325 320 316 312 311 309 304 303 303 305 308 308 306 305 304 303 304 302 298 299 297 297 297 297 301 303 303 302 303 303 304 305 306 307 307 307 308
334 332 330 329 329 328 326 320 316 310 307 306 305 304 303 302 304 306 305 304 303 302 301 299 298 298 297 296 296 295 295 298 302 302 302 303 303 304 305 306 307 307 307
334 333 331 329 328 327 326 321 314 310 307 304 308 308 308 304 302 304 305 304 302 301 299 298 298 297 297 296 296 294 293 294 299 301 301 302 303 304 305 305 306 307 307
334 333 332 330 328 325 324 321 314 313 308 304 307 310 310 311 306 302 302 303 302 300 299 298 297 296 295 295 295 295 293 293 297 300 301 302 303 303 304 304 305 305 306
334 333 332 330 327 323 323 321 317 319 313 307 303 304 304 307 308 305 300 301 300 300 299 298 296 295 294 295 294 294 292 291 294 297 299 300 300 301 302 303 303 304 305
332 332 331 330 327 323 322 320 317 314 313 311 307 301 300 299 301 306 307 301 299 298 298 298 296 295 294 293 293 293 290 290 294 295 296 298 299 300 300 301 302 302 302
331 330 330 329 327 324 323 323 321 314 311 311 308 306 302 302 301 301 305 304 302 299 297 296 295 294 293 292 292 291 289 289 290 293 294 296 297 298 298 299 299 299 299
330 328 328 328 327 324 323 322 318 315 311 309 307 307 305 303 302 302 304 301 301 296 296 295 295 294 293 291 291 289 289 288 288 291 293 294 295 294 294 295 296 296 297
329 328 327 327 326 325 323 321 317 313 310 309 308 305 305 302 301 301 300 297 297 296 296 296 294 293 292 290 290 289 289 289 288 289 291 291 291 291 291 292 293 293 294
327 327 327 326 324 323 322 319 316 315 311 309 307 305 306 302 299 299 298 298 300 299 297 294 293 291 290 290 289 289 289 289 288 289 289 289 289 289 290 290 291 292 292
325 325 325 324 322 320 318 315 313 312 310 307 304 302 301 298 296 297 297 298 295 294 294 290 289 289 288 288 288 288 288 288 287 288 288 288 288 288 289 289 290 291 292
319 319 319 319 318 315 313 312 310 308 305 302 301 301 299 298 296 294 293 293 293 293 291 290 289 288 291 292 288 288 288 287 287 287 287 287 287 288 289 289 290 290 291
315 316 316 314 312 310 308 307 306 305 303 300 298 297 294 293 293 292 293 292 291 290 289 289 290 290 289 287 287 287 287 287 287 286 286 286 287 288 288 288 289 289 290
310 311 310 307 306 306 304 304 301 300 297 296 294 293 292 293 293 292 292 291 291 291 290 288 288 287 286 286 286 287 287 287 287 286 285 285 286 287 287 288 288 289 289
306 304 303 302 300 300 298 297 297 295 294 294 294 295 294 293 292 291 291 291 290 289 287 287 287 287 287 287 287 287 287 287 286 285 285 286 286 286 286 286 287 287 287
298 298 298 297 295 294 294 294 294 294 294 293 293 293 292 292 292 291 290 289 288 287 287 288 288 288 288 287 287 287 286 286 285 285 286 286 286 286 286 286 286 286 286
296 297 297 295 294 294 293 293 293 294 294 293 292 291 291 291 290 288 288 288 288 288 288 288 288 288 287 287 287 286 285 285 286 285 285 285 286 286 286 286 286 286 286
295 294 294 294 294 294 293 293 294 293 293 291 291 290 289 288 286 285 286 286 286 287 288 288 287 287 287 286 285 285 284 285 285 285 285 285 285 285 286 286 286 286 286
292 292 293 293 293 292 291 291 292 292 290 288 288 287 285 284 284 284 285 285 286 286 286 286 286 286 285 285 285 285 285 284 284 285 285 285 285 285 285 285 285 285 285
291 291 291 291 290 289 289 290 289 287 286 284 284 284 284 284 283 285 286 286 286 286 285 284 284 283 284 284 284 284 283 284 284 284 284 284 284 285 285 285 285 285 285
290 289 289 288 287 286 286 285 285 285 285 285 284 284 283 284 284 285 286 286 286 285 284 283 283 283 282 282 281 282 283 283 283 283 285 283 284 283 284 284 284 284 284

GFSMA_925_thetae_039.txt.gz
Theta_e
335 334 333 332 332 331 330 329 325 319 316 313 312 313 313 314 316 321 324 323 322 320 318 317 317 316 315 315 313 313 313 313 313 314 313 312 312 313 313 313 313 313 314
335 335 335 334 333 332 330 328 325 320 316 313 312 312 313 314 315 318 322 320 320 318 316 315 315 314 314 314 312 310 310 311 311 311 311 311 311 311 311 311 311 311 312
333 333 333 334 334 332 331 328 325 319 316 313 312 312 312 314 314 316 318 318 316 315 313 313 313 313 312 311 310 308 307 308 308 308 308 309 309 309 309 310 310 310 310
332 332 333 334 333 333 333 330 325 318 315 313 313 311 312 313 313 313 314 315 313 311 311 310 311 309 309 308 307 306 306 306 305 305 306 306 306 307 308 309 309 309 309
333 331 332 333 332 333 332 330 324 318 317 314 313 310 310 311 312 312 312 311 311 309 309 307 307 305 306 305 305 305 305 304 304 304 304 305 305 306 306 308 308 308 309
335 333 331 332 332 333 331 329 324 320 318 315 312 309 307 308 310 311 309 309 308 307 307 305 302 299 299 300 299 299 300 303 304 303 303 304 304 305 306 307 308 308 308
337 335 333 331 331 331 331 329 324 319 317 315 309 307 307 306 307 310 309 307 306 305 305 305 301 300 299 297 297 296 296 296 302 303 303 303 304 305 306 307 307 308 308
338 337 335 333 331 331 331 329 324 320 315 312 310 312 312 307 304 305 308 307 305 304 303 302 300 300 299 298 297 297 295 295 297 301 302 303 304 306 306 306 307 307 308
338 337 336 334 332 331 331 329 325 320 316 311 313 314 317 316 307 304 306 306 305 304 302 301 300 299 298 298 297 296 295 294 294 300 301 302 303 304 304 305 305 306 306
334 337 335 335 333 331 331 329 326 320 316 312 309 311 311 310 312 307 304 305 305 303 302 300 299 298 297 297 297 298 298 295 293 297 300 300 301 302 303 303 304 304 305
333 332 334 334 333 332 331 328 326 319 317 316 312 309 308 305 306 308 306 302 303 303 302 301 299 298 296 296 296 295 294 292 292 296 297 299 300 301 302 302 303 303 303
333 332 330 331 332 331 330 327 325 320 318 318 313 311 309 307 303 303 306 303 301 301 300 300 299 297 296 295 294 294 293 291 290 293 295 297 298 299 299 299 299 299 300
332 332 330 329 330 330 328 326 325 322 318 318 316 312 308 309 307 304 305 304 304 299 299 298 298 297 295 294 293 292 291 290 290 291 294 295 296 296 295 295 296 296 297
328 329 330 328 327 328 328 327 325 324 320 317 315 311 308 307 307 310 306 301 299 297 296 296 296 296 295 293 293 291 290 291 290 291 292 293 293 292 292 292 293 294 294
325 326 327 328 325 325 327 326 325 323 318 315 313 310 308 307 305 304 302 302 303 298 299 294 293 294 293 292 291 290 290 290 291 291 291 291 291 291 291 291 291 292 293
321 323 324 324 325 325 325 324 323 321 318 315 313 312 308 304 300 299 297 298 299 299 297 292 291 291 291 290 290 289 290 290 289 290 290 290 290 290 290 290 290 291 292
316 318 319 320 320 321 321 321 319 317 315 313 311 309 305 301 299 298 297 299 300 298 294 289 289 289 289 289 291 292 290 289 288 288 289 289 289 289 289 289 290 291 291
313 314 314 315 315 315 314 313 313 312 311 308 304 302 299 297 297 298 296 292 292 294 294 291 291 292 292 292 292 291 288 288 287 287 288 289 288 288 288 289 290 290 290
309 308 308 308 308 308 308 307 306 305 304 301 300 297 295 295 293 292 293 294 294 294 294 293 290 290 289 288 287 287 287 287 287 287 288 287 287 287 288 289 289 289 290
304 303 301 302 302 302 302 302 301 299 297 295 295 294 293 293 294 295 294 294 293 291 290 289 288 288 288 288 288 287 287 288 287 287 286 286 287 288 288 288 288 288 288
299 299 297 297 296 297 296 296 296 295 295 293 293 293 294 294 295 294 293 292 291 289 288 288 289 289 289 288 288 288 288 287 286 286 286 286 287 286 286 287 287 287 288
297 296 296 295 295 294 294 294 294 294 293 293 292 291 291 291 292 290 290 290 290 288 288 289 289 288 288 288 288 287 287 286 286 285 286 285 286 286 286 286 286 287 288
294 294 294 294 294 294 293 292 292 292 291 291 290 289 289 288 289 289 288 288 289 289 288 288 288 288 288 287 286 286 285 285 285 285 285 285 285 286 286 286 286 287 287
293 293 293 293 292 292 291 290 292 291 289 289 288 288 288 286 285 284 285 285 286 286 286 287 286 286 286 286 285 285 285 285 285 285 285 286 286 286 286 285 286 287 287
291 291 291 290 289 288 289 290 290 289 288 286 285 284 285 285 285 285 286 286 286 286 286 286 285 284 284 284 285 284 284 284 284 285 285 285 285 285 285 285 285 286 287
290 289 289 288 287 287 287 286 286 286 286 285 285 285 283 284 284 285 286 287 287 286 285 284 284 284 284 283 283 283 283 283 284 283 284 284 284 284 284 284 285 285 284

GFSMA_925_thetae_042.txt.gz
Theta_e
333 333 332 332 330 331 331 332 328 323 318 315 313 313 313 315 317 326 325 326 325 322 320 319 318 317 317 315 314 314 314 314 314 313 313 313 313 313 313 313 313 313 314
334 334 333 333 332 332 330 330 328 323 318 315 312 313 313 314 315 321 323 324 323 320 319 317 317 316 316 315 312 312 312 312 312 312 311 311 311 311 311 311 311 312 312
334 335 333 334 333 331 332 330 328 324 319 315 313 312 312 313 315 317 321 320 321 319 316 315 315 315 315 314 312 310 309 309 309 308 308 309 309 309 310 310 310 310 311
333 333 334 334 334 333 332 332 328 324 319 315 313 312 312 313 314 315 318 319 317 317 314 313 314 314 312 312 310 308 307 306 305 303 305 306 306 307 308 309 309 309 310
333 333 333 333 334 333 332 331 330 326 319 315 313 312 311 312 313 313 314 315 314 312 311 311 311 310 310 308 308 307 306 304 304 304 305 305 306 306 307 308 309 309 309
335 333 332 332 333 333 331 331 331 326 320 316 314 312 310 310 312 312 312 312 312 311 310 309 307 307 306 306 306 305 304 304 304 304 304 304 305 305 306 307 308 309 309
337 335 334 332 332 333 332 332 331 326 321 318 314 310 308 308 309 311 311 310 310 309 308 308 306 304 301 300 300 298 297 298 301 304 303 304 304 305 306 307 308 308 308
339 337 335 334 332 332 333 332 330 326 322 318 312 307 306 307 306 307 310 309 308 307 306 306 305 302 300 300 298 297 296 296 298 301 303 304 305 306 307 307 307 308 308
337 339 337 335 334 332 331 332 331 326 320 317 314 312 311 310 304 305 306 309 307 306 305 305 304 302 300 299 299 298 297 296 296 300 302 303 303 304 305 306 306 306 307
333 334 337 337 336 334 331 331 330 327 321 315 312 313 315 312 306 303 304 305 307 306 305 303 303 301 300 299 298 298 297 296 295 296 300 302 302 303 304 304 305 305 306
336 335 333 335 335 334 333 331 331 328 323 316 313 311 312 311 308 305 301 303 306 306 304 303 302 301 299 298 297 297 297 297 295 294 297 300 301 302 303 303 303 303 303
331 332 334 332 331 333 334 332 331 329 324 318 314 314 314 310 305 304 305 300 302 303 304 303 301 300 299 298 296 296 296 295 293 294 297 298 299 300 301 300 300 300 300
330 331 330 332 330 329 330 332 331 329 326 320 317 314 314 313 310 307 306 303 301 301 301 302 301 300 298 297 296 295 295 294 292 292 296 297 298 297 297 296 297 297 298
321 326 327 328 330 329 327 328 330 329 326 323 319 318 314 312 311 307 307 306 302 298 297 297 299 298 297 295 295 294 293 292 291 292 294 295 294 294 294 294 294 295 295
322 323 323 325 327 327 325 325 327 328 326 324 320 318 316 312 309 307 306 308 307 301 298 295 296 296 295 295 294 293 292 290 292 292 293 293 293 293 292 293 293 293 293
318 319 320 321 322 323 325 324 325 326 324 324 320 317 315 311 309 308 307 305 304 301 298 294 295 295 295 293 292 292 291 290 290 292 292 292 292 292 292 292 292 292 292
313 314 314 316 317 318 319 321 321 321 319 317 316 314 313 311 307 303 300 299 300 303 298 292 292 292 292 291 292 291 290 292 294 293 291 291 291 291 291 291 291 291 292
310 311 312 312 313 313 314 315 314 313 313 313 312 310 308 304 300 298 297 298 299 300 298 292 291 290 291 290 290 292 292 291 289 288 289 290 290 290 290 290 290 291 291
305 305 305 305 306 308 308 308 308 308 307 307 306 304 303 300 297 296 296 296 296 297 297 295 291 291 291 292 291 291 291 289 287 287 289 289 288 288 288 289 290 290 290
300 300 299 299 299 299 300 301 301 302 301 299 299 298 297 296 296 295 294 294 294 293 293 293 291 290 290 289 289 289 288 288 288 287 287 287 287 287 288 289 289 289 289
299 299 298 297 297 297 296 297 297 296 296 295 294 294 294 294 294 293 293 293 292 291 291 290 289 289 289 288 288 288 288 288 287 287 286 286 286 286 286 286 286 287 287
296 296 296 296 295 294 294 293 294 293 292 292 292 292 292 292 292 291 292 291 291 290 289 289 289 289 289 288 288 288 287 286 285 285 285 284 284 285 285 285 286 287 288
294 294 294 294 294 293 292 291 293 292 292 291 290 290 290 290 290 290 290 290 290 289 289 288 288 288 287 287 286 286 286 285 285 284 285 284 285 285 285 285 286 287 287
292 292 292 291 291 291 291 292 292 291 290 290 289 289 287 287 287 285 285 285 286 286 286 287 287 286 286 286 285 285 285 285 285 284 284 284 285 285 285 285 285 286 287
291 290 289 289 289 289 289 290 290 289 288 287 286 285 285 285 285 286 285 286 286 286 286 286 286 285 285 285 285 285 285 284 283 283 283 283 284 284 284 285 285 285 286
288 288 287 287 287 287 287 287 286 286 285 285 285 284 284 284 285 285 286 286 286 285 285 285 284 283 283 283 283 283 283 283 282 283 284 283 283 283 283 284 284 284 284

GFSMA_925_thetae_045.txt.gz
Theta_e
333 331 331 331 330 323 328 330 330 324 320 318 316 313 313 315 316 324 324 326 326 325 323 321 319 319 318 316 315 316 315 315 314 314 314 314 314 314 313 313 314 314 314
332 332 333 332 331 330 330 331 332 327 323 319 316 312 313 314 315 324 326 325 325 324 322 321 319 318 318 316 315 314 314 314 313 312 312 312 312 312 312 312 312 312 313
332 333 333 332 332 330 331 331 331 328 323 319 315 312 313 313 314 318 323 323 324 323 320 320 318 318 318 315 313 312 312 311 310 310 310 310 310 310 310 311 311 311 311
333 333 334 334 332 332 331 331 330 328 326 320 315 313 312 312 313 315 320 321 320 320 319 317 317 317 316 316 313 311 310 309 308 307 307 307 307 308 309 310 309 310 310
333 333 333 334 334 334 333 332 331 330 326 320 315 313 312 312 313 314 315 319 319 317 317 315 314 315 314 314 312 310 309 307 307 306 306 306 306 307 307 308 309 309 310
336 334 332 332 333 333 333 333 331 331 329 323 317 314 313 311 312 313 313 314 316 315 313 312 311 313 311 312 310 310 309 306 305 305 305 305 306 306 307 308 308 309 309
336 335 334 333 332 332 333 333 332 331 330 326 317 314 312 310 310 311 312 312 313 313 312 311 309 309 309 308 309 308 307 306 305 305 305 305 305 306 307 308 309 309 309
334 336 335 334 333 332 332 333 332 331 329 324 316 307 305 307 308 309 311 311 311 311 311 310 309 308 307 305 304 305 304 304 304 305 305 305 305 306 307 307 308 308 309
333 330 332 334 334 332 331 332 332 331 326 322 319 313 307 308 305 307 307 309 310 310 310 309 308 307 306 304 300 300 298 300 302 304 304 305 305 305 306 306 307 307 307
335 334 333 331 332 334 333 331 331 331 328 321 316 315 315 313 306 306 305 306 308 309 308 308 307 306 305 302 300 299 298 297 300 303 304 304 304 304 305 305 306 306 307
334 334 334 333 332 332 332 333 332 329 328 324 318 315 311 312 308 304 305 304 304 307 308 306 306 305 304 302 300 299 298 298 299 301 302 302 302 303 304 305 305 305 304
326 331 331 331 333 331 331 332 332 332 329 326 321 318 314 312 311 305 307 304 305 305 306 305 305 304 303 301 299 299 298 298 299 300 300 301 301 302 302 303 302 301 301
317 322 329 330 330 329 329 328 328 329 330 327 323 318 316 313 313 311 307 304 304 302 302 304 303 303 302 300 298 297 297 297 297 297 298 299 299 300 299 299 299 299 299
319 321 322 325 327 328 327 329 327 326 327 328 325 319 316 314 314 314 311 308 304 300 298 299 300 299 299 298 299 297 296 296 295 294 295 297 298 297 296 296 296 296 297
317 318 319 321 324 325 325 325 325 323 324 325 325 323 319 317 316 313 311 309 309 310 301 297 298 300 301 300 296 296 295 294 295 294 293 295 295 295 295 295 295 295 295
313 314 314 315 317 319 320 322 324 324 324 324 323 321 319 317 315 311 309 307 307 308 304 298 297 296 296 296 296 296 297 296 295 293 293 293 294 295 294 294 293 294 294
310 311 312 312 312 313 315 316 318 319 318 318 318 317 316 314 312 309 308 306 303 304 303 295 295 296 295 296 295 294 294 293 293 290 290 293 294 293 292 292 292 292 292
308 308 309 310 310 310 310 312 312 312 312 313 313 313 313 312 309 306 303 300 299 301 301 294 293 294 294 293 293 293 291 290 290 291 293 291 291 291 292 292 291 291 291
303 303 304 304 305 306 307 307 307 307 307 306 304 303 303 301 300 300 299 298 298 298 298 296 292 291 292 291 290 291 291 291 292 291 289 290 290 290 289 289 290 291 291
301 301 300 301 301 301 301 300 300 300 300 299 299 299 298 297 296 296 295 295 296 295 294 294 292 291 290 291 291 291 290 289 288 288 287 287 287 287 288 288 289 289 289
297 297 297 298 297 297 295 296 296 295 295 295 294 294 293 294 294 294 293 293 293 293 292 292 290 290 289 289 289 289 288 288 288 287 286 286 285 285 285 285 286 286 286
295 295 295 294 294 294 293 294 295 294 294 293 292 292 292 293 292 292 292 291 291 291 290 290 289 289 289 289 288 288 288 286 285 285 285 284 284 285 285 285 285 286 288
293 294 293 293 293 293 292 292 293 292 292 290 290 290 291 290 290 290 290 290 290 290 289 289 288 288 287 287 286 286 286 285 285 285 285 284 284 284 285 285 285 286 287
292 291 291 291 292 292 291 291 291 291 291 290 290 289 289 288 288 288 287 286 286 286 286 288 288 287 286 286 286 285 285 285 284 284 284 283 284 284 285 285 285 285 286
289 289 289 289 290 289 289 288 288 288 287 286 285 285 285 285 286 286 285 285 286 286 286 287 286 286 285 285 285 285 285 284 283 283 283 283 283 283 284 285 285 285 286
288 287 286 287 287 287 287 287 285 285 285 285 284 283 285 285 286 286 286 285 285 285 285 285 284 283 283 282 283 283 283 283 282 281 283 283 283 282 282 283 284 284 284

GFSMA_925_thetae_048.txt.gz
Theta_e
331 331 330 329 329 328 326 327 330 329 325 319 317 316 314 313 315 318 322 324 324 326 325 323 321 321 319 318 317 317 317 316 315 315 316 315 315 315 315 315 315 315 315
334 332 331 331 331 330 326 323 328 330 325 321 318 317 314 313 314 316 323 325 326 325 324 323 322 320 319 317 317 316 316 315 315 314 314 314 314 313 313 313 314 314 314
336 333 332 331 332 331 331 329 330 331 331 326 320 318 313 313 313 314 322 326 326 325 324 323 322 320 319 318 317 316 315 315 314 313 312 312 312 312 312 312 312 312 313
334 335 332 332 332 332 331 330 330 330 331 327 321 319 315 312 313 313 317 324 324 324 323 321 322 320 319 318 316 314 314 312 311 311 310 310 310 310 311 310 310 311 311
334 333 333 332 333 332 332 330 331 331 329 327 321 319 316 313 312 312 314 319 322 322 321 319 319 318 318 319 317 314 313 311 310 308 308 308 308 308 309 310 310 310 310
333 333 333 333 333 334 333 332 331 331 331 330 326 321 315 313 312 312 313 314 318 320 319 318 317 316 316 316 317 315 312 311 309 308 307 307 307 308 308 309 309 310 310
337 334 333 333 332 332 333 333 333 332 331 330 322 316 316 313 312 311 312 313 314 316 318 316 314 314 314 313 314 313 312 311 308 307 307 307 307 307 307 308 309 310 310
336 335 335 334 333 332 332 332 332 332 332 330 321 311 311 313 313 313 311 311 312 313 315 315 313 312 311 312 310 311 311 311 309 308 307 307 307 307 307 309 309 309 310
337 336 335 334 334 333 331 332 332 331 329 327 324 320 306 311 306 310 310 310 310 311 312 314 313 311 310 309 309 308 308 308 307 307 307 307 307 307 308 308 308 308 308
334 335 335 334 333 331 332 332 331 331 330 327 322 319 317 311 308 311 308 307 306 308 310 310 311 311 310 309 308 306 305 303 304 305 306 307 307 307 306 307 307 308 308
319 321 330 334 332 330 330 332 332 330 330 328 324 321 315 313 309 307 309 308 307 307 306 309 309 309 309 308 307 305 302 300 302 304 305 306 306 305 305 306 306 307 307
315 317 324 329 332 332 331 330 329 330 329 329 326 323 319 314 313 308 304 305 306 309 308 306 308 308 307 307 306 305 301 299 302 303 303 304 304 304 304 304 305 304 304
318 320 322 326 329 330 331 328 328 328 328 327 327 325 323 319 316 314 312 311 306 306 304 305 305 305 304 305 304 302 300 300 301 301 303 303 302 301 301 301 301 301 301
316 317 319 322 324 327 328 327 326 328 327 326 325 325 323 320 318 314 313 311 307 303 302 303 304 303 303 303 304 300 300 299 299 300 299 299 299 300 299 298 298 299 299
314 314 315 317 319 322 323 325 325 326 324 323 323 323 321 319 317 315 314 312 312 312 305 302 301 300 299 300 300 300 298 299 299 298 297 297 297 297 297 296 297 298 298
311 311 312 312 313 315 317 318 318 319 321 320 320 319 320 319 318 316 313 312 310 310 308 304 299 300 298 297 297 298 299 299 297 296 296 296 296 295 295 295 296 297 296
308 309 309 310 311 312 313 314 314 314 314 313 314 314 315 314 313 312 310 309 307 306 305 302 299 298 298 297 298 297 297 296 296 295 295 294 294 294 295 296 295 294 294
305 305 306 307 308 308 309 309 309 309 310 310 309 309 308 307 306 305 304 302 301 301 302 298 297 295 295 294 295 295 295 295 294 294 293 292 293 294 294 293 293 293 293
302 303 303 303 303 303 305 305 306 306 306 305 304 303 302 302 301 300 299 298 297 297 297 297 294 292 292 292 292 292 292 292 291 290 290 291 292 292 293 292 291 291 291
300 299 299 298 298 298 298 300 300 300 300 299 298 297 297 297 296 296 295 295 294 294 294 294 292 291 291 291 291 291 290 290 290 290 288 289 289 288 289 289 289 289 290
297 296 296 296 296 295 295 296 296 296 295 294 294 293 293 294 294 293 293 293 293 293 292 292 291 290 290 289 289 289 289 288 288 288 287 287 286 286 285 285 285 286 287
295 295 294 294 293 293 293 294 295 294 292 292 292 292 292 293 292 292 292 291 291 291 291 290 289 289 289 289 288 288 288 287 285 286 285 285 284 284 284 285 285 285 287
294 293 293 293 293 293 292 293 293 293 292 291 291 291 291 290 290 290 290 290 290 290 289 288 288 288 287 286 286 286 286 285 285 285 284 284 284 283 284 285 285 285 287
292 291 292 292 292 291 291 291 291 291 290 288 287 286 286 285 286 286 285 286 286 286 286 287 287 287 286 286 286 286 285 285 284 284 283 283 283 283 284 285 285 285 286
289 290 290 290 289 288 287 286 286 285 285 284 284 285 284 284 286 286 285 285 286 286 286 287 286 285 285 285 285 285 285 284 283 283 282 282 283 283 284 285 284 285 286
288 287 287 287 287 288 288 286 285 285 284 284 283 283 285 286 286 286 285 284 284 284 284 285 285 284 283 282 282 283 283 282 282 281 283 283 283 282 281 283 284 284 284

GFSMA_925_thetae_051.txt.gz
Theta_e
330 325 326 324 326 328 328 327 327 329 328 323 318 317 316 315 313 314 318 324 328 329 328 325 323 322 320 319 319 318 318 317 317 317 317 317 316 316 316 316 317 317 317
333 332 330 330 330 329 329 329 324 325 328 327 323 320 317 316 313 313 316 322 325 326 326 325 324 323 321 319 318 318 318 317 316 316 316 315 315 315 315 315 315 316 316
334 334 332 331 331 331 331 330 327 325 329 330 326 322 319 318 314 313 314 318 323 325 326 325 325 323 322 320 319 318 317 316 315 315 314 314 314 314 314 314 314 314 314
334 335 335 334 332 331 331 331 329 329 330 330 331 328 323 318 315 313 313 314 321 325 325 324 323 324 322 321 319 318 316 316 315 314 313 312 312 312 312 312 312 312 312
334 334 334 334 333 331 331 331 331 330 330 330 330 329 326 320 317 315 313 312 315 321 324 323 322 321 321 321 319 318 316 315 313 312 312 311 310 310 311 311 311 311 311
333 333 333 333 333 332 331 332 331 331 330 330 329 329 327 323 317 315 314 312 312 315 320 322 321 320 320 319 320 319 317 315 313 311 310 310 309 309 309 310 310 310 310
337 333 333 333 332 332 332 332 332 331 330 329 326 325 326 324 319 317 315 313 312 312 315 319 320 319 318 317 317 318 318 315 313 312 310 309 309 309 309 309 310 310 311
337 337 336 336 334 332 332 331 331 331 331 331 324 314 315 318 321 320 317 313 312 312 312 315 318 318 316 315 315 315 317 315 314 311 310 309 309 309 308 309 310 311 310
338 338 337 336 335 334 333 333 331 330 329 329 327 324 313 314 309 319 319 315 313 311 311 312 314 317 316 314 313 313 313 313 314 313 311 310 309 309 308 309 310 309 309
328 332 334 335 335 335 334 333 331 331 330 328 325 324 324 318 314 314 315 313 310 309 310 310 310 312 315 314 312 311 311 310 311 311 309 309 310 309 309 309 308 308 309
314 316 318 320 326 333 334 331 330 330 330 329 327 324 320 315 312 310 320 315 314 313 312 309 308 309 310 313 312 311 310 309 309 308 306 307 309 309 309 308 307 308 308
314 314 316 320 323 327 332 332 331 330 329 329 328 327 323 317 313 310 310 314 311 312 312 312 310 307 307 308 309 310 309 308 307 305 305 307 308 308 307 307 307 306 306
316 317 319 321 324 327 329 330 330 329 328 328 326 326 325 323 320 317 314 314 310 311 312 313 312 311 311 308 305 305 306 307 307 305 306 305 306 305 304 304 304 304 302
314 315 315 317 320 323 326 327 328 327 327 327 326 325 324 322 321 320 315 313 310 306 305 311 310 309 308 307 306 302 305 306 304 304 304 304 305 303 302 302 301 300 301
312 312 313 314 314 317 319 322 324 324 324 323 323 322 322 321 320 318 317 315 313 312 308 308 307 306 304 302 302 302 302 304 303 303 302 303 302 302 301 300 299 299 299
309 309 310 311 311 312 314 316 317 317 317 317 315 316 316 316 315 313 312 311 311 311 309 307 304 303 302 299 298 299 301 301 302 301 300 300 300 299 298 298 297 297 298
306 307 307 308 309 309 310 311 311 311 311 310 309 310 309 309 310 309 308 306 305 305 304 304 303 302 300 298 298 299 299 300 299 299 298 298 298 297 296 296 296 297 297
303 304 304 305 306 306 306 307 307 307 306 306 307 307 306 306 304 304 303 303 301 300 300 299 298 297 296 295 296 296 296 297 297 297 296 296 295 295 294 295 296 296 295
301 301 301 302 301 301 302 303 303 304 304 303 302 301 300 301 300 300 299 299 298 298 297 296 295 294 293 293 293 293 293 292 292 292 292 292 293 293 294 294 294 295 293
299 298 298 298 297 297 298 298 298 298 298 297 296 296 295 296 296 295 295 295 295 295 294 294 293 292 291 291 291 291 291 291 291 291 291 291 291 290 291 291 290 290 290
296 296 295 294 294 294 293 296 296 295 293 293 293 293 293 294 294 293 293 293 293 293 292 292 291 291 290 290 290 289 289 289 289 289 288 288 288 288 287 286 285 285 286
295 294 293 293 293 293 293 294 294 292 292 292 293 292 292 292 292 292 292 292 292 291 290 290 289 289 289 289 289 288 288 287 286 285 285 286 285 285 285 284 284 284 286
293 293 293 293 293 293 292 293 293 292 291 290 290 290 289 289 288 288 288 289 289 289 289 288 287 287 287 286 286 285 285 285 285 285 284 284 284 284 283 284 284 285 287
292 292 292 292 291 290 290 290 290 290 289 286 285 284 284 285 286 286 284 285 285 285 286 286 286 286 286 286 286 286 285 285 284 284 284 283 282 283 283 284 284 285 286
291 291 291 290 288 288 286 285 285 285 284 284 284 285 285 285 287 286 285 284 285 285 285 286 285 285 285 285 285 284 285 284 283 282 282 282 282 283 283 284 284 285 286
289 289 287 287 287 288 287 285 284 283 283 283 283 283 284 286 286 286 284 284 283 283 284 284 283 283 283 282 282 282 282 283 282 281 282 282 282 282 281 282 283 285 285

GFSMA_925_thetae_054.txt.gz
Theta_e
332 325 320 321 323 326 327 327 327 327 328 327 323 318 317 316 315 314 313 317 323 328 330 329 325 324 322 320 320 319 319 317 317 318 317 317 317 317 317 318 318 318 318
333 331 328 327 327 327 328 329 328 328 326 327 327 326 321 319 316 315 313 314 319 325 328 328 326 325 324 321 320 319 319 317 317 317 317 316 316 316 316 316 316 317 317
334 333 332 332 330 330 330 330 330 329 327 325 328 329 326 323 320 318 314 313 315 320 324 326 327 326 324 323 321 320 318 318 317 316 316 315 315 315 315 315 315 315 316
331 333 333 334 334 332 331 330 330 330 330 328 328 329 330 329 326 321 316 313 313 315 319 323 325 326 325 323 322 320 319 318 317 316 315 314 314 314 313 313 313 314 314
333 333 334 334 334 334 333 331 330 330 331 330 329 330 330 330 329 326 322 316 314 313 315 319 323 323 323 324 322 321 320 318 317 315 314 313 312 312 312 312 312 312 312
334 333 333 333 333 334 333 332 331 330 330 331 329 329 329 329 329 327 324 322 318 316 313 315 321 323 322 321 322 322 320 319 317 315 313 313 311 311 311 312 311 311 311
337 336 332 332 332 332 332 332 331 331 330 330 327 327 328 328 327 329 328 322 317 314 313 313 316 321 322 320 320 320 320 319 318 316 314 312 311 310 310 310 311 311 311
338 337 337 337 335 332 332 332 330 330 330 330 328 319 321 324 326 326 325 323 320 316 313 312 312 317 321 320 318 318 318 319 319 317 315 313 311 311 310 310 310 311 311
338 337 337 337 336 336 334 334 332 330 329 329 328 327 317 319 313 322 323 321 319 317 315 311 310 311 315 319 318 317 316 315 317 317 316 313 311 311 310 310 310 311 311
317 323 329 331 333 334 335 334 334 332 330 328 327 326 325 320 318 319 319 320 320 322 319 318 314 310 310 312 316 317 315 315 315 314 316 315 313 312 311 310 310 310 309
312 312 313 316 318 321 323 329 333 332 330 329 327 326 324 319 316 313 321 319 319 318 319 315 315 314 311 309 310 314 314 313 313 314 312 312 310 312 312 311 311 310 309
314 315 315 317 318 321 325 328 330 330 330 329 328 325 326 320 315 312 311 312 314 316 316 315 315 314 313 311 308 307 309 311 312 313 312 311 310 309 311 311 310 309 309
314 315 315 317 319 321 323 325 325 327 329 328 327 325 325 325 323 320 316 315 313 312 314 315 315 314 313 311 311 309 308 307 309 310 311 310 309 309 309 309 307 307 306
313 313 314 314 315 317 320 324 325 326 326 326 322 321 322 323 322 320 317 314 312 309 308 312 312 310 309 308 307 305 307 306 307 308 310 310 308 308 307 306 306 304 303
310 310 310 311 312 313 316 318 320 321 323 323 322 321 320 318 318 317 316 315 314 312 309 307 307 306 306 305 304 304 303 303 303 305 307 307 308 306 305 304 303 302 302
308 308 308 309 309 310 312 315 316 315 317 316 315 315 315 314 314 313 312 312 310 309 309 307 306 306 305 305 304 302 300 300 301 302 305 305 304 304 303 302 301 300 300
306 306 306 307 307 307 308 309 309 310 310 308 308 308 308 309 308 308 308 308 307 306 304 304 302 301 301 301 300 299 299 299 300 303 304 303 302 300 299 299 299 298 297
302 303 303 304 304 304 305 305 305 304 304 304 303 305 304 302 303 303 302 303 301 301 301 299 298 298 297 296 295 296 297 298 299 300 299 299 298 298 297 297 296 296 296
300 300 300 300 300 300 301 301 302 301 300 300 299 298 297 298 297 297 297 297 297 297 297 297 295 294 294 293 293 293 294 294 295 296 296 296 296 294 294 295 295 295 295
298 298 298 297 296 297 298 298 298 298 297 295 295 295 294 295 294 294 294 294 294 295 295 294 293 292 292 291 291 291 291 291 291 292 292 292 292 292 291 292 292 291 291
296 294 294 293 294 293 294 294 294 293 293 293 293 293 293 294 294 293 293 293 293 293 292 292 291 291 290 290 289 289 289 289 289 289 289 289 288 289 289 288 288 287 286
295 294 294 293 293 293 292 292 291 291 292 293 292 291 291 292 292 291 291 292 291 290 290 290 289 289 288 288 287 287 287 287 286 285 285 286 285 286 286 285 284 284 284
294 293 293 292 292 291 291 292 292 291 290 289 288 288 287 287 286 285 285 286 287 287 287 287 287 287 286 286 285 285 285 285 284 285 284 284 284 283 282 283 283 284 286
293 292 292 291 290 290 289 289 288 287 285 284 284 283 284 286 288 285 284 284 285 285 286 286 285 285 285 286 285 285 285 284 284 283 282 283 282 282 284 284 284 284 285
291 291 290 288 287 288 286 285 285 284 284 283 284 285 286 286 287 286 284 284 283 284 284 285 285 285 285 284 284 284 283 284 283 282 282 281 282 282 283 283 283 285 286
290 290 288 287 288 288 287 284 283 283 283 283 283 283 283 286 286 285 284 283 282 283 283 283 282 281 281 281 281 281 281 282 282 280 282 282 282 281 281 282 283 283 284

GFSMA_925_thetae_057.txt.gz
Theta_e
332 330 322 319 321 324 325 326 327 327 326 328 327 325 321 318 318 315 315 314 316 325 328 329 329 325 323 322 321 319 319 317 318 318 318 318 317 318 318 319 319 319 319
333 332 330 325 322 323 325 328 329 329 329 326 325 326 327 324 321 318 317 315 314 318 324 328 329 327 325 324 322 320 320 318 317 318 317 317 316 316 317 317 317 317 318
333 333 332 331 331 329 329 329 329 329 330 329 328 327 328 329 328 325 322 319 314 314 317 323 328 328 326 324 323 321 320 318 318 317 317 316 316 315 315 316 316 316 316
331 331 332 332 332 332 332 331 330 330 330 330 330 330 329 329 329 329 328 324 320 316 314 317 320 327 327 326 324 323 321 320 318 317 316 316 315 315 314 314 314 315 315
332 332 332 333 333 333 333 333 333 332 330 330 330 331 330 330 330 330 330 329 325 321 317 315 316 320 324 326 325 323 323 321 319 318 316 315 314 314 313 313 313 313 313
334 333 333 333 333 333 333 333 333 332 331 330 329 329 330 331 330 330 330 330 328 322 318 315 314 318 321 323 324 324 323 322 321 318 317 315 314 313 313 313 312 312 312
334 335 335 335 333 332 332 332 331 331 330 330 327 328 329 329 330 330 329 328 328 325 322 315 313 314 318 323 323 323 323 322 321 320 317 315 314 313 312 312 312 312 312
335 336 336 336 336 335 335 333 331 329 329 330 329 323 328 326 326 326 326 326 325 323 321 318 314 312 312 316 321 321 321 322 321 322 320 317 314 313 312 312 311 312 312
337 336 336 336 336 336 335 335 334 331 329 329 329 328 324 326 319 325 324 323 322 323 323 319 318 315 312 311 313 319 320 319 320 320 320 320 316 314 313 312 312 311 312
318 318 323 329 334 333 333 333 334 333 330 328 327 327 326 324 322 322 322 322 322 321 321 319 317 316 315 313 311 312 317 318 317 319 318 319 318 316 313 312 312 312 312
312 312 312 313 315 317 321 326 327 331 330 329 326 325 325 321 320 317 321 322 320 321 320 320 318 317 315 314 312 310 309 310 315 318 318 317 317 316 314 312 312 311 311
313 315 315 316 317 318 319 322 325 323 324 327 328 327 327 322 319 313 314 314 315 317 318 317 316 314 313 312 311 310 309 308 308 315 317 317 316 314 314 313 314 312 311
313 314 314 314 314 316 318 323 322 322 323 325 324 324 324 323 322 320 318 318 315 314 315 315 313 312 311 311 310 309 307 307 307 311 314 316 317 314 313 312 312 312 311
313 312 312 312 313 313 315 317 320 322 323 324 323 322 321 321 321 320 318 316 313 311 311 312 310 310 309 309 308 308 307 306 306 307 310 313 315 314 312 310 310 310 308
310 309 309 309 310 311 312 315 317 319 321 321 320 321 320 319 318 318 316 315 314 314 311 309 308 308 308 307 307 307 306 304 303 302 304 306 309 311 308 308 308 307 305
307 307 307 308 308 309 311 313 314 315 315 315 315 315 314 313 314 313 312 311 311 311 310 307 306 306 305 304 303 303 302 301 300 301 301 304 307 308 306 305 304 303 302
305 305 305 306 306 307 308 309 310 310 311 311 310 309 309 309 309 308 307 307 306 306 306 303 302 300 300 300 299 299 299 299 299 300 302 304 302 303 303 302 301 301 300
303 303 303 303 304 304 305 305 306 305 305 305 304 304 304 304 303 302 303 302 302 301 301 300 298 298 297 296 295 296 297 297 298 299 299 299 299 299 299 299 299 298 298
300 300 300 300 300 300 301 302 302 301 300 299 299 300 299 298 298 298 298 297 297 297 297 297 295 294 294 293 293 294 294 295 296 296 297 298 298 297 297 297 297 297 297
299 298 297 296 296 297 298 298 297 296 295 295 295 295 295 295 294 294 295 295 295 295 295 294 293 292 291 291 291 291 291 292 292 292 293 293 294 294 293 294 294 294 295
296 295 295 294 293 293 293 294 294 294 294 294 294 294 294 294 293 293 293 293 293 293 292 293 292 292 291 291 289 289 290 289 289 288 287 288 288 289 289 290 289 289 289
295 295 294 293 292 292 293 293 293 293 293 293 292 292 291 291 291 291 291 291 291 290 290 289 289 289 288 287 286 286 286 287 288 285 285 286 285 285 285 286 286 285 285
294 294 293 293 292 291 292 292 292 292 291 290 289 288 287 286 286 285 285 286 286 287 287 286 287 286 286 285 285 285 285 285 285 284 283 284 283 283 282 283 283 283 284
293 293 292 292 291 290 290 289 288 286 284 284 284 284 286 287 287 285 284 284 284 286 286 285 285 285 285 285 285 285 284 284 284 283 282 283 282 283 283 283 284 284 284
292 291 289 288 287 287 285 285 284 284 284 284 285 285 285 287 287 285 284 283 283 284 284 284 284 284 284 284 284 284 284 283 283 283 281 282 283 282 283 283 284 284 285
291 290 288 287 287 287 286 283 283 283 283 283 283 283 285 286 286 286 284 282 282 283 283 282 281 280 280 280 280 281 280 282 282 282 281 282 282 282 284 282 283 283 283

GFSMA_925_thetae_060.txt.gz
Theta_e
334 332 329 326 326 328 329 330 331 330 330 328 327 325 324 322 321 319 318 317 315 316 329 332 331 328 326 324 322 321 320 317 318 318 318 317 317 318 319 320 320 320 320
335 334 332 330 327 327 329 331 333 333 332 332 330 329 329 328 326 322 320 320 320 315 316 324 330 330 327 326 324 322 321 320 318 318 318 317 316 317 317 317 317 318 318
334 333 333 332 332 330 330 331 332 332 333 333 332 332 331 330 329 326 323 322 322 322 317 315 321 329 328 326 326 324 322 320 319 318 318 317 317 316 316 316 317 317 317
335 335 334 334 334 333 333 333 333 333 333 333 333 333 332 332 331 330 329 326 325 323 323 321 315 320 328 328 327 326 325 322 320 319 317 317 316 316 315 315 315 316 316
335 335 335 335 335 335 334 334 334 334 334 334 334 333 332 332 332 331 330 329 327 323 323 323 322 317 320 324 327 327 326 324 322 320 318 317 316 315 315 314 314 315 315
335 335 336 336 335 335 335 335 335 335 334 334 334 332 332 332 332 331 330 330 329 325 322 322 322 323 320 320 324 326 326 325 324 322 320 318 316 315 314 314 313 313 313
335 335 336 336 336 336 336 335 335 335 334 334 332 332 332 331 330 329 328 328 326 324 323 322 321 321 321 321 319 323 325 325 324 324 322 320 318 316 314 313 313 314 313
336 336 336 337 337 336 336 335 335 334 333 333 332 332 332 328 327 326 326 325 323 322 320 319 319 318 319 320 321 321 323 324 323 323 323 322 319 317 315 314 313 313 313
335 335 335 336 335 335 335 336 335 334 332 332 330 332 332 329 326 325 324 321 320 319 318 316 317 318 317 317 317 318 317 321 322 323 322 322 321 318 317 315 314 313 313
326 324 325 329 332 332 331 331 330 330 330 330 329 328 328 327 327 326 324 323 319 319 317 320 320 316 315 315 313 311 311 313 317 320 321 321 320 321 318 316 314 314 313
312 312 312 313 317 321 320 322 325 326 325 327 328 326 325 324 323 323 324 324 322 321 320 317 316 314 313 312 312 311 312 311 309 313 318 320 320 320 318 316 316 314 313
315 314 314 315 316 318 321 321 321 322 323 323 324 326 325 323 323 321 320 321 320 321 319 317 315 313 311 311 311 311 312 311 309 311 314 317 319 320 319 317 315 314 315
315 315 313 313 314 314 315 319 320 321 322 322 323 324 325 325 324 321 318 319 319 318 316 315 312 310 308 309 308 310 309 309 309 309 312 315 317 316 317 318 317 317 316
313 312 312 311 311 312 313 315 319 320 320 321 323 324 323 323 322 321 319 319 318 317 315 315 308 308 306 307 308 308 307 308 307 306 306 307 309 311 313 315 315 315 312
309 309 309 308 308 309 310 313 317 317 318 320 321 321 320 319 318 318 317 317 317 317 317 313 311 307 306 306 305 305 305 304 304 303 304 306 305 307 309 311 312 311 309
308 307 307 307 308 308 309 311 312 313 314 314 314 315 315 314 313 313 313 312 313 313 314 310 305 306 305 303 303 302 302 301 301 301 303 304 304 307 308 308 308 305 305
306 305 305 305 306 306 306 308 309 310 311 311 310 309 308 307 306 306 306 307 307 308 309 304 304 303 300 299 298 298 298 299 299 299 301 301 302 303 304 304 303 303 302
303 302 302 302 302 303 303 304 304 304 304 304 303 303 302 303 303 303 303 303 303 302 305 306 298 298 297 297 295 295 296 297 297 297 298 299 299 299 299 299 300 300 300
300 299 299 298 299 300 300 300 300 300 300 299 299 299 299 300 300 299 299 299 299 298 298 300 297 295 295 295 293 293 294 294 294 295 296 296 297 297 297 297 297 298 298
298 298 297 296 297 297 297 297 297 296 296 296 296 296 296 296 296 296 296 295 296 297 296 297 296 295 293 292 291 292 295 293 292 292 292 293 293 294 294 295 295 295 296
297 296 296 295 294 294 295 296 296 295 295 295 294 294 294 294 294 294 294 294 294 295 295 296 296 295 294 293 291 291 292 292 291 288 289 289 289 289 290 289 290 290 291
296 295 294 295 294 294 294 294 294 293 293 293 292 293 293 292 292 292 292 291 291 292 291 293 294 294 292 290 289 289 289 289 290 287 286 287 287 287 287 287 286 286 286
294 294 293 293 293 292 292 292 293 292 292 292 291 290 288 287 286 286 287 286 286 288 287 289 289 289 288 287 287 287 287 287 287 286 285 286 285 285 285 285 284 283 283
294 293 293 292 292 292 291 291 290 289 287 285 285 285 286 287 286 285 285 285 286 287 287 286 287 287 287 287 286 286 286 286 286 285 284 285 285 286 286 286 284 285 286
293 292 292 291 290 289 287 285 285 284 284 285 285 286 287 288 287 286 285 284 284 285 284 284 284 284 285 285 284 285 286 285 285 285 284 284 285 285 285 285 285 285 285
292 291 289 288 287 288 286 284 284 284 284 284 284 285 285 287 286 286 285 284 284 285 284 284 282 281 280 281 280 282 283 284 284 285 284 284 285 284 286 286 285 285 285

GFSMA_925_thetae_063.txt.gz
Theta_e
335 333 330 326 327 327 329 330 331 330 331 330 329 328 326 325 324 323 321 320 320 316 317 332 333 330 328 325 323 322 320 319 317 319 317 317 316 318 319 320 320 320 320
335 335 333 331 327 327 328 329 332 334 334 333 333 331 330 330 330 328 325 323 323 323 318 317 327 331 330 326 325 323 322 321 319 318 318 318 316 316 317 317 318 318 319
335 334 334 333 333 331 330 331 332 333 334 334 334 334 333 332 332 331 328 326 325 324 325 322 316 324 330 329 327 326 324 322 320 319 318 318 317 316 316 316 317 317 317
336 336 335 335 335 335 334 334 334 334 334 334 334 333 333 333 333 333 332 331 329 327 326 325 325 318 322 329 329 328 327 325 322 321 319 318 317 317 316 316 316 316 316
336 336 337 336 336 336 336 336 335 335 335 335 334 334 334 334 334 334 333 332 332 330 327 326 324 324 321 318 326 328 328 327 325 322 321 319 318 317 316 315 315 315 315
336 336 337 337 337 337 336 336 336 336 335 335 334 335 334 334 333 333 332 331 330 330 329 325 324 324 324 322 318 325 327 327 326 325 323 321 319 318 316 315 315 315 315
337 337 337 337 336 336 336 336 336 334 334 335 334 334 334 333 333 331 330 328 328 327 325 325 324 323 323 322 321 321 324 326 326 326 325 323 321 319 318 316 315 314 314
337 337 337 337 336 336 336 336 335 335 334 334 334 333 333 331 329 328 327 327 326 325 323 321 321 321 320 320 321 321 321 324 325 325 325 325 324 322 320 318 316 315 315
338 337 337 336 335 336 335 335 335 334 334 333 332 332 333 331 328 326 326 325 323 322 321 319 319 319 319 318 319 318 318 318 320 323 324 324 324 323 321 320 317 316 315
329 327 328 331 332 333 333 333 332 331 331 332 331 331 329 329 328 328 325 325 324 320 320 319 318 317 316 316 315 314 313 312 311 313 320 322 322 322 322 319 319 317 316
314 315 314 316 317 320 323 323 325 325 325 326 327 328 326 326 326 326 326 324 325 322 320 320 317 316 314 314 313 312 312 312 312 312 315 317 319 321 321 322 322 317 316
317 317 314 316 317 318 320 322 322 322 321 321 322 323 325 325 322 322 322 322 323 322 320 319 316 314 312 311 310 310 310 310 310 311 313 316 317 319 319 320 321 319 318
316 317 315 315 315 316 316 317 319 320 319 320 320 320 321 323 324 324 321 319 319 319 318 317 312 311 309 309 309 308 308 308 308 308 308 311 313 313 315 316 316 318 320
315 315 313 312 312 312 313 314 316 318 318 320 320 322 322 323 323 323 322 319 318 318 317 316 311 308 307 307 308 307 306 307 307 306 306 307 307 308 309 311 313 316 317
311 310 309 310 310 309 310 312 315 316 317 318 318 320 321 320 320 319 318 319 319 318 318 315 311 307 306 305 305 304 303 303 303 304 304 305 306 305 306 309 312 312 313
308 308 307 307 307 307 309 311 312 312 313 313 314 314 314 314 315 315 315 315 315 315 315 311 307 305 304 302 301 301 300 300 300 301 301 302 305 307 307 308 309 309 309
306 305 305 305 305 305 306 309 308 309 310 310 310 310 310 309 309 309 309 309 309 310 311 307 306 303 302 301 299 298 297 298 298 298 299 301 303 303 303 303 304 304 304
304 303 303 303 303 303 304 306 306 306 307 307 306 306 305 305 305 305 305 305 305 304 306 307 301 299 298 297 296 296 296 296 297 297 298 299 300 300 300 300 300 300 300
303 302 301 301 301 300 301 302 302 302 302 302 301 301 301 302 301 301 301 301 300 300 299 300 298 297 296 296 294 294 294 295 294 294 294 295 297 298 298 298 298 298 298
302 301 300 299 298 298 298 298 299 299 298 298 297 298 297 298 298 297 297 297 297 298 298 298 297 296 294 293 293 293 295 295 294 292 292 291 291 292 293 293 294 295 295
300 299 298 297 297 296 296 296 297 297 296 296 295 295 295 295 295 295 295 295 295 295 295 296 297 296 295 294 293 292 292 292 292 290 288 290 288 289 290 289 289 289 290
297 297 297 296 296 295 295 295 295 296 295 294 293 293 293 293 292 292 291 291 291 292 292 293 294 295 294 291 290 289 289 289 290 288 286 286 287 287 287 287 286 286 284
296 296 295 295 295 294 294 294 294 293 294 293 292 292 290 288 287 287 286 286 288 286 288 289 290 289 289 288 287 287 288 288 288 287 285 286 286 286 286 286 286 285 285
295 294 294 294 293 292 292 292 293 292 292 290 288 286 287 287 286 286 286 286 287 288 287 287 288 288 287 287 287 287 286 286 286 286 284 285 286 286 286 286 286 285 285
294 293 293 293 292 291 290 288 286 285 284 285 285 287 288 289 288 286 286 285 285 286 285 284 284 284 284 284 285 285 286 285 286 285 284 284 286 285 286 286 286 285 285
293 292 292 292 290 289 287 285 285 285 285 285 285 287 285 287 287 286 286 285 285 285 285 285 283 282 281 282 281 282 283 284 285 286 284 284 285 285 285 287 286 286 286

GFSMA_925_thetae_066.txt.gz
Theta_e
334 332 329 327 329 329 329 330 331 330 330 330 329 328 327 326 325 324 323 322 321 322 319 324 332 331 329 327 324 322 321 320 317 316 315 315 314 316 319 320 320 320 320
335 335 333 329 326 326 327 328 329 332 333 333 333 332 331 330 330 329 328 325 324 324 324 320 322 332 331 329 326 324 323 321 320 318 317 316 314 314 316 317 317 319 319
335 335 334 333 332 330 328 329 331 332 333 333 333 333 333 333 332 332 331 330 328 326 325 325 324 321 330 331 330 328 326 323 322 321 319 318 316 314 314 315 317 318 317
336 335 334 333 334 334 333 332 332 333 333 333 334 333 333 333 333 333 333 332 332 330 328 326 326 325 324 329 330 330 329 327 324 322 321 320 318 316 315 315 315 316 316
336 335 336 335 335 335 335 335 335 335 335 334 333 333 333 333 334 334 334 333 332 332 331 329 328 325 323 323 326 329 329 328 327 325 322 321 320 318 317 316 316 316 316
337 336 336 336 337 336 335 335 335 335 334 335 334 334 333 333 334 333 333 333 332 330 329 328 327 325 324 324 323 323 326 328 327 326 325 323 321 320 319 317 316 315 316
337 336 336 337 336 335 335 335 335 334 333 332 333 334 333 333 333 333 332 332 329 328 327 326 324 324 323 323 322 321 322 326 327 326 325 325 323 321 320 319 318 316 315
337 337 337 337 335 336 335 335 335 335 334 333 333 332 330 329 329 328 330 329 327 327 324 323 321 321 320 320 319 320 320 321 325 326 325 324 324 324 323 321 320 318 316
337 337 336 336 335 335 335 335 335 335 334 333 332 331 330 328 326 326 327 326 325 323 322 320 320 319 319 319 318 318 318 318 318 318 322 324 324 323 323 323 321 319 318
338 337 336 335 334 333 332 332 331 331 331 331 331 331 330 330 328 325 324 325 325 323 320 320 319 317 316 315 315 315 315 313 313 312 315 318 320 321 322 323 323 322 319
322 320 319 317 318 319 321 324 324 325 324 325 324 324 326 325 324 326 324 322 324 324 323 320 318 315 314 314 313 313 311 312 312 312 315 317 318 320 321 321 322 322 321
316 315 315 314 315 317 318 320 321 322 322 322 320 320 320 322 323 323 321 320 321 322 321 318 316 316 313 312 310 310 310 310 309 309 312 315 316 315 315 316 318 320 320
316 316 316 315 315 315 315 315 315 317 320 319 318 319 319 319 320 323 321 321 319 321 320 314 314 312 310 310 308 307 308 308 307 307 309 310 308 309 311 312 314 315 317
316 316 316 313 312 312 312 312 313 314 318 317 319 320 321 321 321 322 322 320 318 317 318 313 309 309 309 308 307 306 306 305 305 304 305 305 306 306 307 307 308 312 313
314 313 311 310 310 309 309 309 311 314 315 317 315 316 317 318 319 321 320 320 319 317 315 313 308 307 306 306 306 305 304 302 302 303 302 304 306 305 307 308 312 312 312
310 309 308 308 308 308 308 308 310 311 312 313 313 313 314 314 314 316 315 316 316 316 315 311 307 305 303 302 302 301 300 299 299 300 300 301 303 305 306 308 308 308 308
308 307 307 306 306 306 306 307 309 308 309 309 310 310 310 310 309 310 311 311 311 311 311 306 305 302 301 300 299 298 297 297 297 297 298 299 301 303 303 304 304 304 305
306 305 304 304 304 304 304 305 306 306 307 307 306 306 306 306 306 306 306 305 306 305 307 306 302 300 298 297 296 295 295 295 295 296 297 297 299 300 300 300 301 301 301
304 303 303 302 301 301 302 303 303 303 303 303 303 303 302 303 302 302 303 302 302 301 301 302 299 298 296 296 294 293 294 295 294 293 293 293 295 296 296 297 298 298 298
302 302 301 300 299 299 299 300 300 300 300 300 299 299 299 299 299 298 298 297 297 298 298 298 298 296 295 294 292 293 294 293 293 292 291 291 290 291 291 291 292 293 294
301 300 300 299 298 297 297 297 298 298 298 297 296 296 296 296 296 296 296 296 296 296 296 296 297 296 295 294 292 292 290 290 290 290 288 288 287 287 288 288 289 289 289
299 299 298 297 297 296 295 296 297 297 296 295 295 294 294 293 292 292 292 292 293 293 293 295 294 294 294 291 289 289 288 288 288 287 287 286 286 286 286 285 285 285 284
298 297 297 296 295 295 295 295 295 295 295 294 294 292 291 290 289 287 286 288 286 287 290 289 289 289 288 288 287 287 288 287 287 287 286 284 286 286 286 286 286 286 286
297 296 295 295 294 294 293 293 294 293 293 292 291 288 287 287 285 286 286 286 287 287 287 288 288 288 287 287 287 286 286 286 286 286 285 284 285 286 286 286 286 286 285
295 295 294 294 293 293 291 290 290 290 288 286 285 287 288 289 288 286 286 285 285 286 285 284 284 284 284 284 285 285 285 286 285 284 284 284 285 285 285 286 286 286 286
294 294 293 293 292 291 289 286 285 285 285 286 286 287 287 288 287 286 286 285 284 285 285 285 283 282 282 281 281 281 283 283 285 285 284 284 284 284 284 286 286 286 286

GFSMA_925_thetae_069.txt.gz
Theta_e
330 328 328 329 329 330 329 330 331 330 330 330 329 328 328 328 327 326 324 322 322 322 322 321 332 331 330 327 325 323 321 320 318 315 313 312 313 316 318 319 320 320 320
334 331 330 327 326 327 328 328 329 329 331 332 332 332 332 330 330 330 330 329 327 326 325 324 322 331 333 330 328 325 324 323 322 320 315 314 312 312 314 316 317 319 319
335 335 333 332 329 326 326 327 328 330 332 333 333 333 333 333 333 332 331 331 330 330 329 328 326 324 328 331 331 331 328 325 323 322 320 319 317 313 313 315 317 318 318
335 335 334 333 332 332 331 330 330 330 332 333 333 333 333 333 332 332 332 332 332 332 331 330 328 327 325 326 330 330 329 329 327 324 322 320 319 318 314 314 316 317 317
336 335 334 334 333 334 334 334 334 334 334 334 332 332 332 333 332 333 333 333 333 332 330 327 328 328 326 324 324 327 329 328 327 327 325 323 321 319 318 316 315 316 316
337 336 335 336 335 335 334 334 333 333 333 332 333 331 331 331 332 332 333 333 333 332 330 328 327 327 325 324 323 323 324 327 327 326 326 325 323 321 320 319 317 316 316
337 337 336 336 335 334 334 333 333 334 334 332 332 333 332 331 330 329 328 331 333 329 327 326 325 323 323 323 322 321 321 324 327 327 326 324 325 323 322 321 319 318 317
337 336 336 336 336 334 334 334 334 333 332 330 331 332 329 328 328 328 327 328 330 326 324 323 322 321 321 320 320 320 320 320 320 320 322 324 324 325 324 323 322 320 318
338 337 337 336 335 335 334 333 333 332 333 331 331 331 328 327 326 326 327 327 325 324 323 322 320 319 319 319 318 318 318 318 317 317 318 319 321 323 323 323 325 323 320
337 336 336 336 335 334 333 333 332 331 331 329 330 329 331 330 327 325 324 324 324 324 323 321 320 320 318 316 316 315 315 315 313 314 318 319 319 320 321 322 322 323 322
337 337 335 334 330 328 326 323 323 324 325 325 325 325 323 323 324 323 321 322 321 323 322 320 319 317 316 315 314 313 312 312 312 313 315 316 318 318 318 318 320 321 321
328 318 315 314 314 315 316 317 319 320 321 321 322 321 319 320 321 322 320 320 320 320 322 318 315 314 313 313 311 311 310 310 309 310 312 313 314 313 314 315 316 318 319
315 315 315 315 314 314 315 315 315 315 316 318 320 318 317 318 318 318 320 320 319 320 317 313 312 312 311 310 309 308 308 308 307 307 309 309 307 306 307 308 309 311 315
315 316 316 316 314 312 312 311 311 311 313 315 318 317 317 319 321 321 321 320 316 317 317 310 308 308 308 307 306 307 306 306 305 304 305 306 306 305 305 306 308 310 311
315 315 315 313 311 310 310 309 309 310 313 316 316 315 313 315 316 316 317 320 319 317 317 308 306 305 305 305 305 304 303 302 302 302 302 303 305 308 309 310 310 310 310
314 313 310 309 309 308 308 308 308 310 311 312 313 312 312 314 314 315 316 316 317 317 315 309 305 304 303 303 303 302 301 298 299 299 300 301 302 304 305 307 308 308 309
311 309 308 308 307 307 306 306 308 308 309 309 310 310 311 311 310 310 311 312 311 312 312 305 304 301 301 301 301 299 297 297 297 297 298 298 300 302 304 305 305 306 306
308 307 306 306 305 305 305 305 306 306 307 307 307 307 307 307 307 307 307 308 307 307 308 305 301 300 301 300 297 295 295 296 295 295 296 296 297 299 300 301 301 301 301
306 305 304 304 303 303 302 303 303 304 305 306 305 305 305 305 305 305 304 304 303 302 302 303 299 298 298 296 295 294 294 294 293 292 292 292 293 295 297 297 298 299 298
304 303 302 301 301 301 300 300 301 301 302 301 301 301 301 301 301 300 300 300 298 299 299 300 298 297 296 294 293 293 294 292 292 291 290 291 290 290 291 291 292 292 294
302 301 301 300 300 299 298 298 298 299 300 299 298 298 297 297 297 297 297 297 297 297 297 298 297 296 295 294 292 292 290 289 289 289 288 287 287 287 288 288 288 288 287
300 300 300 299 299 298 297 296 297 298 297 297 296 295 295 294 294 294 295 294 295 295 296 296 295 294 293 292 290 289 288 287 288 287 287 285 286 286 285 285 285 286 286
299 299 298 298 297 296 296 296 296 296 296 295 294 293 293 292 290 289 289 288 289 289 291 292 291 290 290 289 288 287 287 287 286 286 286 284 285 286 286 286 286 286 286
297 297 297 296 295 295 295 294 295 295 294 294 293 292 288 286 285 286 286 287 287 287 287 288 288 288 288 287 287 286 286 286 286 285 285 284 285 286 286 286 286 286 286
296 296 296 295 294 294 293 292 293 293 293 292 289 287 288 288 287 286 286 285 286 286 285 284 285 285 285 285 285 285 286 286 284 284 284 284 284 285 285 286 286 286 286
295 295 295 294 294 293 293 290 288 288 286 285 286 287 288 288 289 286 286 285 284 285 285 285 284 283 282 282 282 281 283 283 284 284 284 284 284 283 284 286 286 286 286

GFSMA_925_thetae_072.txt.gz
Theta_e
329 327 327 329 329 330 329 331 330 331 330 329 329 329 328 328 328 328 327 325 323 323 323 323 330 331 330 329 327 324 324 322 320 317 313 312 312 316 319 320 321 321 320
329 327 328 328 328 328 328 328 329 330 329 330 331 331 331 331 331 330 330 330 329 329 328 327 325 328 332 331 330 327 326 325 323 321 318 316 313 312 314 316 319 320 320
334 334 330 329 326 326 326 327 327 328 330 332 332 332 332 332 333 332 332 331 331 330 330 330 329 327 327 328 331 330 329 327 325 324 321 320 318 314 312 314 318 318 319
335 335 333 332 331 328 327 326 327 329 330 331 332 333 333 332 331 330 331 331 332 332 332 329 330 327 327 327 329 330 329 328 328 326 325 322 320 319 316 313 316 317 318
336 335 334 333 333 332 332 331 332 332 333 333 333 331 331 331 331 331 330 331 332 333 332 331 329 328 326 326 324 326 328 328 327 326 327 325 323 321 319 317 316 316 318
336 336 334 334 333 333 334 334 332 332 332 332 332 330 330 329 329 329 331 331 331 332 332 330 329 327 326 324 323 323 323 324 326 326 325 326 325 323 322 320 318 316 317
337 337 336 335 335 335 334 333 333 333 333 331 331 330 329 329 330 328 329 329 329 330 331 328 327 325 323 323 323 322 321 321 321 322 322 324 324 325 323 323 321 320 318
336 336 336 336 335 335 334 334 334 334 333 330 330 330 326 327 328 328 328 328 327 328 326 324 324 322 321 321 321 320 320 320 319 319 320 320 323 323 325 324 324 322 320
336 336 336 336 335 335 334 334 332 332 332 331 329 331 327 325 324 326 326 326 325 324 323 322 321 320 320 319 319 319 318 318 317 317 319 320 320 321 322 322 324 325 323
336 336 337 336 335 335 334 334 333 332 331 330 330 329 329 330 327 325 324 324 323 322 321 319 318 318 318 318 317 316 315 314 314 316 318 319 319 320 320 321 321 322 323
336 336 336 336 335 334 334 333 333 327 324 324 324 324 323 322 322 323 323 321 321 321 321 319 317 317 316 315 314 313 313 312 312 313 315 315 315 317 318 317 318 319 321
333 334 334 333 332 327 319 316 315 316 318 319 320 321 321 319 318 319 317 317 319 319 320 319 316 314 313 312 312 311 310 310 310 311 312 312 312 312 313 313 314 316 318
328 326 320 316 314 313 313 313 314 314 315 316 317 319 319 317 317 318 318 317 317 319 315 313 312 311 311 311 310 309 309 308 308 307 307 309 308 305 305 306 309 313 315
329 322 315 314 315 314 313 313 312 312 312 312 313 316 318 317 317 318 319 318 317 317 315 310 309 309 308 308 307 307 308 308 307 304 304 305 307 309 306 306 308 311 312
316 316 315 316 315 313 311 310 310 309 310 311 313 316 314 314 313 315 316 316 319 318 316 308 306 306 306 305 305 304 304 304 303 302 302 302 304 306 310 311 310 309 310
315 315 314 313 311 310 309 309 308 308 309 311 312 314 313 312 313 313 313 315 316 317 315 308 305 303 303 302 303 302 302 303 299 299 300 300 302 303 305 307 307 308 310
313 313 310 309 308 308 307 307 307 308 309 309 310 310 310 311 311 312 311 312 312 313 312 304 303 302 300 300 300 299 300 298 297 297 298 298 300 302 303 304 305 307 307
311 310 308 307 306 306 305 305 305 307 307 307 307 307 308 308 307 308 307 307 307 307 309 304 300 299 300 299 299 299 297 296 296 295 296 296 297 298 300 301 302 303 303
308 307 306 305 305 304 304 303 303 304 305 306 306 306 305 305 305 305 305 305 305 305 304 304 300 299 298 297 297 296 295 294 293 293 293 292 293 295 296 297 298 299 299
306 305 304 303 303 302 302 301 301 302 302 302 303 303 303 303 303 302 302 302 302 301 300 301 299 297 297 295 295 293 294 293 292 291 290 291 290 291 291 292 292 293 295
304 303 302 301 301 300 300 299 299 299 300 300 300 300 299 298 298 298 298 298 298 298 298 298 297 296 295 294 293 293 291 290 290 289 288 287 287 287 287 288 288 287 286
302 301 301 300 300 299 300 299 297 298 298 298 298 297 297 296 296 296 296 296 296 296 297 297 296 295 294 293 292 289 288 287 287 287 286 285 285 285 285 285 286 286 286
300 300 299 299 298 298 297 297 297 297 297 297 296 296 295 294 292 291 291 291 291 293 294 295 294 293 292 292 290 288 287 287 286 286 285 284 285 285 286 286 286 286 286
299 298 298 298 297 297 297 296 296 295 296 295 295 294 293 292 289 287 287 287 287 287 288 289 289 289 289 289 288 287 286 285 285 285 284 284 284 285 286 285 286 286 286
297 297 297 297 296 296 295 294 294 294 294 294 293 292 288 286 287 286 286 286 286 286 285 285 286 287 287 286 286 286 286 286 284 284 284 284 284 285 285 286 286 286 286
296 296 296 296 296 295 294 293 292 292 292 292 290 287 288 288 289 288 286 285 285 285 285 285 284 283 282 282 282 282 283 284 284 284 284 284 284 284 284 286 285 285 286

GFSMA_925_thetae_078.txt.gz
Theta_e
332 330 331 329 327 324 321 319 324 327 328 328 328 328 328 328 328 328 328 329 329 328 325 325 327 329 331 330 330 329 327 325 324 322 320 317 313 311 314 317 317 318 319
333 332 331 329 327 325 325 324 329 329 329 329 329 330 330 331 331 331 331 331 331 330 329 328 326 328 329 329 328 329 328 327 326 326 325 322 320 316 311 313 314 316 317
329 329 329 327 327 327 328 328 328 327 328 328 330 331 331 331 331 331 331 329 328 329 329 330 329 328 328 327 327 327 329 328 327 326 326 324 324 322 318 314 312 316 317
329 329 330 329 327 327 327 327 327 326 326 327 329 330 332 332 330 329 328 328 328 328 327 329 330 331 329 327 327 328 328 328 327 326 326 326 324 324 323 320 315 315 317
332 330 331 333 330 329 327 325 325 325 327 330 331 332 330 329 329 329 328 328 328 329 329 329 331 331 330 327 326 326 327 325 326 324 324 324 326 325 323 322 321 316 318
335 332 332 333 333 331 330 329 329 329 331 332 331 330 329 329 329 328 328 327 327 327 328 328 328 331 329 326 326 325 323 324 323 322 321 322 322 323 326 324 322 321 318
336 336 333 333 333 332 332 332 332 332 331 330 330 330 329 328 328 327 327 327 326 326 328 328 327 330 328 326 326 322 322 322 321 320 319 319 319 321 322 324 325 323 321
336 337 335 335 334 333 332 332 333 333 331 331 332 329 324 325 325 326 326 325 325 325 326 326 327 326 325 324 321 321 321 320 319 319 319 319 320 320 321 323 324 325 324
335 334 335 334 334 333 334 334 334 332 333 330 330 330 324 322 322 326 325 324 324 324 324 324 325 323 322 321 320 319 319 318 317 319 320 319 319 320 321 321 322 322 323
333 333 333 333 333 333 334 332 332 332 331 331 330 330 330 328 326 321 322 322 323 322 321 321 320 320 320 319 318 318 316 315 315 317 317 317 316 316 317 319 320 320 319
332 332 332 333 332 331 329 329 329 330 330 329 329 328 324 323 322 321 317 317 319 319 320 319 317 317 317 317 316 315 313 313 313 314 315 314 314 314 314 314 315 317 317
330 330 330 331 328 326 325 322 322 321 328 328 321 318 318 318 315 315 314 314 315 317 318 318 318 315 315 314 314 313 312 312 311 310 312 312 311 311 312 312 313 313 314
330 330 329 329 327 325 326 325 325 323 317 316 315 316 316 317 318 318 316 314 313 316 315 315 316 314 312 312 311 311 311 310 309 308 309 308 308 308 311 309 310 311 313
330 330 329 326 324 325 323 318 314 314 313 312 312 311 312 312 315 316 315 314 314 314 314 315 313 311 310 309 308 309 308 308 308 307 305 306 306 305 309 309 309 312 310
330 328 326 326 324 318 315 314 313 312 311 310 309 309 311 312 314 315 314 311 312 312 313 310 311 309 307 307 306 307 306 305 305 305 302 303 303 304 306 309 310 311 312
326 325 322 319 317 315 314 313 311 310 309 308 308 309 310 311 313 312 312 311 310 310 311 311 309 308 306 305 304 304 304 304 303 301 301 300 301 302 303 305 306 306 307
323 323 320 316 314 313 312 309 308 308 307 307 307 308 308 309 309 310 310 310 310 311 311 307 306 303 304 303 302 303 302 301 301 299 299 299 299 300 301 303 304 305 305
316 315 315 314 311 310 308 308 307 306 306 305 306 306 306 307 307 308 308 308 307 307 307 305 303 302 301 300 300 300 299 298 298 298 297 297 298 299 299 300 302 302 303
313 312 312 310 309 308 306 305 305 304 304 304 304 304 305 306 305 305 305 304 304 304 304 305 301 300 299 299 298 297 297 297 296 295 295 294 295 296 297 297 299 298 299
311 310 308 307 306 305 304 303 303 302 301 301 301 302 302 303 303 302 302 302 302 302 302 301 301 299 298 297 296 296 295 295 294 292 292 292 292 293 293 293 293 294 296
308 307 306 305 304 303 302 301 301 300 299 299 299 299 300 300 300 300 300 300 300 300 299 299 299 297 296 294 294 294 294 293 292 291 291 290 290 289 289 290 289 288 288
305 305 304 303 303 302 301 300 300 299 298 298 298 298 298 298 298 297 297 297 297 297 297 297 297 297 296 295 294 294 292 290 289 289 288 287 287 286 286 287 286 286 286
304 303 302 302 301 300 300 299 298 298 298 297 297 297 297 296 296 295 294 294 294 294 295 295 296 295 295 295 294 291 290 288 287 286 286 285 285 285 285 285 286 286 286
303 302 301 300 300 299 299 298 298 297 297 296 296 296 295 295 294 292 290 289 288 288 290 292 294 294 293 292 292 290 289 287 286 285 285 285 284 285 285 285 285 286 286
301 301 300 299 299 298 298 297 297 296 295 295 295 295 294 293 292 290 287 286 286 286 286 287 288 288 288 288 288 287 286 285 285 284 284 284 283 284 285 285 286 287 286
301 300 299 298 298 298 297 296 296 295 294 294 293 293 293 292 288 289 287 286 286 286 285 285 285 285 286 286 285 285 285 285 284 283 284 284 284 284 284 285 285 286 286

GFSMA_925_thetae_081.txt.gz
Theta_e
326 324 323 324 323 321 320 320 320 321 323 327 328 328 328 328 329 329 329 329 329 329 328 327 326 330 330 330 329 327 327 327 326 326 324 321 318 314 312 313 315 317 319
330 328 329 330 328 325 322 320 324 328 329 329 328 329 330 330 331 331 331 331 330 330 330 329 328 328 330 331 328 329 327 328 327 326 325 325 324 322 318 313 312 315 316
332 332 332 330 328 327 325 326 327 329 328 328 328 330 331 330 331 331 330 330 328 328 327 328 329 329 330 330 330 327 327 326 326 327 327 325 324 324 323 321 314 313 315
331 330 329 329 327 327 327 328 328 327 326 326 328 329 330 331 330 329 329 328 328 327 328 328 328 329 330 331 330 328 327 327 326 325 325 326 326 325 323 322 321 315 314
331 328 329 330 329 327 326 326 326 326 325 327 329 331 331 330 329 329 329 328 328 328 328 328 328 330 331 330 328 328 326 325 325 324 322 322 324 326 326 323 322 321 316
329 327 330 331 330 329 329 326 325 325 327 331 331 331 329 329 329 328 328 327 327 326 326 327 328 328 329 330 327 325 325 323 323 322 321 321 321 321 322 326 324 322 321
333 332 333 332 331 332 331 329 329 328 329 330 330 330 330 328 328 328 326 326 325 323 325 327 328 326 328 329 326 325 323 323 322 320 319 319 319 319 321 324 324 325 323
334 334 334 333 332 333 332 331 330 331 332 331 331 329 330 328 325 326 325 325 324 324 325 325 324 325 326 326 326 323 321 320 320 320 319 318 318 320 322 323 323 323 324
335 333 334 333 332 332 332 332 331 332 332 332 330 329 328 329 325 325 324 323 323 323 323 323 323 324 324 324 322 320 319 319 318 320 320 319 319 319 320 320 321 321 322
333 333 333 332 331 331 331 331 332 331 330 331 329 329 328 328 328 327 321 321 321 321 321 321 320 321 321 320 319 318 317 317 316 319 318 318 317 316 316 316 318 320 320
332 331 332 331 331 331 329 326 326 327 327 329 329 328 327 326 323 322 320 319 318 318 317 319 319 317 317 317 316 316 315 314 317 317 316 315 314 314 314 315 315 316 317
330 331 331 330 330 330 328 324 324 324 323 325 324 323 319 318 317 318 318 317 316 316 316 316 316 317 315 315 314 314 313 313 313 313 313 313 311 310 311 314 313 314 314
330 330 330 330 329 326 324 324 324 322 323 322 318 315 315 316 317 317 316 315 315 314 314 314 314 315 314 312 312 312 312 311 310 310 310 310 308 307 309 312 310 312 312
330 329 329 329 327 327 325 324 323 324 318 314 313 312 312 312 313 314 315 314 314 314 313 314 313 313 313 312 310 309 309 308 309 308 307 307 306 305 309 311 311 312 312
329 329 329 329 328 326 325 323 319 314 313 312 311 310 310 310 311 312 313 313 313 312 312 312 312 311 309 308 308 308 307 306 307 307 306 305 303 304 306 308 309 310 310
328 327 328 327 324 320 317 314 313 312 310 309 309 309 309 310 310 312 312 311 311 311 311 310 310 310 308 307 306 306 305 304 304 303 302 301 301 302 303 304 306 306 306
325 325 324 322 320 316 313 312 310 309 309 308 308 308 308 308 308 309 309 309 309 309 309 308 308 307 305 304 304 303 302 302 302 301 300 300 299 300 301 302 303 304 305
321 321 320 319 316 313 311 309 308 307 306 306 306 306 306 306 307 307 307 307 308 308 307 308 305 304 302 302 301 301 300 300 299 298 297 298 298 299 299 299 302 303 303
315 315 315 313 311 309 308 307 306 305 305 304 304 304 304 305 305 305 305 305 305 304 304 304 303 302 301 300 299 298 298 297 297 296 296 296 295 296 297 296 298 299 300
312 311 310 309 308 307 306 305 304 303 302 302 302 302 302 303 303 303 303 302 302 302 302 301 301 300 299 298 297 297 296 296 295 294 293 293 293 294 294 293 293 295 296
309 308 307 306 305 304 304 303 302 301 300 300 300 299 300 300 300 300 301 300 300 300 300 300 299 298 297 296 296 296 295 295 294 294 292 291 291 290 291 291 289 289 289
307 306 306 305 304 303 302 302 301 300 299 298 298 298 298 299 299 298 298 298 298 297 297 297 298 297 297 296 295 295 294 292 294 292 290 289 289 287 287 287 286 286 286
305 304 304 303 302 301 301 300 300 299 299 298 297 297 297 297 297 296 296 295 295 295 295 296 296 296 296 296 295 293 292 291 289 287 287 286 286 285 285 285 286 286 287
304 303 303 302 301 301 300 299 298 297 297 297 297 297 297 296 295 295 293 291 292 291 292 293 294 295 295 294 294 293 292 290 287 286 286 286 284 284 285 285 285 286 287
303 303 302 301 300 300 299 298 297 297 297 296 296 296 296 295 294 293 291 288 287 287 287 287 289 291 291 291 291 290 289 287 286 285 285 284 284 284 285 285 285 287 286
302 301 300 300 299 299 298 297 297 296 295 295 294 294 294 294 293 291 289 286 286 286 286 287 287 288 288 287 287 287 286 286 285 285 284 284 284 284 285 285 285 286 286

GFSMA_925_thetae_084.txt.gz
Theta_e
331 330 329 329 328 328 326 326 325 324 324 325 328 328 328 329 329 328 329 329 329 329 329 326 327 328 330 329 329 328 326 326 326 326 326 325 322 319 315 312 314 316 317
329 328 327 328 328 327 326 325 324 325 326 329 330 330 330 331 331 331 331 331 330 330 330 329 328 327 329 332 332 330 327 327 326 327 326 325 325 324 322 319 313 312 314
332 331 330 332 331 330 328 326 324 329 331 330 330 330 331 332 331 332 332 331 331 329 328 328 327 328 328 330 331 329 327 326 325 326 327 327 326 324 323 322 320 314 312
335 334 334 334 333 330 329 329 329 330 329 329 329 331 331 332 332 331 331 331 330 330 330 329 328 328 328 329 330 329 328 327 324 324 325 324 326 326 325 323 322 321 316
336 334 332 332 333 330 329 329 330 329 328 328 329 331 332 332 331 331 330 330 330 330 330 329 328 328 328 329 330 329 329 326 324 323 323 322 322 324 325 326 324 322 321
337 335 331 332 332 331 329 329 328 328 328 329 331 331 332 331 331 331 330 329 329 329 327 327 329 330 329 328 330 329 327 326 323 323 322 320 320 320 322 324 324 325 323
332 333 330 332 332 332 331 330 329 328 329 331 333 330 330 331 330 329 328 326 326 325 326 327 329 329 329 327 329 327 325 325 322 322 320 319 319 319 321 324 325 324 325
333 333 332 332 332 331 333 331 329 330 331 332 331 332 330 329 327 326 327 326 325 324 325 324 325 326 327 328 328 324 324 322 322 321 320 320 320 321 321 322 322 323 321
333 333 333 332 332 329 333 333 332 332 333 332 330 330 330 329 327 326 326 325 323 323 324 323 322 322 323 323 324 322 320 319 320 322 321 319 319 319 319 319 320 321 321
331 332 330 331 332 332 330 331 331 332 332 331 330 329 331 329 328 325 323 322 322 319 320 321 320 319 320 320 320 319 318 318 318 320 319 319 317 316 316 316 317 317 320
327 330 332 331 328 330 330 331 330 329 329 328 327 327 328 330 328 327 320 318 319 319 319 318 318 317 316 317 317 317 316 316 318 318 317 316 315 314 313 314 314 315 316
327 328 328 330 331 331 330 329 328 324 324 322 322 322 324 323 321 320 321 318 318 318 317 317 316 315 315 314 314 314 314 315 315 314 314 314 312 309 311 313 314 314 315
328 325 326 329 330 330 329 328 325 324 323 323 323 323 322 319 318 318 318 318 317 316 315 315 314 313 313 313 313 313 313 312 312 312 312 311 310 307 309 312 312 311 313
329 328 329 330 330 329 327 325 324 323 323 322 322 318 317 317 317 317 316 316 317 315 315 314 313 312 311 310 311 311 310 311 309 309 309 308 308 307 306 310 312 313 312
330 328 328 329 328 328 326 325 324 323 323 321 316 313 312 311 311 314 315 315 315 316 315 313 313 310 309 308 308 308 308 307 306 307 306 306 305 304 305 307 308 309 310
326 326 326 327 327 327 325 324 323 321 318 313 311 310 311 313 312 313 313 314 314 314 314 312 312 309 308 308 308 307 306 305 304 304 303 303 302 302 303 304 305 306 306
326 325 324 325 325 323 322 321 318 314 311 310 309 310 311 310 311 311 312 311 311 312 312 310 309 309 308 306 305 304 303 303 302 302 301 300 300 300 301 302 302 303 304
320 322 324 323 321 318 316 314 312 311 309 308 308 308 309 308 309 309 310 309 309 309 309 309 307 306 305 303 302 301 301 301 300 300 298 298 298 299 299 299 298 301 303
318 318 317 316 315 315 313 311 310 309 307 307 306 306 306 306 307 307 307 308 307 306 306 306 306 303 302 301 300 299 299 298 298 298 297 297 296 297 298 297 297 298 299
313 314 312 312 312 310 309 308 307 306 305 304 304 304 304 304 306 306 306 305 305 304 304 304 304 301 300 299 299 298 297 297 297 295 295 294 295 295 295 296 293 294 296
310 310 310 309 309 308 307 306 305 303 303 302 302 301 302 302 302 302 302 303 302 302 301 301 300 299 298 297 297 297 296 296 295 294 292 292 291 290 293 292 290 289 289
308 307 307 307 305 305 305 304 304 302 301 301 301 300 299 300 300 300 300 300 299 300 299 298 299 299 298 298 297 296 295 293 294 293 292 293 290 289 288 288 288 287 286
306 305 304 303 303 302 303 302 302 301 300 300 299 298 298 298 298 297 297 297 297 297 297 297 297 297 297 297 297 294 294 293 294 289 289 290 287 287 286 286 286 286 287
304 304 303 302 302 301 302 301 300 300 299 299 298 297 298 298 297 296 296 295 293 293 292 293 295 295 295 295 295 294 293 293 290 289 287 289 285 286 285 285 285 286 287
302 302 302 302 301 300 300 299 299 298 296 297 297 296 296 296 296 295 294 291 290 289 288 288 290 292 293 293 293 291 291 291 290 288 286 286 285 286 286 286 287 288 287
302 301 301 301 301 300 300 299 298 297 296 295 295 295 296 296 295 294 293 291 290 289 289 289 288 288 289 289 289 289 290 291 289 288 285 286 285 286 287 286 286 287 287

GFSMA_925_thetae_090.txt.gz
Theta_e
332 334 332 330 329 325 328 328 329 327 326 325 324 324 324 323 326 326 327 328 328 328 328 328 328 329 330 331 330 329 328 325 325 325 325 325 324 324 322 321 319 313 311
332 332 332 330 331 329 329 329 328 326 325 324 325 326 327 328 330 330 330 330 330 329 328 328 328 328 328 330 332 330 330 329 327 324 324 325 325 325 324 323 322 321 314
331 332 331 330 330 329 328 327 326 325 325 324 325 328 329 330 331 331 331 331 331 331 330 328 328 328 327 327 328 333 330 329 327 324 324 324 325 326 325 325 323 322 321
330 330 328 329 328 327 327 327 326 324 324 327 329 330 329 330 332 332 331 331 331 330 330 330 330 329 328 327 327 330 329 328 326 325 323 323 323 323 324 326 326 325 322
329 328 328 327 330 331 330 329 327 326 325 329 330 329 329 331 331 331 331 330 329 330 329 330 328 327 327 327 326 327 329 328 327 325 322 322 320 320 320 321 323 325 325
334 332 333 333 334 333 331 330 329 329 328 329 328 328 329 331 332 331 330 329 329 328 328 326 326 328 329 329 328 327 327 328 327 325 322 321 320 319 319 320 322 323 324
335 334 334 333 332 333 333 330 330 329 330 329 329 328 329 330 331 331 329 329 326 325 325 325 327 328 327 328 327 327 328 328 326 324 321 320 319 319 320 322 323 322 323
335 335 335 335 331 331 334 333 331 330 329 329 328 331 329 330 330 330 328 326 326 323 323 325 324 324 325 327 327 326 326 328 325 322 320 320 320 320 320 321 321 321 320
334 334 333 334 332 333 334 334 333 333 331 330 328 331 329 327 327 327 326 326 325 322 322 323 322 322 323 323 323 324 325 325 324 325 323 322 320 319 319 318 318 318 318
331 332 332 332 332 332 332 332 332 332 331 332 331 331 330 328 326 326 326 326 323 321 319 320 320 320 319 320 321 321 321 320 319 322 322 321 319 318 317 317 317 318 318
326 328 329 330 330 331 331 330 330 330 329 330 329 329 328 326 323 324 322 319 322 320 319 320 319 318 318 318 318 318 318 317 318 320 321 319 317 316 315 316 316 317 316
327 327 326 327 328 330 330 328 328 327 329 329 325 327 326 324 322 321 322 322 320 319 319 319 318 317 316 316 316 316 316 317 318 318 318 317 315 313 312 313 314 316 315
326 325 324 325 328 328 328 328 327 328 327 326 328 328 325 323 322 322 322 320 317 317 317 316 317 316 315 314 314 314 314 315 315 315 315 314 313 312 310 309 312 314 314
325 324 324 324 326 324 324 327 327 328 328 326 327 326 324 323 322 322 321 319 316 316 316 316 315 314 314 313 313 312 312 312 312 313 313 312 311 309 308 308 308 309 310
326 327 326 325 324 324 324 325 325 327 327 327 325 324 323 323 324 323 320 318 316 314 314 314 313 312 312 311 310 309 309 309 309 309 309 309 308 307 306 306 306 307 309
328 329 327 326 327 326 325 325 326 326 326 326 324 323 323 322 320 318 317 316 316 315 313 313 312 311 310 308 307 307 307 307 306 306 307 307 305 305 304 303 303 304 305
328 328 328 328 327 328 327 327 326 326 325 324 323 323 322 320 316 313 312 312 313 314 313 313 311 310 308 307 306 305 306 305 305 305 304 304 303 302 301 301 301 302 301
319 322 325 325 326 328 326 327 326 325 324 323 322 321 319 314 312 312 312 312 313 313 313 311 310 309 307 305 305 304 304 304 303 303 303 301 301 301 300 300 299 298 300
314 317 320 322 323 324 325 325 325 324 323 321 320 319 315 312 312 312 312 312 311 310 309 309 308 307 306 305 303 302 302 301 301 301 300 300 299 298 298 298 297 296 297
312 313 316 317 318 319 319 320 320 318 317 315 314 313 311 311 311 310 310 310 310 308 308 307 306 305 305 302 301 300 300 300 300 299 299 298 297 297 297 296 296 294 293
310 311 312 314 314 314 315 314 313 313 312 311 310 310 309 309 308 308 308 308 307 307 306 306 304 303 302 300 299 300 299 299 298 298 297 296 296 295 294 294 293 292 291
309 309 309 309 311 312 311 310 309 309 308 308 307 306 306 305 305 306 307 307 306 305 304 303 302 302 301 301 300 299 298 296 295 297 296 296 294 292 291 291 291 290 288
307 308 308 307 307 308 308 308 308 307 306 306 305 304 303 303 303 303 303 304 303 303 302 301 300 300 300 300 300 298 297 296 296 295 294 293 292 291 290 290 289 288 287
305 306 307 307 306 306 306 305 305 304 304 304 303 303 302 301 300 300 299 300 300 299 299 299 299 298 298 298 298 298 297 295 293 292 291 290 290 288 288 287 286 286 287
301 303 304 306 306 305 305 304 303 302 303 302 302 301 301 300 299 298 297 297 297 295 295 295 295 295 296 296 296 296 294 293 291 291 290 289 287 286 286 286 286 286 287
299 300 302 303 304 304 304 303 302 301 302 301 300 300 299 298 298 297 297 297 295 294 293 290 289 291 293 294 293 293 294 293 292 288 289 287 286 286 285 286 286 287 287

GFSMA_925_thetae_093.txt.gz
Theta_e
332 333 333 333 333 333 330 328 322 320 323 325 324 324 324 324 323 323 324 325 327 327 327 328 328 329 329 329 329 330 329 327 325 324 324 324 324 324 323 322 322 319 313
332 332 332 332 331 332 327 326 327 328 326 325 324 324 324 324 325 326 327 329 329 329 328 328 328 327 328 330 333 332 329 329 329 326 323 323 323 324 324 323 323 322 321
332 333 332 328 325 326 326 329 328 327 325 325 324 324 327 327 329 330 330 330 330 331 330 328 328 328 328 327 327 333 332 329 328 326 324 323 323 324 325 324 325 323 322
332 332 331 330 330 330 328 327 327 325 325 325 324 325 328 329 329 330 331 330 331 331 329 330 329 329 329 327 326 331 333 329 328 326 324 323 323 323 322 324 324 325 325
331 331 331 330 329 329 328 327 325 325 324 325 327 329 329 329 330 331 331 331 331 330 330 330 329 327 326 327 328 327 328 328 328 326 324 322 321 320 320 321 320 323 324
330 331 330 329 329 327 328 328 327 327 325 324 328 329 329 328 329 331 331 330 329 328 328 327 326 325 328 329 328 327 327 327 328 326 324 322 320 319 320 320 321 323 323
329 329 328 327 329 330 331 330 329 328 328 328 329 328 328 328 331 330 331 329 328 327 326 324 324 327 328 327 328 326 327 330 328 326 323 321 320 320 321 322 322 322 322
331 330 332 333 333 333 333 331 329 329 329 329 329 328 327 329 330 330 330 328 326 325 324 323 324 323 324 325 326 325 325 328 328 325 322 320 320 320 320 320 320 320 320
332 332 332 333 332 331 332 333 331 330 330 329 329 330 329 329 327 329 328 326 325 323 322 324 323 322 320 321 321 321 326 327 327 325 322 322 320 319 319 318 318 319 320
330 330 331 332 334 331 332 333 333 333 332 330 330 329 330 327 326 325 324 324 324 323 321 321 320 320 319 318 319 320 321 323 323 323 323 322 319 318 317 317 318 318 318
328 327 328 329 330 330 331 331 333 331 330 331 330 329 329 329 327 323 324 320 321 321 319 319 319 318 318 318 317 317 318 318 318 321 322 321 319 317 316 316 316 317 316
328 328 328 327 328 329 328 329 331 330 329 329 329 329 327 326 324 323 320 321 320 321 321 319 319 318 317 317 316 316 316 316 319 319 320 318 317 315 313 312 314 315 315
326 326 327 326 325 326 328 329 330 329 329 329 329 326 326 327 327 323 322 321 319 319 318 318 317 317 316 315 314 313 313 315 317 317 317 316 315 313 311 310 312 313 312
324 325 326 325 324 325 327 329 328 327 327 328 328 327 327 326 325 323 322 321 317 316 315 315 315 315 315 314 313 312 312 313 313 314 315 313 313 311 309 309 309 310 311
323 324 325 325 324 324 325 325 324 326 326 327 327 326 326 325 323 322 321 321 319 315 314 314 313 313 313 313 312 311 311 310 310 311 312 311 310 308 307 307 306 307 307
323 325 326 325 326 324 325 326 324 324 324 325 325 325 325 326 323 323 322 322 319 316 312 313 312 311 311 311 310 308 309 308 307 306 307 307 306 306 305 304 304 303 303
323 324 325 327 326 326 326 326 325 325 324 325 325 324 324 323 323 323 322 320 318 316 312 311 311 310 310 308 307 306 305 306 305 305 305 304 304 304 303 302 301 301 300
313 317 320 323 325 326 327 327 327 326 325 325 324 323 323 323 323 321 319 317 315 315 314 311 310 309 308 307 305 304 304 305 304 304 304 303 303 302 301 300 300 299 299
311 312 314 318 321 322 324 325 327 326 325 324 324 324 323 322 320 318 315 312 312 313 313 312 309 308 306 305 304 302 303 303 302 302 302 301 301 299 299 299 298 297 296
310 310 311 313 316 318 320 321 322 323 323 323 323 322 321 320 319 315 312 312 312 311 310 310 308 307 306 304 302 302 301 300 300 300 300 299 298 298 298 298 296 294 293
307 309 309 310 312 314 315 316 317 319 318 318 317 316 316 316 315 312 312 312 311 310 308 307 306 304 303 301 301 302 300 299 299 299 298 298 298 297 296 296 294 293 293
305 306 308 308 308 309 311 312 312 313 313 313 312 311 311 311 311 310 309 309 310 309 307 306 305 303 302 302 302 301 299 297 296 299 297 297 296 294 293 293 292 292 291
301 303 304 306 307 307 307 308 308 308 309 309 309 309 308 308 307 307 307 307 307 307 306 306 304 303 302 302 301 299 299 298 297 297 296 294 294 293 292 291 290 290 288
299 299 301 303 304 306 306 306 306 306 306 306 307 307 306 305 305 304 304 304 304 304 304 303 302 301 301 300 300 300 300 297 295 294 294 292 292 291 291 289 288 287 287
297 298 299 300 302 303 305 305 304 304 304 304 304 304 304 303 303 302 301 301 300 300 300 300 300 299 298 298 298 298 296 294 292 292 291 291 289 288 287 287 286 286 287
296 296 298 299 300 301 302 304 304 303 302 302 303 302 302 301 301 300 299 299 297 297 296 295 295 294 295 296 296 296 296 295 294 291 292 290 287 286 285 286 286 288 288

GFSMA_925_thetae_099.txt.gz
Theta_e
336 334 334 333 332 333 335 334 333 328 323 320 320 319 321 323 323 322 322 322 322 323 323 327 329 329 328 328 329 330 329 328 328 325 324 322 322 323 323 323 322 322 321
336 335 334 333 332 333 333 334 332 327 322 321 324 324 323 323 323 323 322 322 323 326 325 326 328 329 332 332 333 333 330 330 329 328 327 324 323 323 323 323 323 323 322
335 335 333 334 333 332 333 333 331 328 325 321 324 324 324 323 323 323 322 323 324 328 328 328 327 327 328 332 333 333 333 332 329 328 328 327 324 323 324 324 324 323 323
332 334 330 331 333 331 332 331 331 329 326 321 322 324 324 323 324 323 324 327 326 329 329 329 328 328 328 329 332 332 331 331 331 330 328 326 324 323 322 320 323 322 322
333 333 328 329 325 321 331 332 332 330 325 326 327 326 324 323 324 326 327 329 329 329 329 330 329 329 328 328 328 327 328 331 329 329 327 325 323 322 319 319 319 320 322
330 331 331 325 325 325 332 333 331 330 327 327 326 324 324 323 324 327 328 328 330 330 330 330 329 329 329 327 325 327 327 327 328 328 327 325 323 321 320 320 320 322 322
329 330 331 330 330 330 330 331 331 328 326 328 324 324 325 327 328 328 328 328 330 330 330 330 329 329 327 324 326 327 326 325 328 328 328 325 323 321 320 322 320 319 319
328 329 329 331 332 331 329 327 325 325 325 325 323 325 325 326 328 328 328 328 329 330 330 329 329 326 323 323 322 322 322 322 327 329 327 325 322 321 321 320 319 319 320
329 329 329 330 329 329 329 329 328 327 325 325 325 326 326 326 325 327 327 328 329 329 328 328 326 324 322 321 319 317 318 318 324 328 327 325 324 322 320 318 318 319 319
327 328 329 329 328 329 329 329 329 327 326 326 325 326 328 327 326 325 324 326 328 327 327 325 324 323 322 321 318 317 316 321 323 325 326 325 324 322 319 317 318 318 318
327 327 329 329 328 329 328 328 327 327 327 328 327 327 327 326 325 323 324 321 321 323 323 324 324 323 321 319 318 317 315 317 322 321 324 325 323 321 319 317 316 316 317
326 325 325 328 328 328 328 327 328 328 328 328 328 328 328 327 325 324 323 322 322 322 322 322 322 322 320 319 318 316 315 314 317 320 320 323 322 318 317 315 314 315 314
326 325 325 328 327 327 328 328 327 327 328 328 328 328 327 327 327 327 327 324 320 321 319 318 320 320 319 318 317 316 314 314 315 317 319 320 318 317 314 313 313 312 313
326 325 325 325 327 326 326 326 325 326 326 326 326 326 326 326 326 327 326 323 319 316 316 317 319 318 318 317 316 315 313 312 314 316 316 317 315 314 314 313 311 310 309
323 324 323 324 324 326 327 325 325 325 324 324 325 325 326 325 325 325 325 325 324 324 318 314 314 315 316 316 314 313 312 311 313 314 314 314 314 312 311 310 309 307 307
321 322 322 322 323 324 324 324 325 324 324 325 325 325 326 326 326 326 324 324 323 323 321 312 312 313 314 313 313 312 311 311 311 311 312 311 310 310 308 307 306 305 305
311 313 317 319 320 323 324 324 325 324 324 324 325 324 324 325 324 324 323 324 321 320 315 310 313 312 312 312 312 311 310 309 309 308 307 306 305 306 305 305 305 304 303
308 309 310 312 315 318 321 324 324 324 324 324 324 324 323 323 323 323 322 322 321 321 318 309 308 309 311 310 311 310 308 307 307 306 306 305 305 304 305 302 303 301 300
303 305 307 308 309 311 314 317 320 321 324 324 324 324 324 323 322 322 323 322 321 321 318 314 307 308 308 309 307 306 306 306 305 305 304 304 304 303 302 301 301 300 298
300 301 303 304 306 308 308 310 312 315 317 319 322 323 324 323 322 321 321 321 320 318 317 313 309 306 306 305 306 305 304 304 304 303 302 302 301 301 300 300 300 299 297
295 297 299 301 302 304 306 306 307 308 310 312 315 318 320 321 322 323 321 318 317 316 312 309 306 304 303 303 303 302 303 303 302 302 301 300 300 299 299 299 299 297 296
293 294 295 296 298 300 301 302 303 305 306 307 308 311 313 316 317 318 319 320 319 315 312 310 306 306 303 303 303 303 302 299 297 300 299 299 299 299 299 298 297 296 294
291 292 293 295 294 296 298 300 301 302 304 305 305 306 308 310 312 313 315 315 315 316 315 313 307 306 304 306 306 302 301 300 300 301 298 297 297 298 297 296 295 294 292
290 291 291 293 294 292 292 297 299 300 301 303 304 304 305 306 308 309 311 311 311 311 310 310 310 310 310 309 308 307 305 303 299 299 297 296 296 296 295 294 292 291 290
290 290 290 290 291 291 292 294 297 299 300 301 302 304 303 304 305 306 307 308 309 308 309 310 311 310 309 308 307 305 301 298 294 294 295 296 292 292 292 292 291 290 289
289 289 290 289 289 290 291 293 294 296 298 299 300 301 303 302 303 303 304 306 304 306 306 307 307 306 305 304 303 303 302 297 295 292 295 294 291 291 288 288 288 288 288

GFSMA_925_thetae_102.txt.gz
Theta_e
336 337 335 333 333 332 332 333 334 329 322 320 319 319 321 323 322 322 322 323 322 321 330 334 333 329 329 328 328 328 328 328 328 327 325 323 322 322 322 322 322 322 322
335 336 335 334 333 332 332 337 335 333 328 324 320 319 319 320 322 323 322 322 322 322 323 325 332 333 333 333 333 332 330 330 330 329 328 327 324 322 322 323 323 322 323
330 334 335 334 333 332 332 335 334 334 331 326 322 321 323 323 323 323 323 322 321 323 325 326 326 329 333 333 334 334 333 332 331 329 329 328 326 323 323 324 324 324 323
328 331 334 334 334 333 332 333 333 332 332 328 324 321 323 324 323 323 323 322 323 323 325 327 328 327 328 329 332 333 333 329 329 330 329 327 327 325 324 321 321 320 321
328 329 333 334 333 333 332 332 331 332 331 329 327 322 320 323 324 323 323 323 324 327 326 328 328 328 328 328 328 332 331 328 328 328 329 327 326 324 321 319 319 320 321
329 330 332 333 330 330 332 325 327 331 331 330 329 324 325 326 324 323 323 326 326 329 329 328 329 329 329 328 328 327 325 327 325 326 328 327 325 323 320 319 320 320 320
328 331 332 331 329 327 322 322 324 329 329 330 328 326 327 325 323 323 323 326 327 328 329 329 329 329 329 328 328 323 325 326 324 326 328 328 325 323 320 321 320 318 319
326 329 329 329 328 328 327 326 325 325 327 327 326 323 323 324 324 324 326 327 328 328 329 330 330 329 329 328 325 322 324 322 323 327 328 327 325 323 323 321 318 319 320
325 327 328 328 328 328 327 327 326 327 326 325 325 325 323 324 323 325 325 328 328 327 328 329 329 329 328 327 323 320 319 318 319 328 329 327 325 324 322 319 318 319 318
327 327 326 327 328 328 328 328 327 326 325 324 323 324 325 326 325 325 324 326 327 327 329 329 328 328 327 324 322 320 317 316 319 327 328 327 326 324 322 319 318 317 317
327 327 327 327 328 328 328 328 327 326 325 326 325 324 324 326 326 323 324 321 323 326 327 328 328 327 325 323 322 319 317 315 317 323 327 327 325 324 322 319 317 317 315
326 326 326 327 327 327 328 327 328 327 326 326 326 326 326 325 325 323 321 320 321 324 325 325 325 325 324 323 321 318 317 315 317 321 323 324 326 323 319 317 316 315 314
326 326 326 326 326 325 326 327 327 327 326 326 326 326 326 326 326 326 325 323 322 324 324 323 323 324 323 322 320 318 316 315 315 318 322 323 323 319 318 315 314 313 312
323 325 325 326 326 325 327 327 327 327 327 326 327 327 327 326 326 326 326 325 323 319 320 321 320 321 322 321 319 317 316 314 314 315 318 320 319 317 316 313 312 311 311
318 321 323 323 324 326 325 326 326 326 326 325 325 325 325 325 325 325 325 325 325 326 324 318 319 318 319 319 318 317 315 313 313 316 317 317 315 314 313 311 310 310 308
312 313 314 317 320 321 323 324 325 325 325 325 324 324 324 324 324 324 324 324 324 324 325 322 316 318 317 317 316 316 314 312 313 315 315 314 313 313 311 309 309 308 306
307 309 309 311 313 315 319 321 323 323 324 324 323 323 323 323 324 324 324 324 323 323 322 311 312 313 312 315 315 314 312 311 312 312 312 312 310 309 309 308 306 305 304
302 303 305 307 307 308 309 312 317 318 323 324 323 323 323 323 324 323 323 323 322 321 319 309 309 310 311 313 314 313 311 310 310 309 308 307 306 305 305 304 304 304 303
296 298 300 302 303 304 307 307 308 310 313 316 320 323 323 323 322 322 322 321 322 320 319 314 308 309 309 310 311 311 310 308 308 306 306 305 305 304 304 302 302 301 300
293 294 294 295 298 300 302 303 305 306 307 308 310 313 316 319 322 322 322 321 321 319 319 315 310 308 308 307 307 306 304 305 305 304 304 303 303 302 302 301 300 299 299
291 291 291 292 293 294 297 300 301 302 303 304 306 308 310 312 315 318 320 321 320 319 317 315 307 305 305 304 304 304 303 303 304 304 302 302 302 301 300 300 300 298 299
290 290 290 290 292 293 293 293 297 299 300 301 303 305 306 307 309 310 314 316 318 318 316 314 310 308 306 306 304 303 302 302 298 302 302 301 301 300 299 299 299 298 297
289 289 289 290 290 290 291 294 294 297 298 299 300 302 304 305 305 307 309 310 313 315 316 314 312 311 307 306 306 302 303 303 302 302 301 299 299 298 298 298 297 297 296
288 288 288 289 289 289 289 291 294 293 295 297 298 300 301 303 304 304 305 307 308 310 312 313 312 312 311 309 309 307 306 303 301 300 299 296 297 297 297 296 296 295 294
288 288 288 288 289 288 288 290 291 293 294 294 296 297 299 300 302 304 303 303 305 307 309 310 311 311 310 309 307 306 301 298 294 295 296 298 294 293 294 294 293 292 292
286 287 288 288 288 288 288 289 290 290 291 293 294 295 296 298 299 301 302 302 302 304 306 307 308 308 308 308 309 308 307 299 294 292 296 297 292 293 289 291 291 290 290

GFSMA_925_thetae_105.txt.gz
Theta_e
336 337 337 338 337 336 334 333 333 331 322 320 323 323 324 324 324 324 323 323 323 322 328 335 334 332 330 329 328 328 327 327 327 327 326 325 322 321 321 322 322 322 322
333 335 335 337 337 335 333 332 333 332 329 322 320 319 319 319 322 322 322 322 322 322 322 326 334 334 334 333 333 331 330 330 329 329 328 327 326 323 321 322 323 323 323
330 331 333 335 335 333 332 332 332 334 333 329 325 322 319 319 319 320 322 322 321 321 322 323 324 331 334 334 334 334 332 331 331 330 330 328 328 325 322 324 324 323 321
329 329 331 334 334 334 333 332 333 335 334 333 331 326 322 321 323 323 323 323 323 321 321 323 325 326 328 331 333 331 332 331 329 327 330 329 328 327 324 324 320 319 319
328 328 329 330 333 333 333 332 333 333 332 332 332 329 325 323 321 323 323 323 323 322 323 323 325 327 327 327 328 330 330 328 325 326 327 328 328 327 324 321 319 319 319
327 327 328 330 331 333 333 332 332 332 331 330 331 330 328 327 322 321 324 323 323 323 323 326 326 327 328 328 328 328 328 326 323 325 326 327 327 326 323 320 319 319 318
326 327 328 330 331 331 332 332 330 330 327 325 329 328 327 324 323 325 325 324 323 323 326 327 328 327 328 328 328 328 328 323 325 323 325 327 327 325 322 321 320 318 319
325 326 328 328 328 329 328 328 327 327 327 327 326 325 326 325 325 325 326 324 323 323 325 327 328 329 329 329 329 328 327 322 324 326 325 329 328 325 324 324 320 318 319
326 326 327 328 329 329 329 328 326 324 325 325 323 324 326 327 325 324 324 325 324 324 324 328 327 329 330 329 329 328 325 321 320 328 328 330 327 326 326 323 320 319 319
326 327 327 327 328 328 328 328 327 326 325 324 324 324 324 324 327 327 324 324 324 325 325 328 327 329 329 329 329 328 324 320 317 319 329 329 328 327 325 323 320 319 316
325 326 326 327 327 327 327 327 327 327 327 326 325 323 323 323 325 327 330 326 324 325 325 327 327 328 328 328 328 325 322 319 316 318 327 328 328 327 325 323 321 319 318
325 325 325 326 326 327 328 327 327 327 327 326 326 324 324 324 325 326 326 326 324 324 324 325 326 327 326 327 327 325 322 319 316 319 325 328 327 326 325 323 320 318 316
324 324 324 324 324 325 326 327 327 327 327 326 325 325 324 325 325 325 326 327 326 324 324 324 325 325 325 326 326 323 322 319 316 316 324 325 325 325 324 320 319 317 315
315 317 322 322 323 324 325 326 326 325 326 326 326 325 325 325 325 325 325 326 326 322 322 325 325 325 324 324 324 323 321 317 316 315 320 323 322 323 320 318 316 314 313
310 309 313 316 318 320 321 323 326 326 325 325 325 325 325 325 325 325 325 325 326 326 326 324 322 323 323 323 323 322 320 317 315 315 316 321 322 321 319 316 314 312 311
304 306 308 310 311 313 315 317 321 323 324 325 325 326 326 326 326 326 325 324 324 324 325 324 323 322 322 321 320 320 318 316 315 313 314 317 320 318 315 314 313 310 309
299 300 301 304 305 306 309 309 312 315 317 320 323 324 324 324 324 324 324 323 323 324 324 324 322 322 319 318 316 318 316 315 315 314 314 318 316 314 314 312 310 308 307
293 294 295 297 299 301 303 304 306 307 308 311 314 317 323 323 323 323 323 323 323 323 323 323 316 315 314 314 314 315 314 314 313 314 315 314 314 312 310 309 307 306 306
291 291 292 293 293 294 298 300 302 303 304 305 306 309 312 314 319 322 323 323 322 322 322 320 309 310 308 309 310 311 312 312 312 312 312 311 310 307 305 305 305 304 303
290 290 290 290 291 292 293 295 297 299 300 301 302 304 306 308 310 311 314 321 321 321 319 316 310 309 309 308 309 308 306 309 309 309 309 308 306 305 304 304 303 302 300
289 289 289 289 289 290 293 295 295 296 297 298 299 301 302 303 305 306 307 311 315 319 317 315 310 308 307 306 307 306 305 304 305 306 305 305 304 303 303 303 302 300 299
287 287 288 288 288 289 289 292 293 294 294 295 297 298 299 300 301 303 306 307 307 310 316 316 313 310 309 309 307 306 304 301 300 303 304 302 303 302 302 301 301 300 299
286 286 287 287 287 288 288 291 292 292 292 293 293 295 296 297 298 300 302 304 305 307 308 312 314 311 311 310 309 305 304 304 306 304 303 300 301 300 301 300 299 299 299
285 285 286 287 287 287 288 289 290 290 290 290 292 292 294 295 296 298 300 301 302 304 306 309 310 313 314 313 311 310 307 305 303 303 302 298 299 298 300 299 298 298 298
285 285 285 286 287 287 288 288 290 290 289 289 290 291 292 294 295 296 297 299 301 301 303 305 308 309 311 313 312 306 303 299 295 296 299 301 296 296 297 297 297 296 296
284 284 284 285 286 287 288 288 289 289 289 289 289 289 290 293 294 295 296 297 298 300 301 302 304 307 309 310 310 308 302 302 296 293 296 299 292 294 291 293 294 295 293

GFSMA_925_thetae_108.txt.gz
Theta_e
338 338 338 338 339 339 337 337 337 334 330 327 325 326 327 326 326 325 325 325 324 323 326 334 334 333 332 331 329 327 326 326 327 327 326 325 323 322 321 321 322 321 321
339 339 339 339 339 338 338 337 337 336 332 325 323 323 324 324 324 324 324 324 323 323 323 323 334 335 334 334 333 331 329 329 329 328 328 327 327 325 322 322 322 323 323
335 336 338 338 338 339 336 336 335 334 334 330 325 322 321 321 321 322 323 323 324 322 322 322 322 330 334 335 335 334 332 331 330 331 330 330 329 327 324 322 324 324 322
331 334 335 335 336 336 336 337 336 333 334 333 331 327 325 323 322 322 323 323 324 324 323 321 322 323 328 334 334 334 333 331 332 329 326 329 329 328 326 324 325 321 319
330 332 333 333 333 335 335 335 335 335 334 333 332 332 329 326 324 323 323 324 324 324 324 323 321 323 325 326 331 334 334 332 331 328 324 327 329 329 328 326 322 319 319
330 331 331 332 332 332 334 334 334 333 333 333 331 331 330 330 328 325 323 323 325 325 324 324 324 324 323 326 327 328 332 333 332 326 324 326 328 328 327 325 321 320 319
328 329 330 331 329 330 331 331 332 332 331 331 330 328 328 328 328 328 326 323 324 325 325 325 325 326 327 326 327 328 328 329 331 326 325 325 327 328 328 325 324 321 319
329 329 329 330 331 329 329 328 330 330 329 330 330 328 329 326 325 325 324 323 323 319 324 325 326 327 327 327 328 328 328 328 330 328 329 325 328 329 327 327 325 322 322
329 329 329 329 330 330 328 329 330 331 329 329 329 327 328 328 324 323 324 323 323 324 324 325 325 327 328 328 329 329 329 328 328 328 330 330 329 329 328 327 325 322 321
329 329 329 329 329 330 330 330 329 329 328 326 327 326 325 324 327 325 322 325 324 325 326 326 326 327 327 328 328 329 329 328 327 323 327 329 331 330 328 327 325 323 321
327 328 329 329 329 329 330 330 329 330 328 326 324 323 324 323 323 324 326 327 325 325 325 326 326 326 326 327 328 329 328 328 327 322 322 328 330 330 329 328 325 323 321
326 326 326 326 327 328 329 328 328 328 328 327 326 325 324 323 323 322 323 325 326 327 327 326 326 326 326 327 327 327 327 327 327 321 320 327 328 329 328 328 325 323 321
316 318 321 322 324 325 326 326 326 326 326 327 327 327 327 325 325 323 323 323 324 325 326 326 325 325 325 326 327 327 326 326 325 321 322 325 327 327 327 327 326 323 320
309 311 313 316 317 319 320 322 323 325 326 327 327 327 326 326 326 324 324 324 326 327 327 326 325 325 325 325 325 325 326 325 325 321 319 323 324 326 326 325 324 321 319
304 307 308 309 309 310 313 314 318 319 323 326 326 325 326 326 325 325 324 325 325 327 329 326 324 324 325 324 325 324 324 324 324 322 318 317 323 325 323 323 322 319 317
300 300 301 302 303 304 306 309 310 312 313 317 319 323 325 325 325 325 324 324 324 324 325 323 323 324 324 324 324 324 323 323 323 322 320 316 322 324 321 319 320 317 315
294 295 295 296 297 299 301 303 304 305 307 308 310 312 315 319 324 325 324 324 325 325 325 324 324 324 323 323 323 323 323 323 322 321 317 319 321 321 319 321 317 315 313
292 293 294 294 295 296 297 299 301 302 303 304 305 306 308 309 314 317 323 324 324 324 324 323 323 321 322 322 321 320 318 318 318 318 317 318 315 315 319 316 314 313 312
292 292 292 292 293 294 295 296 296 297 298 299 301 303 304 306 308 309 310 313 319 322 322 322 322 318 317 315 313 314 314 314 315 316 316 314 315 317 314 313 312 310 308
291 290 290 291 291 292 293 294 294 295 295 296 298 300 301 302 303 303 306 307 309 312 319 321 319 313 311 311 310 309 308 310 312 314 314 314 315 314 312 310 309 307 306
289 289 289 289 289 290 290 292 293 293 294 294 294 295 297 298 298 300 302 304 306 308 310 314 312 309 307 307 307 307 308 307 308 311 311 311 311 310 307 306 305 304 304
287 288 288 288 289 289 289 291 291 291 292 292 292 293 294 295 296 297 299 300 301 303 306 308 312 312 311 310 308 307 307 303 301 306 307 306 307 306 305 305 304 303 303
287 287 287 288 288 288 289 290 290 290 291 291 291 292 292 293 295 295 296 297 299 301 303 304 306 309 312 311 310 307 307 306 308 307 305 303 305 304 304 304 304 303 302
287 287 287 287 287 288 288 289 290 290 290 290 290 290 291 291 291 294 294 295 296 297 299 302 304 306 308 311 311 310 309 308 307 307 304 304 300 302 302 302 302 301 301
286 286 286 286 287 287 288 289 289 289 290 290 289 289 290 290 291 291 292 293 294 294 296 298 300 301 302 304 309 309 307 304 296 298 302 303 297 298 297 300 301 300 300
285 286 286 286 286 287 288 288 289 289 289 289 289 289 289 289 289 289 290 290 290 291 294 295 297 298 300 302 305 308 307 305 304 295 298 301 294 297 293 296 299 299 298

GFSMA_925_thetae_111.txt.gz
Theta_e
336 337 337 338 339 340 340 339 338 337 336 333 331 329 328 328 328 327 327 327 326 323 324 335 335 333 330 329 329 328 327 327 326 326 326 325 324 322 321 321 321 321 321
336 336 337 337 338 339 339 339 339 337 335 332 330 328 326 327 327 326 326 326 325 323 323 323 331 335 335 334 333 332 328 327 328 328 327 327 327 326 324 322 322 323 323
333 336 337 337 338 338 339 339 339 338 337 333 327 324 323 324 324 324 324 325 324 324 323 322 322 324 334 335 335 334 332 331 330 331 330 330 330 328 327 324 322 324 325
330 334 334 335 336 335 336 336 337 336 335 334 332 327 323 322 322 322 322 323 323 324 325 323 321 322 323 329 334 335 334 333 332 330 330 329 328 330 329 327 323 326 322
327 328 330 332 333 333 334 335 335 336 335 335 334 333 329 326 324 322 322 323 324 324 325 325 324 322 322 323 328 334 335 333 331 331 330 328 326 328 329 329 327 325 320
327 326 325 326 329 331 333 333 334 334 333 333 332 332 333 331 329 326 325 323 323 324 325 325 325 324 323 321 324 326 333 333 333 331 330 327 324 327 328 329 328 324 321
330 331 323 328 329 331 331 331 332 332 333 332 333 332 332 331 330 328 327 326 324 323 325 326 325 325 325 326 325 324 327 328 329 330 329 327 324 327 328 329 328 326 324
330 330 328 325 330 331 330 330 330 331 331 331 330 330 331 329 329 329 328 328 327 324 324 325 325 325 325 326 327 327 327 328 329 331 330 328 324 325 329 330 328 327 325
330 329 330 329 328 330 330 330 329 328 330 330 329 330 330 329 328 328 327 326 326 325 324 324 324 324 324 326 327 328 328 328 328 329 329 330 329 329 329 330 329 327 325
328 328 329 329 328 328 329 329 329 329 330 330 330 330 329 328 326 328 325 326 325 325 324 324 325 325 326 326 327 326 327 328 329 328 329 328 331 330 330 330 328 327 324
326 327 326 327 327 328 328 328 329 329 330 330 329 328 328 328 327 325 326 325 326 326 326 325 326 327 327 327 328 328 328 328 329 329 328 330 329 330 329 330 329 328 325
324 323 324 325 326 326 326 327 327 327 328 329 328 328 326 325 325 324 323 323 323 323 326 325 325 326 327 327 328 327 327 327 328 327 326 327 328 328 329 330 330 328 325
314 315 318 319 320 321 323 324 325 326 327 327 326 327 327 326 325 324 323 322 322 322 322 326 327 327 327 328 327 326 326 327 327 327 327 328 326 326 327 327 329 328 326
306 307 308 309 311 313 315 315 317 318 320 324 326 327 327 327 327 326 325 324 324 323 323 323 323 325 326 326 326 326 326 326 326 326 326 325 325 324 324 325 326 327 327
300 300 301 301 303 305 306 308 310 311 310 313 314 317 319 325 326 326 326 325 324 326 325 323 325 326 326 325 325 325 325 325 325 325 324 324 325 325 322 325 325 325 326
295 295 295 296 296 297 299 301 303 304 305 306 307 307 310 312 315 318 323 325 325 325 326 324 325 326 325 324 324 324 324 325 324 324 324 324 323 323 323 322 325 325 325
293 293 293 294 295 295 296 297 296 299 299 301 302 302 305 306 308 311 312 317 323 324 324 323 322 323 324 324 324 323 323 323 323 323 322 322 322 322 322 320 324 324 323
293 293 293 293 294 294 295 296 296 297 298 298 299 300 302 303 304 306 306 307 309 311 317 322 323 323 322 322 323 324 323 323 322 322 322 322 322 322 320 319 323 322 320
291 291 291 291 292 292 293 294 294 295 295 296 297 298 300 301 302 300 302 305 306 308 309 311 320 321 321 321 321 321 321 321 322 321 321 321 321 320 319 320 321 319 318
289 290 290 290 290 290 291 291 292 293 293 294 294 295 295 297 297 298 300 301 302 304 307 308 310 315 315 316 315 314 314 315 314 315 315 316 317 318 319 318 316 315 313
289 289 289 289 289 289 290 290 291 291 291 292 292 292 293 294 294 296 297 298 298 300 302 304 307 309 309 308 309 311 310 310 309 310 312 314 314 316 315 315 315 313 313
288 288 288 288 288 289 289 290 291 291 290 291 292 292 292 292 292 294 295 295 296 296 298 300 302 305 307 310 310 310 308 305 302 308 311 310 313 312 313 312 312 312 311
288 288 288 288 288 288 289 289 290 290 290 291 291 291 291 291 291 291 293 294 294 295 296 297 299 301 305 306 308 309 307 307 308 309 308 308 308 308 309 309 310 310 308
287 287 287 288 287 288 288 289 289 289 290 290 290 290 290 290 290 291 291 291 291 292 293 293 295 296 298 299 300 302 306 308 307 308 308 308 305 306 307 308 308 307 306
287 287 287 287 287 287 288 288 289 289 290 290 290 290 290 290 290 290 289 289 290 290 290 290 291 293 294 296 297 299 302 306 303 302 306 307 302 304 303 304 305 305 305
286 286 287 287 287 287 288 289 289 289 289 289 289 289 289 289 289 289 289 288 288 288 288 289 290 290 292 294 296 297 300 303 305 298 302 302 298 300 296 299 302 303 303

GFSMA_925_thetae_114.txt.gz
Theta_e
337 336 335 337 338 339 339 338 338 338 337 336 332 329 329 329 330 330 329 328 328 326 321 334 335 334 331 331 331 329 326 326 325 325 325 325 324 324 322 321 321 321 321
336 336 336 337 338 337 338 339 338 338 337 337 334 331 330 328 328 328 327 327 326 325 323 322 328 335 335 334 333 332 330 326 326 326 326 326 326 326 326 324 321 321 322
336 336 335 335 336 336 337 337 337 338 337 336 333 331 330 328 326 326 326 326 325 325 324 323 322 323 333 336 335 335 333 330 328 329 329 329 329 329 328 327 325 322 323
329 333 335 335 335 335 336 335 337 337 338 337 334 330 327 324 323 324 324 324 324 324 324 324 323 321 322 326 335 335 335 333 331 330 329 329 330 329 330 330 328 324 325
331 330 334 334 334 334 333 333 334 334 334 335 334 334 331 324 323 321 322 322 322 323 323 324 324 323 321 321 325 333 335 334 333 332 330 329 330 327 326 329 329 327 326
330 329 329 330 330 330 330 330 331 331 332 333 332 333 333 331 328 325 322 321 321 323 323 324 325 325 324 323 321 323 331 333 333 332 331 329 330 327 324 328 329 329 328
326 327 327 327 326 323 324 322 325 330 332 332 332 332 331 331 331 331 328 327 324 323 323 324 324 325 324 324 323 322 322 326 328 329 328 329 330 328 323 328 328 329 329
329 328 327 327 326 327 329 330 329 330 331 331 331 330 330 329 330 330 331 330 328 327 325 324 325 325 325 325 324 323 324 324 326 328 328 328 328 328 324 329 329 329 328
330 329 327 327 326 327 329 330 329 329 330 329 329 329 330 329 326 328 329 329 328 328 327 325 324 326 326 325 325 324 325 325 326 326 329 329 329 328 324 328 330 330 327
329 329 328 330 329 328 328 328 328 329 329 329 330 330 329 328 326 324 326 327 327 327 327 326 326 324 324 323 323 324 324 325 325 326 328 330 329 328 327 327 330 330 328
325 328 328 328 328 327 327 326 327 328 328 328 329 328 329 329 328 326 327 323 324 325 325 325 324 324 323 323 323 323 324 326 326 325 327 329 330 332 332 331 331 330 328
313 321 324 325 325 325 325 325 326 326 327 327 327 327 327 326 326 326 326 325 324 324 323 324 325 325 325 325 325 325 325 326 327 326 327 328 328 329 332 332 330 330 328
306 309 313 316 318 318 318 319 320 321 321 322 324 326 326 326 326 326 325 324 324 323 322 322 322 323 324 325 327 327 327 326 325 327 327 327 327 326 330 328 330 326 327
300 303 304 306 307 309 309 311 314 313 312 313 314 316 318 321 323 326 325 325 325 324 323 323 323 322 324 326 326 327 326 324 325 325 326 327 326 326 327 325 324 324 324
296 295 296 296 297 299 299 302 303 303 304 305 307 306 307 310 311 311 315 317 324 326 326 324 323 323 323 323 325 326 326 324 324 325 326 326 327 325 324 322 323 324 323
294 294 295 295 294 295 296 297 296 297 298 298 300 300 301 303 304 307 309 309 311 313 324 324 324 324 323 323 323 326 325 324 324 325 325 325 325 325 324 323 324 323 323
292 292 293 293 294 294 295 296 296 296 297 297 297 298 300 302 302 304 301 302 307 308 311 312 314 320 324 325 325 325 325 324 324 324 324 324 324 324 323 323 323 323 323
291 291 291 291 291 292 292 293 293 294 295 296 296 296 297 298 301 299 298 302 303 305 306 308 309 311 316 322 324 324 324 324 323 323 323 323 323 322 322 322 322 322 323
289 289 289 289 290 290 290 291 290 292 292 292 293 294 294 295 296 294 298 297 300 300 302 304 306 307 310 312 316 319 319 320 322 323 323 322 322 322 322 322 322 322 322
288 288 288 289 289 289 289 290 289 290 291 291 291 292 292 293 293 293 297 296 297 297 298 300 302 305 307 308 311 312 314 317 318 318 318 318 318 317 317 319 320 320 320
288 288 288 288 288 288 289 290 290 290 290 290 291 291 291 291 291 293 293 295 295 296 296 297 299 299 302 304 307 308 309 311 312 312 313 314 314 314 315 316 317 318 319
288 288 288 288 288 288 289 290 290 290 289 290 290 290 291 291 291 291 292 293 293 294 295 295 295 297 298 301 302 302 304 306 303 311 309 311 311 313 314 316 317 317 318
287 287 287 287 287 287 288 289 289 289 289 289 289 290 290 290 290 290 290 290 290 290 291 292 293 293 294 295 296 297 298 300 304 308 308 308 310 311 313 313 314 315 315
286 286 287 287 287 287 288 289 289 289 289 289 289 289 290 290 290 290 290 289 288 288 288 289 289 290 290 291 293 294 296 297 300 302 306 306 309 308 310 312 313 314 314
286 286 286 286 287 287 287 288 289 289 288 289 289 289 289 289 289 290 289 289 288 288 288 288 288 289 289 290 290 292 294 296 297 301 304 305 306 306 306 307 308 310 312
286 286 286 286 287 287 287 288 289 289 289 288 288 288 288 289 289 289 289 289 288 289 289 289 288 287 288 288 290 291 293 295 296 297 301 302 303 303 299 303 305 306 307

GFSMA_925_thetae_117.txt.gz
Theta_e
336 336 337 337 337 338 338 338 338 337 337 338 337 330 331 330 328 325 330 329 329 328 327 332 335 333 328 328 329 327 326 325 325 325 325 324 323 323 323 322 321 321 321
336 336 336 336 335 337 338 338 337 337 338 338 337 334 330 329 329 329 330 329 328 328 326 324 332 335 335 334 332 332 329 327 325 325 325 325 325 325 325 325 324 322 321
337 335 336 334 334 337 338 337 336 337 338 338 337 336 335 329 328 328 330 328 327 326 325 324 323 326 334 335 335 334 332 329 327 325 326 326 326 326 327 327 327 325 323
335 335 334 335 335 335 336 335 335 335 336 337 336 335 333 332 330 328 325 326 326 326 325 325 324 323 323 332 335 336 335 333 332 330 329 329 329 329 330 329 329 328 326
333 333 332 333 333 334 333 334 334 335 335 333 335 336 333 328 331 327 323 323 323 324 324 324 324 323 323 322 328 333 334 334 333 332 331 330 329 328 329 328 327 329 329
330 332 330 331 332 333 333 333 332 332 331 330 331 331 331 330 331 330 325 323 321 322 322 322 322 323 324 324 322 324 331 333 333 332 331 330 330 329 329 327 326 327 329
326 330 330 330 331 331 331 330 329 329 327 327 328 329 330 331 331 331 331 328 325 323 322 322 323 323 324 324 324 323 322 323 330 332 332 331 330 329 329 328 325 327 328
321 328 328 329 328 329 327 324 323 325 327 327 329 329 330 329 331 331 330 330 330 330 329 328 323 323 323 323 324 324 323 323 322 328 331 330 328 327 327 328 323 327 328
320 323 327 327 327 325 323 324 325 328 329 328 329 328 329 329 326 328 329 329 329 330 329 329 327 325 324 324 325 325 324 324 323 323 328 332 330 328 328 328 328 326 328
320 321 324 326 326 326 325 324 325 327 328 328 328 328 328 327 325 325 326 328 328 328 328 328 328 327 326 325 325 325 325 323 323 324 324 328 331 328 329 328 328 326 328
317 318 319 321 326 325 326 327 327 327 328 327 327 327 327 327 327 327 329 325 326 325 325 325 326 326 325 325 325 324 324 324 323 323 324 326 330 333 330 329 328 327 328
308 310 314 314 316 319 323 322 323 324 324 325 325 326 326 326 326 326 326 326 325 325 325 324 324 324 324 324 325 324 324 323 323 323 324 326 327 332 329 330 328 328 329
301 305 305 306 315 308 315 317 318 318 317 317 317 318 321 321 321 325 325 325 325 325 324 324 323 323 323 323 324 324 324 325 325 324 325 328 328 332 330 329 328 330 330
296 298 298 299 300 302 305 308 309 308 308 309 309 308 309 311 310 311 314 316 323 324 324 323 323 323 323 322 323 323 323 324 326 325 325 325 327 331 328 328 328 329 330
294 295 294 295 296 296 297 297 298 298 298 300 299 300 301 302 303 306 308 307 311 317 321 324 324 324 322 322 322 323 323 325 326 327 326 326 326 325 327 327 325 327 325
292 292 292 293 293 294 295 295 296 296 297 298 297 298 300 301 301 303 298 302 305 308 312 311 313 311 312 316 322 323 323 323 326 325 325 324 323 325 326 327 325 325 324
290 290 290 290 290 291 292 292 293 293 294 295 295 295 296 297 301 297 294 300 301 302 306 305 306 306 308 307 312 318 323 323 324 325 325 324 323 323 325 325 325 325 324
289 289 289 289 289 289 291 291 289 290 291 292 292 293 294 296 296 294 294 297 298 299 300 302 302 303 304 306 307 310 315 321 323 325 325 324 324 324 324 324 324 324 323
288 288 288 288 288 289 290 290 289 289 289 290 291 292 292 292 292 292 295 295 295 296 296 297 298 299 302 303 305 308 309 311 314 316 320 322 323 322 323 323 323 322 322
288 288 288 288 288 288 289 290 290 290 289 289 290 291 291 291 290 293 292 293 296 295 295 295 296 297 298 299 301 304 305 306 307 309 311 313 316 317 319 320 321 321 321
287 287 287 287 287 287 288 290 290 290 289 288 289 290 290 290 291 291 292 293 292 291 292 294 294 295 295 297 296 297 298 299 301 308 310 311 312 312 314 316 316 317 317
287 286 287 287 287 287 288 290 290 289 289 288 289 289 289 290 290 290 291 291 290 290 291 291 292 292 292 292 293 294 295 296 299 304 301 303 306 308 310 312 313 314 315
286 286 286 286 286 287 288 289 290 289 288 288 288 288 289 289 290 289 290 289 288 289 288 289 289 288 289 289 290 291 292 293 294 296 296 299 302 305 308 310 311 313 314
286 286 286 286 286 286 287 289 289 289 289 288 288 288 288 288 289 290 290 289 289 288 288 288 288 288 288 289 289 289 290 290 292 293 294 299 302 304 306 308 309 311 313
286 286 286 286 286 287 287 289 289 289 288 288 288 288 288 288 288 290 290 289 289 289 289 288 289 289 288 288 288 289 289 290 291 291 293 296 299 302 305 307 308 310 311
285 285 286 286 286 286 287 288 288 288 288 288 288 288 288 288 288 289 289 289 289 289 289 289 288 286 286 287 287 288 289 290 290 291 294 294 298 299 300 304 306 308 308

GFSMA_925_thetae_120.txt.gz
Theta_e
338 338 336 335 335 335 336 337 338 337 336 337 338 336 334 328 324 324 323 329 329 328 329 334 335 332 331 331 331 329 326 324 324 324 324 323 322 322 322 322 321 321 321
329 335 336 336 336 336 337 337 337 338 337 337 337 337 337 333 328 329 328 325 329 328 329 328 331 335 334 333 332 332 330 327 325 324 324 324 324 324 324 324 324 323 322
321 331 334 334 335 336 336 336 337 337 336 337 337 337 337 336 331 329 329 328 329 329 328 328 326 327 333 333 333 333 332 330 329 326 324 324 324 324 325 326 326 326 325
316 325 328 333 333 334 334 334 335 335 336 336 337 336 336 335 334 331 328 329 329 329 328 327 326 325 324 332 334 335 334 332 331 328 327 324 325 326 327 328 329 329 328
309 324 327 330 331 332 333 333 335 335 335 336 335 335 335 335 331 326 325 322 322 326 327 327 326 325 324 323 327 333 334 334 334 333 332 331 329 329 329 329 330 329 328
321 324 324 325 329 330 331 332 333 333 333 334 334 332 331 331 329 330 330 330 330 324 322 324 325 325 324 324 323 324 328 332 333 333 333 332 331 330 329 328 329 328 327
315 314 315 320 325 329 330 329 330 332 333 331 329 327 327 329 330 328 327 329 329 327 323 323 322 322 323 323 323 323 323 323 327 331 332 332 331 330 330 329 328 328 327
313 312 316 321 324 327 329 330 330 329 330 329 328 328 326 328 330 330 330 330 330 330 329 327 325 322 322 322 322 323 323 324 324 326 331 332 332 331 330 330 329 330 325
317 319 319 320 323 325 326 328 328 328 327 327 328 325 326 326 325 329 329 324 326 329 329 329 329 329 329 328 323 323 323 323 324 324 326 329 330 330 330 327 327 330 329
310 312 316 320 321 323 325 326 327 323 326 327 328 328 328 326 324 324 325 328 328 328 328 328 327 328 328 328 326 325 324 324 324 324 325 324 328 331 331 331 327 328 330
305 305 307 314 317 320 320 324 324 324 327 326 326 327 326 326 326 326 328 326 325 326 326 326 325 325 325 326 326 326 326 325 324 325 325 325 325 324 331 332 332 328 328
300 299 303 307 309 312 313 314 318 322 324 325 325 324 325 325 325 325 326 325 325 326 326 326 325 325 325 324 324 324 325 325 324 324 324 326 327 328 327 331 332 332 328
296 296 297 301 302 304 308 313 311 309 316 316 316 315 315 313 313 317 323 322 324 324 324 324 324 324 324 324 323 323 323 323 324 324 324 326 326 327 327 326 329 331 330
294 294 295 296 297 297 298 301 303 302 304 304 304 306 307 305 306 310 311 311 315 320 323 323 323 320 319 319 320 320 321 321 322 323 323 324 324 325 325 325 325 326 330
291 291 292 292 294 295 296 297 297 297 298 298 299 301 302 302 304 303 300 303 308 312 313 317 314 312 309 308 311 312 319 322 322 322 323 323 324 325 325 324 324 324 328
289 289 290 290 290 292 292 293 293 294 295 295 296 297 297 299 302 296 298 300 302 304 307 307 306 303 300 301 303 305 310 315 322 323 323 323 324 325 326 326 325 326 326
288 288 289 289 289 290 290 290 290 290 291 292 294 293 295 296 296 294 295 298 298 300 302 300 299 299 299 298 302 304 306 310 314 319 322 323 324 326 325 324 324 323 325
288 288 288 288 288 289 290 290 289 289 289 290 291 292 292 293 292 292 295 296 295 296 297 297 296 297 296 298 300 299 304 306 308 310 313 318 319 323 325 325 324 323 324
288 287 287 287 287 289 289 290 290 289 288 289 290 291 291 290 290 293 293 293 295 295 295 295 295 295 296 296 296 299 298 299 301 304 307 312 313 316 317 321 323 324 324
287 287 287 287 287 287 288 290 290 289 288 288 289 290 290 290 291 291 292 293 292 291 291 292 293 294 294 294 293 293 293 293 294 297 305 307 309 309 312 314 315 318 322
286 286 286 286 286 287 289 290 290 289 288 288 288 289 289 290 290 291 292 291 290 289 290 291 291 291 291 291 291 290 291 291 292 300 298 298 300 302 306 309 310 313 316
286 286 286 286 286 286 289 290 290 289 288 288 288 288 288 289 289 290 291 290 290 289 289 288 289 289 289 289 289 289 290 289 291 292 291 292 291 294 299 302 306 308 310
286 286 286 286 286 286 289 289 290 289 288 288 288 288 288 288 288 289 289 290 289 288 289 289 288 288 288 288 289 289 288 289 289 289 291 292 292 295 298 301 302 305 308
285 285 286 286 286 286 288 289 289 288 288 288 288 288 288 288 288 289 289 289 289 289 289 289 289 289 289 289 288 288 288 288 288 289 290 291 292 293 294 295 298 303 306
285 285 285 286 286 286 287 288 288 288 287 287 287 288 288 288 288 289 289 289 289 289 289 289 288 289 289 287 288 287 287 287 287 289 288 290 293 292 293 297 301 301 304
285 285 285 285 285 285 285 287 287 287 286 286 287 287 287 287 288 288 289 289 289 289 289 288 289 289 288 285 285 286 286 286 286 287 289 287 288 290 293 296 297 298 298

GFSMA_925_thetae_126.txt.gz
Theta_e
308 308 308 309 310 311 319 328 332 334 335 335 335 335 336 336 337 337 334 327 324 322 325 335 336 337 335 333 332 332 331 330 328 326 325 323 321 321 322 322 322 321 321
307 308 308 308 308 308 311 321 326 331 333 334 334 333 334 335 335 337 337 333 326 326 323 326 335 337 337 336 334 332 331 330 330 329 328 326 325 323 322 323 323 323 323
308 308 310 311 311 315 323 325 326 328 332 333 333 334 334 334 334 335 336 336 333 327 325 324 326 330 334 336 335 333 332 330 329 329 329 329 328 328 326 325 325 325 325
311 312 312 313 313 315 317 324 326 328 329 332 334 333 333 333 333 333 334 335 336 334 327 327 326 326 329 334 335 334 333 331 330 330 329 328 328 328 327 326 327 327 327
311 311 312 313 312 312 313 314 321 325 326 329 332 332 332 333 332 333 333 333 334 334 333 329 329 328 327 329 333 334 334 332 331 331 330 329 328 328 327 326 328 328 327
312 311 312 311 312 316 317 317 317 317 325 327 329 330 330 331 332 331 332 332 332 332 332 330 329 328 328 329 330 330 331 332 329 329 331 330 329 330 330 329 329 328 328
309 309 310 311 311 312 313 317 319 320 320 324 327 328 329 329 330 331 331 332 332 332 329 328 326 327 328 329 329 329 329 328 328 328 328 330 329 330 332 332 332 331 331
307 307 307 308 309 310 313 313 317 320 321 321 325 326 328 327 328 328 332 331 331 329 328 327 326 327 328 328 329 327 326 325 325 327 326 326 327 327 328 330 332 332 331
301 302 305 307 305 307 309 310 315 317 319 322 323 324 326 327 322 327 328 329 329 328 327 326 328 328 329 328 327 325 326 324 322 322 326 326 325 326 327 330 330 330 331
299 299 300 302 301 305 306 307 310 316 318 319 322 324 325 324 325 325 326 327 328 328 329 328 327 328 327 326 327 327 327 326 326 326 325 327 329 326 327 328 330 330 330
295 296 298 299 301 302 300 304 306 310 312 319 321 323 324 324 324 324 326 323 326 327 329 328 327 326 326 327 326 325 324 324 324 324 325 328 329 330 330 329 329 329 330
291 291 292 296 299 300 298 299 301 303 306 309 312 313 314 313 310 312 321 324 324 324 325 326 327 326 325 324 323 323 322 322 321 322 323 325 326 328 329 330 329 329 329
289 290 290 290 292 294 297 297 298 298 300 303 304 306 308 309 309 310 312 312 323 323 323 320 319 319 315 314 311 314 313 315 318 318 319 321 323 323 324 326 328 328 327
289 289 289 289 290 291 291 294 296 296 297 298 299 301 304 301 301 302 305 307 313 315 317 314 307 306 304 303 302 304 303 304 306 311 314 318 320 321 322 322 322 323 324
288 288 288 288 289 289 290 290 290 292 294 294 295 297 301 298 297 297 300 302 305 313 314 310 309 300 298 297 297 296 298 299 301 306 308 310 313 317 320 321 322 322 323
288 288 287 287 288 289 289 289 289 289 290 292 293 296 295 293 293 293 298 297 298 301 307 302 299 297 295 295 294 295 296 298 298 299 300 306 308 311 315 318 320 322 323
287 287 287 287 287 289 289 289 288 288 289 290 291 291 290 290 291 293 295 293 295 296 299 298 295 293 291 291 292 291 290 291 291 292 293 295 306 306 309 311 315 318 321
287 286 286 286 287 288 288 289 289 288 287 289 290 290 289 289 291 291 292 293 293 293 294 294 292 290 290 290 288 288 288 288 289 289 289 298 299 302 307 306 308 310 313
286 286 286 286 286 287 289 289 289 288 287 288 288 289 289 289 291 291 292 291 290 289 289 290 290 289 288 288 288 288 288 288 287 288 295 296 293 291 291 294 296 305 308
286 286 286 286 286 286 289 290 289 288 287 287 288 288 288 289 290 291 291 290 289 289 288 288 288 288 288 288 288 288 288 287 287 290 289 287 288 289 289 290 291 295 300
286 286 286 286 286 286 289 290 290 289 288 287 287 287 288 288 289 290 290 291 290 289 288 288 288 288 288 288 288 288 288 287 287 289 287 286 287 287 288 291 293 294 295
285 285 285 286 286 286 287 290 290 290 288 288 288 287 287 287 287 287 289 290 291 290 289 288 288 287 287 288 288 288 287 287 286 287 286 286 286 288 290 290 290 289 294
285 285 285 285 285 286 288 290 290 288 288 287 287 287 287 287 288 288 289 289 289 289 290 290 289 288 288 288 288 288 287 287 286 285 285 286 286 288 286 285 286 289 297
285 285 285 285 285 285 286 288 289 288 287 286 286 286 287 287 287 288 288 288 288 288 288 288 289 289 289 289 289 288 287 286 285 285 285 285 286 285 284 285 289 293 291
285 285 284 284 285 285 285 287 287 287 286 285 285 286 286 285 285 287 287 287 287 287 287 287 288 288 289 290 290 288 286 285 284 285 284 284 284 284 284 284 286 288 286
285 284 284 284 284 284 284 285 287 286 286 285 285 286 285 285 286 287 287 287 287 287 287 287 288 287 287 287 287 287 285 284 283 284 285 284 284 284 283 284 285 284 285

GFSMA_925_thetae_129.txt.gz
Theta_e
306 307 307 307 308 308 312 313 323 327 330 331 334 335 336 335 336 335 335 335 335 324 324 327 334 336 337 336 334 332 331 330 330 329 328 328 324 322 324 324 324 322 322
308 309 310 311 312 311 312 319 322 324 327 329 331 333 335 335 333 333 334 334 335 335 328 326 329 335 336 338 336 333 332 330 331 330 329 329 328 325 324 326 326 324 324
310 310 310 310 311 313 313 314 318 321 322 324 328 331 332 334 334 333 333 333 333 334 335 326 325 329 335 337 337 334 333 331 330 329 329 329 328 328 327 325 325 325 325
311 310 312 313 312 312 315 317 318 318 320 323 325 327 330 332 333 333 332 333 332 333 335 333 325 323 324 334 335 336 335 332 331 330 329 328 327 327 327 327 327 325 325
309 310 310 310 311 311 312 315 317 318 319 317 322 325 327 327 331 334 332 331 331 331 332 334 333 326 324 324 330 334 335 334 332 330 330 330 329 328 327 327 327 327 327
307 308 308 309 310 312 312 313 313 315 318 319 318 318 324 328 330 331 331 331 331 331 331 332 333 332 328 327 327 331 334 334 334 332 330 330 329 328 328 328 328 328 328
304 305 306 307 307 308 308 311 312 313 315 318 319 319 321 323 327 330 330 331 330 329 331 331 331 331 331 328 328 327 329 329 331 330 330 327 328 328 327 328 329 331 330
301 301 302 304 305 306 307 307 308 311 316 317 318 318 321 322 327 328 330 329 330 330 330 329 329 328 327 326 327 327 328 328 329 328 327 327 326 327 328 329 329 331 331
300 300 300 300 300 302 304 304 305 306 310 315 316 317 320 323 326 327 328 329 329 328 328 328 327 327 326 326 326 327 328 329 328 328 327 326 324 324 326 328 329 330 329
293 294 295 299 300 300 301 302 303 304 305 308 313 316 317 319 324 325 325 327 327 327 327 327 328 327 326 327 327 328 328 328 326 325 327 327 325 324 325 326 328 328 327
290 290 290 291 294 298 298 299 301 302 304 305 307 311 316 318 319 323 325 325 324 326 326 326 326 327 327 327 326 326 326 326 325 325 326 326 327 328 328 327 328 328 326
289 289 289 290 291 291 293 298 298 298 299 302 303 306 308 310 313 314 317 317 321 323 323 318 319 321 322 321 320 320 321 321 321 322 322 324 325 326 326 327 329 329 329
288 288 288 289 289 290 290 290 294 297 296 297 299 302 301 301 302 306 311 312 314 316 318 312 304 300 301 302 305 306 307 306 313 316 317 317 321 323 323 323 323 326 326
288 288 288 288 288 289 289 289 290 291 293 294 296 300 299 297 298 302 304 306 312 315 315 307 302 302 297 298 297 296 300 302 307 308 307 310 313 315 317 319 321 322 322
288 287 287 287 288 289 289 289 288 289 290 292 294 295 293 293 294 298 299 301 304 310 312 304 302 296 294 293 294 294 297 297 300 299 299 300 305 309 310 314 317 319 321
287 287 287 287 287 288 288 288 288 288 288 290 292 291 291 292 294 296 295 296 298 300 305 300 297 294 292 292 290 289 290 290 291 291 294 294 304 305 306 309 310 312 316
287 287 287 287 287 287 288 289 288 287 287 288 289 290 290 291 292 293 294 295 295 296 298 297 294 290 290 288 288 288 288 289 288 289 290 298 298 298 300 306 306 308 310
287 286 286 286 286 287 288 289 289 288 287 288 288 288 289 290 291 292 292 291 291 291 292 292 291 291 290 288 288 288 288 288 287 288 295 293 292 291 291 293 296 299 303
287 286 286 286 286 286 289 289 289 288 287 287 287 288 288 289 290 291 292 291 290 289 290 290 289 289 289 289 288 288 288 287 287 290 290 287 287 288 291 293 293 297 296
286 286 286 286 286 286 289 290 290 289 288 287 287 287 287 288 289 290 290 291 290 289 289 289 289 289 288 288 288 289 289 288 287 289 287 286 286 287 288 291 291 293 293
286 286 286 286 286 286 288 290 290 290 288 288 288 288 287 287 288 289 290 290 291 290 289 289 289 289 289 288 288 288 289 288 288 287 287 287 286 288 289 287 287 288 288
286 286 285 285 286 286 286 290 290 290 288 287 287 287 287 287 287 288 289 290 290 290 290 290 290 289 289 288 288 288 288 288 288 287 286 286 286 287 288 286 285 287 292
286 285 285 285 285 285 286 289 289 289 288 287 286 286 286 287 287 287 288 288 288 288 289 289 289 289 288 288 289 289 289 288 288 287 286 286 286 287 286 285 285 291 292
285 285 285 285 285 285 285 287 289 288 287 286 285 285 286 286 285 286 287 287 287 287 287 287 288 289 288 288 289 289 289 288 286 286 285 286 286 286 285 284 284 288 288
285 285 285 284 284 285 285 286 287 287 286 286 285 285 285 286 285 287 287 287 287 287 286 286 287 288 288 289 288 289 288 287 287 286 285 285 285 284 284 284 285 286 285
285 284 284 284 284 284 284 284 286 287 286 286 285 285 285 286 286 286 287 287 287 287 286 287 287 287 286 286 286 286 286 286 286 285 285 284 284 284 284 284 285 284 284